[[{"header":{"parameterUnit":"m.s-1","parameterCategory":1,"la1":30.6,"la2":28.766,"lo1":-90.7593,"lo2":-88.6598,"dx":0.0162,"dy":0.0183,"nx":116,"ny":114,"refTime":"2023-02-08T18:00:00:Z","depth":0,"parameterNumber":2,"parameterNumberName":"U-component_of_WINDS"},"data":[0.0,0.0,0.0,0.0,0.0,0.0,0.0,0.0,0.0,0.0,0.0,0.0,0.0,0.0,0.0,0.0,0.0,0.0,0.0,0.0,0.0,0.0,0.0,0.0,0.0,0.0,0.0,0.0,0.0,0.0,0.0,0.0,0.0,0.0,0.0,0.0,0.0,0.0,0.0,0.0,0.0,0.0,0.0,0.0,0.0,0.0,0.0,0.0,0.0,0.0,0.0,0.0,0.0,0.0,0.0,0.0,0.0,0.0,0.0,0.0,0.0,0.0,0.0,0.0,0.0,0.0,0.0,0.0,0.0,0.0,0.0,0.0,0.0,0.0,0.0,0.0,0.0,0.0,0.0,0.0,0.0,0.0,0.0,0.0,0.0,0.0,0.0,0.0,0.0,0.0,0.0,0.0,0.0,0.0,0.0,0.0,0.0,0.0,0.0,0.0,0.0,0.0,0.0,0.0,0.0,0.0,0.0,0.0,0.0,0.0,0.0,0.0,0.0,0.0,0.0,0.0,0.0,0.0,0.0,0.0,0.0,0.0,0.0,0.0,0.0,0.0,0.0,0.0,0.0,0.0,0.0,0.0,0.0,0.0,0.0,0.0,0.0,0.0,0.0,0.0,0.0,0.0,0.0,0.0,0.0,0.0,0.0,0.0,0.0,0.0,0.0,0.0,0.0,0.0,0.0,0.0,0.0,0.0,0.0,0.0,0.0,0.0,0.0,0.0,0.0,0.0,0.0,0.0,0.0,0.0,0.0,0.0,0.0,0.0,0.0,0.0,0.0,0.0,0.0,0.0,0.0,0.0,0.0,0.0,0.0,0.0,0.0,0.0,0.0,0.0,0.0,0.0,0.0,0.0,0.0,0.0,0.0,0.0,0.0,0.0,0.0,0.0,0.0,0.0,0.0,0.0,0.0,0.0,0.0,0.0,0.0,0.0,0.0,0.0,0.0,0.0,0.0,0.0,0.0,0.0,0.0,0.0,0.0,0.0,0.0,0.0,0.0,0.0,0.0,0.0,0.0,0.0,0.0,0.0,0.0,0.0,0.0,0.0,0.0,0.0,0.0,0.0,0.0,0.0,0.0,0.0,0.0,0.0,0.0,0.0,0.0,0.0,0.0,0.0,0.0,0.0,0.0,0.0,0.0,0.0,0.0,0.0,0.0,0.0,0.0,0.0,0.0,0.0,0.0,0.0,0.0,0.0,0.0,0.0,0.0,0.0,0.0,0.0,0.0,0.0,0.0,0.0,0.0,0.0,0.0,0.0,0.0,0.0,0.0,0.0,0.0,0.0,0.0,0.0,0.0,0.0,0.0,0.0,0.0,0.0,0.0,0.0,0.0,0.0,0.0,0.0,0.0,0.0,0.0,0.0,0.0,0.0,0.0,0.0,0.0,0.0,0.0,0.0,0.0,0.0,0.0,0.0,0.0,0.0,0.0,0.0,0.0,0.0,0.0,0.0,0.0,0.0,0.0,0.0,0.0,0.0,0.0,0.0,0.0,0.0,0.0,0.0,0.0,0.0,0.0,0.0,0.0,0.0,0.0,0.0,0.0,0.0,0.0,0.0,0.0,0.0,0.0,0.0,0.0,0.0,0.0,0.0,0.0,0.0,0.0,0.0,0.0,0.0,0.0,0.0,0.0,0.0,0.0,0.0,0.0,0.0,0.0,0.0,0.0,0.0,0.0,0.0,0.0,0.0,0.0,0.0,0.0,0.0,0.0,0.0,0.0,0.0,0.0,0.0,0.0,0.0,0.0,0.0,0.0,0.0,0.0,0.0,0.0,0.0,0.0,0.0,0.0,0.0,0.0,0.0,0.0,0.0,0.0,0.0,0.0,0.0,0.0,0.0,0.0,0.0,0.0,0.0,0.0,0.0,0.0,0.0,0.0,0.0,0.0,0.0,0.0,0.0,0.0,0.0,0.0,0.0,0.0,0.0,0.0,0.0,0.0,0.0,0.0,0.0,0.0,0.0,0.0,0.0,0.0,0.0,0.0,0.0,0.0,0.0,0.0,0.0,0.0,0.0,0.0,0.0,0.0,0.0,0.0,0.0,0.0,0.0,0.0,0.0,0.0,0.0,0.0,0.0,0.0,0.0,0.0,0.0,0.0,0.0,0.0,0.0,0.0,0.0,0.0,0.0,0.0,0.0,0.0,0.0,0.0,0.0,0.0,0.0,0.0,0.0,0.0,0.0,0.0,0.0,0.0,0.0,0.0,0.0,0.0,0.0,0.0,0.0,0.0,0.0,0.0,0.0,0.0,0.0,0.0,0.0,0.0,0.0,0.0,0.0,0.0,0.0,0.0,0.0,0.0,0.0,0.0,0.0,0.0,0.0,0.0,0.0,0.0,0.0,0.0,0.0,0.0,0.0,0.0,0.0,0.0,0.0,0.0,0.0,0.0,0.0,0.0,0.0,0.0,0.0,0.0,0.0,0.0,0.0,0.0,0.0,0.0,0.0,0.0,0.0,0.0,0.0,0.0,0.0,0.0,0.0,0.0,0.0,0.0,0.0,0.0,0.0,0.0,0.0,0.0,0.0,0.0,0.0,0.0,0.0,0.0,0.0,0.0,0.0,0.0,0.0,0.0,0.0,0.0,0.0,0.0,0.0,0.0,0.0,0.0,0.0,0.0,0.0,0.0,0.0,0.0,0.0,0.0,0.0,0.0,0.0,0.0,0.0,0.0,0.0,0.0,0.0,0.0,0.0,0.0,0.0,0.0,0.0,0.0,0.0,0.0,0.0,0.0,0.0,0.0,0.0,0.0,0.0,0.0,0.0,0.0,0.0,0.0,0.0,0.0,0.0,0.0,0.0,0.0,0.0,0.0,0.0,0.0,0.0,0.0,0.0,0.0,0.0,0.0,0.0,0.0,0.0,0.0,0.0,0.0,0.0,0.0,0.0,0.0,0.0,0.0,0.0,0.0,0.0,0.0,0.0,0.0,0.0,0.0,0.0,0.0,0.0,0.0,0.0,0.0,0.0,0.0,0.0,0.0,0.0,0.0,0.0,0.0,0.0,0.0,0.0,0.0,0.0,0.0,0.0,0.0,0.0,0.0,0.0,0.0,0.0,0.0,0.0,0.0,0.0,0.0,0.0,0.0,0.0,0.0,0.0,0.0,0.0,0.0,0.0,0.0,0.0,0.0,0.0,0.0,0.0,0.0,0.0,0.0,0.0,0.0,0.0,0.0,0.0,0.0,0.0,0.0,0.0,0.0,0.0,0.0,0.0,0.0,0.0,0.0,0.0,0.0,0.0,0.0,0.0,0.0,0.0,0.0,0.0,0.0,0.0,0.0,0.0,0.0,0.0,0.0,0.0,0.0,0.0,0.0,0.0,0.0,0.0,0.0,0.0,0.0,0.0,0.0,0.0,0.0,0.0,0.0,0.0,0.0,0.0,0.0,0.0,0.0,0.0,0.0,0.0,0.0,0.0,0.0,0.0,0.0,0.0,0.0,0.0,0.0,0.0,0.0,0.0,0.0,0.0,0.0,0.0,0.0,0.0,0.0,0.0,0.0,0.0,0.0,0.0,0.0,0.0,0.0,0.0,0.0,0.0,0.0,0.0,0.0,0.0,0.0,0.0,0.0,0.0,0.0,0.0,0.0,0.0,0.0,0.0,0.0,0.0,0.0,0.0,0.0,0.0,0.0,0.0,0.0,0.0,0.0,0.0,0.0,0.0,0.0,0.0,0.0,0.0,0.0,0.0,0.0,0.0,0.0,0.0,0.0,0.0,0.0,0.0,0.0,0.0,0.0,0.0,0.0,0.0,0.0,0.0,0.0,0.0,0.0,0.0,0.0,0.0,0.0,0.0,0.0,0.0,0.0,0.0,0.0,0.0,0.0,0.0,0.0,0.0,0.0,0.0,0.0,0.0,0.0,0.0,0.0,0.0,0.0,0.0,0.0,0.0,0.0,0.0,0.0,0.0,0.0,0.0,0.0,0.0,0.0,0.0,0.0,0.0,0.0,0.0,0.0,0.0,0.0,0.0,0.0,0.0,0.0,0.0,0.0,0.0,0.0,0.0,0.0,0.0,0.0,0.0,0.0,0.0,0.0,0.0,0.0,0.0,0.0,0.0,0.0,0.0,0.0,0.0,0.0,0.0,0.0,0.0,0.0,0.0,0.0,0.0,0.0,0.0,0.0,0.0,0.0,0.0,0.0,0.0,0.0,0.0,0.0,0.0,0.0,0.0,0.0,0.0,0.0,0.0,0.0,0.0,0.0,0.0,0.0,0.0,0.0,0.0,0.0,0.0,0.0,0.0,0.0,0.0,0.0,0.0,0.0,0.0,0.0,0.0,0.0,0.0,0.0,0.0,0.0,0.0,0.0,0.0,0.0,0.0,0.0,0.0,0.0,0.0,0.0,0.0,0.0,0.0,0.0,0.0,0.0,0.0,0.0,0.0,0.0,0.0,0.0,0.0,0.0,0.0,0.0,0.0,0.0,0.0,0.0,0.0,0.0,0.0,0.0,0.0,0.0,0.0,0.0,0.0,0.0,0.0,0.0,0.0,0.0,0.0,0.0,0.0,0.0,0.0,0.0,0.0,0.0,0.0,0.0,0.0,0.0,0.0,0.0,0.0,0.0,0.0,0.0,0.0,0.0,0.0,0.0,0.0,0.0,0.0,0.0,0.0,0.0,0.0,0.0,0.0,0.0,0.0,0.0,0.0,0.0,0.0,0.0,0.0,0.0,0.0,0.0,0.0,0.0,0.0,0.0,0.0,0.0,0.0,0.0,0.0,0.0,0.0,0.0,0.0,0.0,0.0,0.0,0.0,0.0,0.0,0.0,0.0,0.0,0.0,0.0,0.0,0.0,0.0,0.0,0.0,0.0,0.0,0.0,0.0,0.0,0.0,0.0,0.0,0.0,0.0,0.0,0.0,0.0,0.0,0.0,0.0,0.0,0.0,0.0,0.0,0.0,0.0,0.0,0.0,0.0,0.0,0.0,0.0,0.0,0.0,0.0,0.0,0.0,0.0,0.0,0.0,0.0,0.0,0.0,0.0,0.0,0.0,0.0,0.0,0.0,0.0,0.0,0.0,0.0,0.0,0.0,0.0,0.0,0.0,0.0,0.0,0.0,0.0,0.0,0.0,0.0,0.0,0.0,0.0,0.0,0.0,0.0,0.0,0.0,0.0,0.0,0.0,0.0,0.0,0.0,0.0,0.0,0.0,0.0,0.0,0.0,0.0,0.0,0.0,0.0,0.0,0.0,0.0,0.0,0.0,0.0,0.0,0.0,0.0,0.0,0.0,0.0,0.0,0.0,0.0,0.0,0.0,0.0,0.0,0.0,0.0,0.0,0.0,0.0,0.0,0.0,0.0,0.0,0.0,0.0,0.0,0.0,0.0,0.0,0.0,0.0,0.0,0.0,0.0,0.0,0.0,0.0,0.0,0.0,0.0,0.0,0.0,0.0,0.0,0.0,0.0,0.0,0.0,0.0,0.0,0.0,0.0,0.0,0.0,0.0,0.0,0.0,0.0,0.0,0.0,0.0,0.0,0.0,0.0,0.0,0.0,0.0,0.0,0.0,0.0,0.0,0.0,0.0,0.0,0.0,0.0,0.0,0.0,0.0,0.0,0.0,0.0,0.0,0.0,0.0,0.0,0.0,0.0,0.0,0.0,0.0,0.0,0.0,0.0,0.0,0.0,0.0,0.0,0.0,0.0,0.0,0.0,0.0,0.0,0.0,0.0,0.0,0.0,0.0,0.0,0.0,0.0,0.0,0.0,0.0,0.0,0.0,0.0,0.0,0.0,0.0,0.0,0.0,0.0,0.0,0.0,0.0,0.0,0.0,0.0,0.0,0.0,0.0,0.0,0.0,0.0,0.0,0.0,0.0,0.0,0.0,0.0,0.0,0.0,0.0,0.0,0.0,0.0,0.0,0.0,0.0,0.0,0.0,0.0,0.0,0.0,0.0,0.0,0.0,0.0,0.0,0.0,0.0,0.0,0.0,0.0,0.0,0.0,0.0,0.0,0.0,0.0,0.0,0.0,0.0,0.0,0.0,0.0,0.0,0.0,0.0,0.0,0.0,0.0,0.0,0.0,0.0,0.0,0.0,0.0,0.0,0.0,0.0,0.0,0.0,0.0,0.0,0.0,5.1928,0.0,0.0,0.0,0.0,0.0,0.0,0.0,0.0,0.0,0.0,0.0,0.0,0.0,0.0,0.0,0.0,0.0,0.0,0.0,0.0,0.0,0.0,0.0,0.0,0.0,0.0,0.0,0.0,0.0,0.0,0.0,0.0,0.0,0.0,0.0,0.0,0.0,0.0,0.0,0.0,0.0,0.0,0.0,0.0,0.0,0.0,0.0,0.0,0.0,0.0,0.0,0.0,0.0,0.0,0.0,0.0,0.0,0.0,0.0,0.0,0.0,0.0,0.0,0.0,0.0,0.0,0.0,0.0,0.0,0.0,0.0,0.0,0.0,0.0,0.0,0.0,0.0,0.0,0.0,0.0,0.0,0.0,0.0,0.0,0.0,0.0,0.0,0.0,0.0,0.0,0.0,0.0,0.0,0.0,0.0,0.0,0.0,0.0,0.0,0.0,0.0,0.0,0.0,0.0,0.0,0.0,0.0,0.0,0.0,0.0,0.0,0.0,0.0,0.0,0.0,0.0,5.3044,0.0,0.0,0.0,0.0,0.0,0.0,0.0,0.0,0.0,0.0,0.0,0.0,0.0,0.0,0.0,0.0,0.0,0.0,0.0,0.0,0.0,0.0,0.0,0.0,0.0,0.0,0.0,0.0,0.0,0.0,0.0,0.0,0.0,0.0,0.0,0.0,0.0,0.0,0.0,0.0,0.0,0.0,0.0,0.0,0.0,0.0,0.0,0.0,0.0,0.0,0.0,0.0,0.0,0.0,0.0,0.0,0.0,0.0,0.0,0.0,0.0,0.0,0.0,0.0,0.0,0.0,0.0,0.0,0.0,0.0,0.0,0.0,0.0,0.0,0.0,0.0,0.0,0.0,0.0,0.0,0.0,0.0,0.0,0.0,0.0,0.0,0.0,0.0,0.0,0.0,0.0,0.0,0.0,0.0,0.0,0.0,0.0,0.0,0.0,0.0,0.0,0.0,0.0,0.0,0.0,0.0,0.0,0.0,0.0,5.9877,6.1061,6.1197,6.1975,6.2922,5.8592,5.6359,5.5649,0.0,0.0,0.0,0.0,0.0,0.0,0.0,0.0,0.0,0.0,0.0,0.0,0.0,0.0,0.0,0.0,0.0,0.0,0.0,0.0,0.0,0.0,0.0,0.0,0.0,0.0,0.0,0.0,0.0,0.0,0.0,0.0,0.0,0.0,0.0,0.0,0.0,0.0,0.0,0.0,0.0,0.0,0.0,0.0,0.0,0.0,0.0,0.0,0.0,0.0,0.0,0.0,0.0,0.0,0.0,0.0,0.0,0.0,0.0,0.0,0.0,0.0,0.0,0.0,0.0,0.0,0.0,0.0,0.0,0.0,0.0,0.0,0.0,0.0,0.0,0.0,0.0,0.0,0.0,0.0,0.0,0.0,0.0,0.0,0.0,0.0,0.0,5.3078,5.3179,0.0,0.0,0.0,0.0,0.0,0.0,0.0,0.0,0.0,0.0,0.0,0.0,0.0,0.0,5.8423,6.0385,6.1467,6.167,6.37,6.4749,6.4952,6.5628,6.6034,6.6203,6.5493,0.0,6.0317,5.8761,0.0,0.0,0.0,0.0,0.0,0.0,0.0,0.0,0.0,0.0,0.0,0.0,0.0,0.0,0.0,0.0,0.0,0.0,0.0,0.0,0.0,0.0,0.0,0.0,0.0,0.0,0.0,0.0,0.0,0.0,0.0,0.0,0.0,0.0,0.0,0.0,0.0,0.0,0.0,0.0,0.0,0.0,0.0,0.0,0.0,0.0,0.0,0.0,0.0,0.0,0.0,0.0,0.0,0.0,0.0,0.0,0.0,0.0,0.0,0.0,0.0,0.0,0.0,0.0,0.0,0.0,0.0,0.0,0.0,0.0,0.0,0.0,0.0,0.0,0.0,0.0,0.0,0.0,0.0,0.0,0.0,0.0,0.0,0.0,0.0,5.2672,5.3653,5.2367,5.2739,5.2266,0.0,0.0,0.0,0.0,0.0,0.0,0.0,0.0,0.0,6.0486,6.0892,6.1806,6.3396,6.4783,6.6339,6.803,6.9417,7.0939,7.2597,7.2935,7.3105,7.3037,7.2191,7.0432,6.776,6.2482,5.9268,5.7442,0.0,0.0,0.0,0.0,0.0,5.619,0.0,0.0,0.0,0.0,0.0,0.0,0.0,0.0,0.0,0.0,0.0,0.0,0.0,0.0,0.0,0.0,0.0,0.0,0.0,0.0,0.0,0.0,0.0,0.0,0.0,0.0,0.0,0.0,0.0,0.0,0.0,0.0,0.0,0.0,0.0,0.0,0.0,0.0,0.0,0.0,0.0,0.0,0.0,0.0,0.0,0.0,0.0,0.0,0.0,0.0,0.0,0.0,0.0,0.0,0.0,0.0,0.0,0.0,0.0,0.0,0.0,0.0,0.0,0.0,0.0,0.0,0.0,0.0,0.0,0.0,0.0,0.0,0.0,0.0,0.0,0.0,0.0,5.3822,5.4803,5.2367,5.4397,5.46,0.0,0.0,0.0,0.0,0.0,0.0,5.9776,6.008,6.1975,6.5933,6.644,6.7523,6.9383,7.0128,7.1616,7.3849,7.4559,7.6115,7.828,7.828,7.8382,7.8483,7.6927,7.554,7.3781,6.6373,6.2584,6.1264,5.8727,5.7611,5.7543,5.8457,5.9133,5.981,0.0,0.0,0.0,0.0,0.0,0.0,0.0,0.0,0.0,0.0,0.0,0.0,0.0,0.0,0.0,0.0,0.0,0.0,0.0,0.0,0.0,0.0,0.0,0.0,0.0,0.0,0.0,0.0,0.0,0.0,0.0,0.0,0.0,0.0,0.0,0.0,0.0,0.0,0.0,0.0,0.0,0.0,0.0,0.0,0.0,0.0,0.0,0.0,0.0,0.0,0.0,0.0,0.0,0.0,0.0,0.0,0.0,0.0,0.0,0.0,0.0,0.0,0.0,0.0,0.0,0.0,0.0,0.0,0.0,0.0,0.0,0.0,0.0,0.0,0.0,0.0,0.0,0.0,0.0,5.4769,5.7611,0.0,0.0,0.0,0.0,5.7543,5.8389,6.0723,6.5053,6.5967,6.8402,7.2834,7.4356,7.5506,7.6386,7.7096,7.757,7.7705,7.8483,7.8923,7.9058,7.9058,7.9431,8.0006,7.8517,7.7435,7.6318,7.0939,6.7421,6.5256,6.3734,6.2685,6.2245,6.3666,6.4241,6.4478,0.0,0.0,0.0,0.0,0.0,0.0,0.0,0.0,0.0,0.0,0.0,0.0,0.0,0.0,0.0,0.0,0.0,0.0,0.0,0.0,0.0,0.0,0.0,0.0,0.0,0.0,0.0,0.0,0.0,0.0,0.0,0.0,0.0,0.0,0.0,0.0,0.0,0.0,0.0,0.0,0.0,0.0,0.0,0.0,0.0,0.0,0.0,0.0,0.0,0.0,0.0,0.0,0.0,0.0,0.0,0.0,0.0,0.0,0.0,0.0,0.0,0.0,0.0,0.0,0.0,0.0,0.0,0.0,0.0,0.0,0.0,0.0,0.0,0.0,0.0,0.0,0.0,0.0,0.0,5.9201,6.3057,0.0,0.0,6.1975,6.3362,6.3632,6.5696,6.8436,7.1954,7.1954,7.368,7.7671,7.8314,7.9194,8.0445,8.0716,8.1054,8.1528,8.1799,8.2205,8.2644,8.2644,8.2813,8.2949,8.146,8.0412,7.9464,7.6183,7.236,6.8436,6.6914,6.5899,6.529,6.5831,6.6339,6.6812,0.0,0.0,0.0,0.0,0.0,0.0,0.0,0.0,0.0,0.0,0.0,0.0,0.0,0.0,0.0,0.0,0.0,0.0,0.0,0.0,0.0,0.0,0.0,0.0,0.0,0.0,0.0,0.0,0.0,0.0,0.0,0.0,0.0,0.0,0.0,0.0,0.0,0.0,0.0,0.0,0.0,0.0,5.6461,0.0,0.0,0.0,0.0,0.0,0.0,0.0,0.0,0.0,0.0,0.0,0.0,0.0,0.0,0.0,0.0,0.0,0.0,0.0,0.0,0.0,0.0,0.0,0.0,0.0,0.0,0.0,0.0,0.0,0.0,0.0,0.0,0.0,0.0,0.0,6.4986,6.3024,6.7827,6.9755,6.5797,6.8064,6.9823,6.9823,7.2394,7.4999,7.7468,7.7604,7.8855,8.1596,8.1934,8.2441,8.3152,8.3152,8.3524,8.4268,8.3998,8.4268,8.5012,8.4471,8.437,8.4539,8.3321,8.2205,8.1156,7.9701,7.6623,7.2631,7.0872,6.9857,6.9417,6.9147,6.9214,6.9383,0.0,0.0,0.0,0.0,0.0,0.0,0.0,0.0,0.0,0.0,0.0,0.0,0.0,0.0,0.0,0.0,0.0,0.0,0.0,0.0,0.0,0.0,0.0,0.0,0.0,0.0,0.0,0.0,0.0,0.0,0.0,0.0,0.0,0.0,0.0,0.0,0.0,0.0,0.0,0.0,0.0,0.0,6.2922,0.0,0.0,0.0,0.0,0.0,0.0,0.0,0.0,0.0,0.0,0.0,0.0,0.0,0.0,0.0,0.0,0.0,0.0,0.0,0.0,0.0,0.0,0.0,0.0,0.0,0.0,0.0,0.0,0.0,0.0,0.0,0.0,0.0,5.9505,6.441,6.7658,6.6305,7.1921,7.4796,7.1921,7.4221,7.5879,7.5912,7.7976,7.987,8.1359,8.2746,8.3862,8.4674,8.5418,8.5452,8.4742,8.4742,8.508,8.579,8.5012,8.5046,8.5723,8.4234,8.3964,8.4606,8.3862,8.2712,8.1359,8.1325,8.004,7.7874,7.554,7.4661,7.4559,7.3781,7.3037,7.2326,0.0,0.0,0.0,0.0,0.0,0.0,0.0,0.0,0.0,0.0,0.0,0.0,0.0,0.0,0.0,0.0,0.0,0.0,0.0,0.0,0.0,0.0,0.0,0.0,0.0,0.0,0.0,0.0,0.0,0.0,0.0,0.0,0.0,0.0,0.0,0.0,0.0,0.0,0.0,0.0,0.0,0.0,6.6136,0.0,0.0,0.0,0.0,0.0,0.0,0.0,0.0,0.0,0.0,0.0,0.0,0.0,0.0,0.0,0.0,0.0,0.0,0.0,0.0,0.0,0.0,0.0,0.0,0.0,0.0,0.0,0.0,0.0,0.0,0.0,0.0,6.5933,6.5527,7.0128,7.4221,7.598,7.8788,8.004,7.8686,7.9261,7.9972,8.0513,8.1156,8.2408,8.4437,8.3896,8.4336,8.623,8.6501,8.6738,8.7076,8.7076,8.6636,8.579,8.5587,8.5587,8.5757,8.4776,8.4742,8.5418,8.464,8.3761,8.2847,8.2306,8.1426,8.004,7.669,7.5405,7.5236,7.395,7.3341,7.3071,0.0,0.0,0.0,0.0,0.0,0.0,0.0,0.0,0.0,0.0,0.0,0.0,0.0,0.0,0.0,0.0,0.0,0.0,0.0,0.0,0.0,0.0,0.0,0.0,0.0,0.0,0.0,0.0,0.0,0.0,0.0,0.0,0.0,0.0,0.0,0.0,0.0,0.0,0.0,0.0,0.0,0.0,7.2462,6.7083,6.4208,6.2719,6.0317,5.9167,5.8423,5.5953,0.0,0.0,0.0,0.0,0.0,0.0,0.0,0.0,0.0,0.0,0.0,0.0,0.0,0.0,0.0,0.0,0.0,0.0,0.0,0.0,0.0,0.0,0.0,0.0,6.847,7.1819,7.3713,7.6048,7.8686,8.1697,8.3118,8.3795,8.3659,8.393,8.4167,8.4302,8.4877,8.5655,8.667,8.6163,8.6298,8.7347,8.7076,8.711,8.755,8.7211,8.6941,8.6704,8.6095,8.596,8.623,8.5114,8.4877,0.0,8.4809,8.42,8.3456,8.305,8.2611,0.0,0.0,0.0,0.0,0.0,7.4221,7.3849,0.0,0.0,0.0,0.0,0.0,0.0,0.0,0.0,0.0,0.0,0.0,0.0,0.0,0.0,0.0,0.0,0.0,0.0,0.0,0.0,0.0,0.0,0.0,0.0,0.0,0.0,0.0,0.0,0.0,0.0,0.0,0.0,0.0,0.0,0.0,0.0,0.0,0.0,0.0,0.0,0.0,8.4708,8.0006,7.3612,7.1075,7.0466,6.688,6.3937,6.1569,6.052,0.0,0.0,0.0,0.0,0.0,0.0,0.0,0.0,0.0,0.0,0.0,0.0,0.0,0.0,0.0,0.0,0.0,0.0,0.0,0.0,0.0,0.0,0.0,0.0,7.395,7.801,8.2408,8.19,8.2069,8.4674,8.5621,8.6332,8.7076,8.7651,8.7753,8.7211,8.826,8.8734,8.8158,0.0,0.0,0.0,0.0,8.7144,8.7144,8.6569,8.6907,8.8091,8.6771,8.6501,8.711,8.5655,8.4945,8.4877,8.4776,8.4336,8.3625,8.3524,8.3389,8.2983,8.0378,7.9194,7.8754,7.6724,7.554,7.4864,0.0,0.0,0.0,0.0,0.0,0.0,0.0,0.0,0.0,0.0,0.0,0.0,0.0,0.0,0.0,0.0,0.0,0.0,0.0,0.0,0.0,0.0,0.0,0.0,0.0,0.0,0.0,0.0,0.0,0.0,0.0,0.0,0.0,0.0,0.0,0.0,0.0,0.0,0.0,0.0,0.0,8.7753,8.3287,7.9025,7.6657,7.527,7.2699,7.1785,7.1345,6.8199,6.7354,6.6846,6.2482,0.0,0.0,0.0,0.0,0.0,0.0,0.0,0.0,0.0,0.0,0.0,0.0,0.0,0.0,0.0,0.0,0.0,0.0,0.0,0.0,7.3172,7.7908,8.2475,8.6366,8.667,8.6704,8.7279,8.7482,8.7854,8.8598,8.826,8.8192,8.8632,8.8395,8.8395,8.8835,8.7888,0.0,8.8835,8.8734,8.8666,8.8666,8.9106,8.9173,8.8869,0.0,0.0,8.8632,8.7753,8.7042,8.6433,8.5824,8.5114,8.437,8.3761,8.278,8.1663,8.1088,7.9769,7.8145,7.7705,7.7435,7.713,0.0,0.0,0.0,0.0,0.0,0.0,0.0,0.0,0.0,0.0,0.0,0.0,0.0,0.0,0.0,0.0,0.0,0.0,0.0,0.0,0.0,0.0,0.0,0.0,0.0,0.0,0.0,0.0,0.0,0.0,0.0,0.0,0.0,0.0,0.0,0.0,0.0,0.0,0.0,0.0,9.4315,9.1778,8.8666,8.4573,8.234,8.1088,7.9194,7.7773,7.6521,7.4289,7.3037,7.1887,6.8876,6.6136,6.3497,0.0,0.0,0.0,0.0,0.0,0.0,0.0,0.0,0.0,0.0,0.0,0.0,0.0,0.0,6.4174,0.0,0.0,7.4289,7.8382,8.2205,8.5689,8.87,8.941,8.9647,8.9647,8.9342,8.9376,9.0121,8.985,8.9782,9.0154,8.9512,8.941,9.0154,8.8801,8.8666,9.0154,8.9478,8.9444,9.0188,9.0188,9.0188,9.0188,8.9816,8.9647,8.9579,8.8125,8.7245,8.6839,8.5689,8.4979,8.4606,8.42,8.3389,8.2374,8.2374,8.0818,7.8551,7.8551,7.8314,7.7874,0.0,0.0,0.0,0.0,0.0,0.0,0.0,0.0,0.0,0.0,0.0,0.0,0.0,0.0,0.0,0.0,0.0,0.0,0.0,0.0,0.0,0.0,0.0,0.0,0.0,0.0,0.0,0.0,0.0,0.0,0.0,0.0,0.0,0.0,0.0,0.0,0.0,0.0,0.0,9.8307,9.6988,9.5635,9.4011,8.9951,8.7583,8.623,8.4708,8.2171,7.9498,7.916,7.7468,7.5405,7.4931,7.2529,6.9248,6.6136,6.4208,0.0,0.0,0.0,0.0,0.0,0.0,0.0,0.0,0.0,6.1704,6.4241,6.6542,6.9045,7.2259,7.5337,7.8923,8.3422,8.6061,8.826,9.0357,9.1135,9.1575,9.1711,9.0966,9.0696,9.144,9.1508,9.1508,9.1508,9.0966,9.0899,9.1474,9.0222,9.0121,9.1474,9.0357,9.029,9.1508,9.1068,9.1169,9.1744,9.1135,9.0696,9.0357,8.8429,8.7313,8.6839,8.5283,8.464,8.464,8.464,8.4167,8.349,8.349,8.1968,7.9735,7.96,7.9058,7.8382,0.0,0.0,0.0,0.0,0.0,0.0,0.0,0.0,0.0,0.0,0.0,0.0,0.0,0.0,0.0,0.0,0.0,0.0,0.0,0.0,0.0,0.0,0.0,0.0,0.0,0.0,0.0,0.0,0.0,0.0,0.0,0.0,0.0,0.0,0.0,0.0,0.0,0.0,9.8679,9.9897,9.9051,9.824,9.7258,9.4789,9.1711,8.8531,8.7042,8.4167,8.1224,8.2475,8.0987,7.872,7.9261,7.8247,7.5642,6.935,0.0,6.4038,5.8254,5.7408,0.0,5.9471,6.0317,6.2144,0.0,0.0,6.8977,7.2529,7.5033,7.6927,7.8044,8.119,8.4268,8.623,8.8395,9.0391,9.1947,9.2252,9.2556,9.3233,9.2049,9.1474,9.2218,9.2286,9.2286,9.2286,9.2218,9.2218,9.2286,9.1508,9.144,9.2286,9.215,9.2116,9.2286,9.2895,9.3233,9.3334,9.3233,9.2489,9.1135,9.0256,8.8767,8.6839,8.5283,8.464,8.464,8.464,8.4167,8.349,8.349,8.2915,8.1968,8.1291,8.0581,7.987,0.0,0.0,0.0,0.0,0.0,0.0,0.0,0.0,0.0,0.0,0.0,0.0,0.0,0.0,0.0,0.0,0.0,0.0,0.0,0.0,0.0,0.0,0.0,0.0,0.0,0.0,0.0,0.0,0.0,0.0,0.0,0.0,0.0,0.0,0.0,0.0,0.0,9.9424,9.9931,10.0811,10.01,9.9288,9.8409,9.6176,9.2725,8.87,8.5926,8.2543,0.0,0.0,7.8517,7.7468,7.9566,7.7976,7.4661,7.0973,6.759,0.0,6.2009,0.0,0.0,0.0,6.5561,6.7387,7.0872,7.2326,7.3747,7.6657,7.9701,8.2069,8.2847,8.5655,8.8226,0.0,9.1,9.2387,9.2996,9.3098,9.2725,9.1744,9.1034,9.1305,9.2928,9.3098,9.3098,9.3098,9.2658,9.2624,9.3064,9.1947,9.2049,9.3706,9.2895,9.3064,9.4383,9.4282,9.4248,9.4248,9.4248,9.3436,9.1913,9.1169,8.941,8.6839,8.5757,8.5046,8.464,8.464,8.4437,8.4167,8.4167,8.3422,8.2306,8.1562,8.1088,8.0716,0.0,0.0,0.0,0.0,0.0,0.0,0.0,0.0,0.0,0.0,0.0,0.0,0.0,0.0,0.0,0.0,0.0,0.0,0.0,0.0,0.0,0.0,0.0,0.0,0.0,0.0,0.0,0.0,0.0,0.0,0.0,0.0,0.0,0.0,0.0,0.0,10.0506,10.0506,10.1014,10.169,10.1115,9.9999,9.851,9.5872,9.1575,8.6569,8.3625,7.9803,0.0,0.0,7.4255,7.3781,7.6792,7.5506,7.2462,7.0364,6.6711,6.3497,6.414,0.0,0.0,6.8402,7.077,7.2902,7.5134,7.6792,7.8483,8.0784,8.3558,8.579,8.6569,8.8767,0.0,9.1203,9.259,9.3503,9.33,9.3064,9.2184,9.0154,8.9715,9.0324,9.215,9.2725,9.3131,9.3537,9.3064,9.3064,9.3842,9.2827,9.2996,9.4654,9.3842,9.4045,9.5466,9.5161,9.4924,9.4721,9.4721,9.3808,9.2083,9.0899,8.9004,8.6569,8.6027,8.5351,8.464,8.464,8.464,8.464,8.464,8.3964,8.2915,8.2171,8.1494,8.0919,0.0,0.0,0.0,0.0,0.0,0.0,0.0,0.0,0.0,0.0,0.0,0.0,0.0,0.0,0.0,0.0,0.0,0.0,0.0,0.0,0.0,0.0,0.0,0.0,0.0,0.0,0.0,0.0,0.0,0.0,0.0,0.0,0.0,0.0,0.0,10.1386,10.1386,10.1386,10.1792,10.2502,10.2434,10.0709,9.7631,9.3943,8.7955,8.1426,8.0581,0.0,0.0,0.0,6.891,6.7624,7.0635,7.1481,0.0,6.6948,6.3193,0.0,0.0,0.0,6.8504,7.1515,7.5033,7.8314,8.0547,8.2205,8.3896,8.6196,8.7313,8.8125,8.8835,9.0222,9.1271,9.1305,9.259,9.3334,9.2556,9.1812,9.0797,8.9309,8.8497,8.8361,0.0,9.0527,9.1981,9.347,9.3571,9.3876,9.462,9.462,9.4654,9.4721,9.5364,9.5398,9.4755,9.5432,9.5398,9.4721,9.4721,9.3537,9.1271,8.9072,8.7279,8.5824,8.579,8.5351,8.464,8.464,8.464,8.464,8.464,8.4606,8.4471,8.3693,8.2069,8.0242,0.0,0.0,0.0,0.0,0.0,0.0,0.0,0.0,0.0,0.0,0.0,0.0,0.0,0.0,0.0,0.0,0.0,0.0,0.0,0.0,0.0,0.0,0.0,0.0,0.0,0.0,0.0,0.0,0.0,0.0,0.0,0.0,0.0,0.0,10.1893,10.1893,10.1386,10.1893,10.2806,10.3686,10.0709,9.9491,9.8645,9.0932,8.4302,7.8348,0.0,0.0,0.0,0.0,0.0,0.0,6.6474,0.0,0.0,6.1467,0.0,0.0,0.0,0.0,7.4695,7.8179,8.1122,8.3625,8.5351,8.6873,8.8023,8.8294,8.7786,8.7042,8.6264,8.6941,8.7955,8.8937,9.1203,9.2895,9.3165,9.2962,9.1338,8.7347,8.755,0.0,0.0,0.0,0.0,9.2658,9.33,9.3909,9.4654,9.5161,9.5635,9.6142,9.5466,9.5669,9.6886,9.5702,9.5195,9.5398,9.3909,9.3064,9.2725,9.0493,8.9207,8.8632,8.7177,8.6095,8.5351,8.4843,8.464,8.464,8.464,8.4302,8.3862,8.3592,8.2712,8.1596,0.0,0.0,0.0,0.0,0.0,0.0,0.0,0.0,0.0,0.0,0.0,0.0,0.0,0.0,0.0,0.0,0.0,0.0,0.0,0.0,0.0,0.0,0.0,0.0,0.0,0.0,0.0,0.0,0.0,0.0,0.0,0.0,0.0,9.8612,9.939,9.9457,9.9018,9.9525,9.9627,9.9187,9.5533,9.3334,9.144,8.3862,7.7435,0.0,0.0,0.0,0.0,0.0,0.0,0.0,0.0,0.0,0.0,0.0,0.0,0.0,0.0,7.5506,8.0547,8.4268,8.667,8.8463,8.9715,9.0324,9.0391,8.9647,8.7448,8.5317,8.4065,8.3592,8.3964,8.5723,8.782,8.9884,9.1711,9.1305,8.9647,8.6569,8.6535,0.0,0.0,0.0,0.0,9.1812,9.2996,9.4045,9.506,9.5804,9.6379,9.6853,9.6244,9.6447,9.7597,9.621,9.5466,9.5364,9.3368,9.2556,9.2725,9.1271,9.0019,8.897,8.782,8.6569,8.5317,8.4843,8.464,8.464,8.464,8.4336,8.3896,8.3896,8.3422,8.2644,0.0,0.0,0.0,0.0,0.0,0.0,0.0,0.0,0.0,0.0,0.0,0.0,0.0,0.0,0.0,0.0,0.0,0.0,0.0,0.0,0.0,0.0,0.0,0.0,0.0,0.0,0.0,0.0,0.0,0.0,0.0,0.0,9.215,9.2928,9.3639,9.3977,9.3977,9.3977,9.2353,8.9545,8.7211,8.2915,7.7502,7.3544,0.0,0.0,0.0,0.0,0.0,0.0,0.0,0.0,0.0,0.0,0.0,0.0,0.0,7.0939,7.6792,8.1731,8.6061,8.9613,9.1575,9.2827,9.3436,9.2387,9.1034,9.0121,8.6298,8.2881,0.0,0.0,7.9667,8.1934,8.3186,8.5215,8.897,8.7685,8.6569,0.0,0.0,0.0,0.0,0.0,0.0,9.1203,0.0,9.4214,9.5838,9.6582,9.7022,9.7056,9.7698,9.7732,9.7056,9.6954,9.6142,9.462,9.3165,9.2116,9.1406,9.1338,8.9782,8.7177,8.7719,8.6738,8.4742,8.464,8.464,8.464,8.464,8.464,8.464,8.464,8.4167,8.3355,0.0,0.0,0.0,0.0,0.0,0.0,0.0,0.0,0.0,0.0,0.0,0.0,0.0,0.0,0.0,0.0,0.0,0.0,0.0,0.0,0.0,0.0,0.0,0.0,0.0,0.0,0.0,0.0,0.0,0.0,0.0,0.0,8.2915,0.0,8.3795,8.3896,8.3896,8.3896,8.3761,8.3219,0.0,7.7502,7.6454,0.0,0.0,0.0,0.0,0.0,0.0,0.0,0.0,0.0,0.0,0.0,6.4681,0.0,0.0,7.8314,8.2611,8.826,9.3165,9.4146,9.506,9.5364,9.3909,9.2387,9.029,8.6771,8.2069,7.7502,0.0,0.0,0.0,8.031,8.5554,0.0,9.4349,9.4417,0.0,0.0,0.0,9.0729,8.9207,8.9579,0.0,0.0,9.3131,9.4112,9.7258,9.8138,9.8781,9.9356,9.9018,9.8984,9.9356,9.7698,9.5872,9.3876,9.347,9.3199,9.2962,9.1812,9.0899,9.0053,8.8057,8.6873,8.623,8.508,8.464,8.464,8.464,8.464,8.464,8.464,8.4505,8.42,0.0,0.0,0.0,0.0,0.0,0.0,0.0,0.0,0.0,0.0,0.0,0.0,0.0,0.0,0.0,0.0,0.0,0.0,0.0,0.0,0.0,0.0,0.0,0.0,0.0,0.0,0.0,0.0,0.0,0.0,0.0,7.368,7.4593,7.5337,7.5676,7.5811,7.5811,7.5811,0.0,0.0,0.0,0.0,0.0,0.0,0.0,0.0,0.0,0.0,0.0,0.0,0.0,6.3429,6.573,6.7895,7.0466,7.4897,0.0,8.464,8.9376,9.3876,9.7394,9.807,9.78,9.6548,9.33,9.0899,8.7719,8.19,7.7367,0.0,0.0,0.0,0.0,0.0,0.0,0.0,9.4248,9.4654,9.4045,0.0,9.303,0.0,9.1305,9.1541,9.2725,0.0,9.4079,9.4755,9.7834,9.8375,9.8815,9.9221,9.9153,9.9153,9.9254,9.7664,9.5939,9.4079,9.4079,9.374,9.303,9.2184,9.1237,9.0222,0.0,8.7313,8.6332,8.5486,8.4945,8.464,8.464,8.464,8.464,8.464,8.464,8.4573,0.0,0.0,0.0,0.0,0.0,0.0,0.0,0.0,0.0,0.0,0.0,0.0,0.0,0.0,0.0,0.0,0.0,0.0,0.0,0.0,0.0,0.0,0.0,0.0,0.0,0.0,0.0,0.0,0.0,0.0,0.0,0.0,0.0,0.0,0.0,0.0,0.0,0.0,0.0,0.0,0.0,0.0,0.0,0.0,0.0,0.0,0.0,0.0,0.0,0.0,6.7523,6.8301,7.0973,7.3849,7.7232,8.2272,8.6332,9.0391,9.5973,9.8645,10.01,10.1386,9.9829,9.6819,9.2184,8.8497,8.393,7.6487,0.0,6.935,6.5899,0.0,7.1278,7.5608,0.0,8.6129,9.2421,9.2658,9.2759,9.4282,9.3774,9.3334,9.3436,9.3368,9.4214,9.6379,9.5669,9.6041,9.8037,9.8172,9.8206,9.8307,9.8916,9.8848,9.8003,9.7258,9.6142,9.4721,9.462,9.3876,9.259,9.2455,9.1305,8.9376,0.0,0.0,8.6061,8.5858,8.5384,8.4776,8.4674,8.464,8.464,8.464,8.464,8.464,0.0,0.0,0.0,0.0,0.0,0.0,0.0,0.0,0.0,0.0,0.0,0.0,0.0,0.0,0.0,0.0,0.0,0.0,0.0,0.0,0.0,0.0,0.0,0.0,0.0,0.0,0.0,0.0,0.0,0.0,0.0,0.0,0.0,0.0,0.0,0.0,0.0,0.0,0.0,0.0,0.0,0.0,0.0,0.0,0.0,0.0,0.0,0.0,0.0,0.0,7.1244,7.4086,7.8822,8.234,8.5554,8.9512,9.2895,9.6108,9.9627,10.2096,10.3585,10.328,10.0608,9.6683,9.1575,8.5723,0.0,0.0,0.0,6.5189,6.3294,6.5899,0.0,7.8213,0.0,0.0,0.0,0.0,9.7394,0.0,0.0,0.0,0.0,0.0,0.0,0.0,0.0,0.0,9.8848,9.8916,9.9187,9.9829,9.9965,9.939,9.8037,9.7258,9.6142,9.4687,9.4079,9.3639,9.3368,9.2725,9.188,9.0831,8.9613,0.0,8.7516,8.6298,8.5723,8.552,8.4877,8.464,8.464,8.464,8.464,8.464,0.0,0.0,0.0,0.0,0.0,0.0,0.0,0.0,0.0,0.0,0.0,0.0,0.0,0.0,0.0,0.0,0.0,0.0,0.0,0.0,0.0,0.0,0.0,0.0,0.0,0.0,0.0,0.0,0.0,0.0,0.0,0.0,0.0,0.0,0.0,0.0,0.0,0.0,0.0,0.0,0.0,0.0,0.0,0.0,0.0,0.0,0.0,0.0,0.0,0.0,7.2225,7.7874,8.3118,8.7347,9.0966,9.3876,9.6886,9.9796,10.2367,10.3889,10.4566,10.4261,10.0202,9.462,8.8192,0.0,0.0,0.0,0.0,6.2415,6.0926,0.0,0.0,0.0,0.0,0.0,0.0,0.0,0.0,0.0,0.0,0.0,0.0,0.0,0.0,0.0,0.0,0.0,9.966,9.895,9.9221,10.0777,9.9694,9.9085,9.9153,9.8037,9.6717,9.5263,9.489,9.4315,9.3571,9.2793,9.2015,9.1237,9.0154,0.0,8.7922,8.6805,8.6129,8.5723,8.4911,8.464,8.464,8.464,8.464,8.464,0.0,0.0,0.0,0.0,0.0,0.0,0.0,0.0,0.0,0.0,0.0,0.0,0.0,0.0,0.0,0.0,0.0,0.0,0.0,0.0,0.0,0.0,0.0,0.0,0.0,0.0,0.0,0.0,0.0,0.0,0.0,0.0,0.0,0.0,0.0,0.0,0.0,0.0,0.0,0.0,0.0,0.0,0.0,0.0,0.0,0.0,0.0,0.0,0.0,0.0,7.1447,7.8077,8.3152,8.8937,9.4112,9.5499,9.8612,10.2096,10.4092,10.4769,10.487,10.4498,9.9288,9.2286,8.4945,7.8179,0.0,0.0,0.0,0.0,0.0,0.0,0.0,0.0,0.0,0.0,0.0,0.0,0.0,0.0,0.0,0.0,0.0,0.0,0.0,0.0,0.0,0.0,0.0,9.895,9.9119,10.1081,9.9254,9.8815,9.9965,9.8679,9.736,9.6041,9.5702,9.4958,9.3808,9.303,9.2184,9.1271,9.0696,0.0,0.0,8.7448,8.6704,8.596,8.5182,8.4776,8.464,8.464,8.464,8.464,0.0,0.0,0.0,0.0,0.0,0.0,0.0,0.0,0.0,0.0,0.0,0.0,0.0,0.0,0.0,0.0,0.0,0.0,0.0,0.0,0.0,0.0,0.0,0.0,0.0,0.0,0.0,0.0,0.0,0.0,0.0,0.0,0.0,0.0,0.0,0.0,0.0,0.0,0.0,0.0,0.0,0.0,0.0,0.0,0.0,0.0,0.0,0.0,0.0,0.0,0.0,7.1785,7.6386,8.5554,9.4383,9.3165,0.0,0.0,10.4295,10.5174,10.5411,10.399,9.8104,9.0865,8.4065,0.0,0.0,0.0,0.0,0.0,0.0,0.0,0.0,0.0,0.0,0.0,0.0,0.0,0.0,0.0,0.0,0.0,0.0,0.0,0.0,0.0,0.0,0.0,0.0,9.9457,9.939,10.0303,9.9457,9.9051,9.9187,9.8409,9.7597,9.6751,9.5432,9.4721,9.4586,9.3808,9.2692,9.1305,9.1237,0.0,0.0,8.8192,8.7448,8.6738,8.596,8.5249,8.464,8.464,8.464,8.464,0.0,0.0,0.0,0.0,0.0,0.0,0.0,0.0,0.0,0.0,0.0,0.0,0.0,0.0,0.0,0.0,0.0,0.0,0.0,0.0,0.0,0.0,0.0,0.0,0.0,0.0,0.0,0.0,0.0,0.0,0.0,0.0,0.0,0.0,0.0,0.0,0.0,0.0,0.0,0.0,0.0,0.0,0.0,0.0,0.0,0.0,0.0,0.0,0.0,0.0,0.0,0.0,6.8166,7.51,0.0,0.0,9.4248,9.939,10.3585,10.558,10.6088,10.4599,9.7258,8.8903,8.305,0.0,0.0,0.0,0.0,0.0,0.0,0.0,0.0,0.0,0.0,0.0,0.0,0.0,0.0,0.0,0.0,0.0,0.0,0.0,0.0,0.0,0.0,0.0,0.0,9.9829,9.8984,10.0202,9.9051,9.8645,9.9085,9.8375,9.7631,9.6886,9.6277,9.5567,9.4687,9.4417,9.3165,9.1305,9.1305,0.0,0.0,8.8294,8.782,8.7482,8.6738,8.5993,8.5317,8.5317,8.5046,8.464,0.0,0.0,0.0,0.0,0.0,0.0,0.0,0.0,0.0,0.0,0.0,0.0,0.0,0.0,0.0,0.0,0.0,0.0,0.0,0.0,0.0,0.0,0.0,0.0,0.0,0.0,0.0,0.0,0.0,0.0,0.0,0.0,0.0,0.0,0.0,0.0,0.0,0.0,0.0,0.0,0.0,0.0,0.0,0.0,0.0,0.0,0.0,0.0,0.0,0.0,0.0,0.0,0.0,0.0,0.0,0.0,8.9545,9.5905,10.098,10.4092,10.558,10.4396,9.6176,8.7144,0.0,0.0,0.0,0.0,0.0,0.0,6.2043,6.1968,0.0,0.0,0.0,6.7452,0.0,0.0,0.0,0.0,0.0,0.0,0.0,0.0,0.0,0.0,0.0,0.0,0.0,10.01,9.9018,10.0506,9.9119,9.8578,9.9085,9.8578,9.7969,9.7191,9.6785,9.6041,9.5026,9.4586,9.3267,9.1305,0.0,0.0,0.0,8.8531,8.8192,8.7955,8.7448,8.6636,8.579,8.579,8.5283,8.464,0.0,0.0,0.0,0.0,0.0,0.0,0.0,0.0,0.0,0.0,0.0,0.0,0.0,0.0,0.0,0.0,0.0,0.0,0.0,0.0,0.0,0.0,0.0,0.0,0.0,0.0,0.0,0.0,0.0,0.0,0.0,0.0,0.0,0.0,0.0,0.0,0.0,0.0,0.0,0.0,0.0,0.0,0.0,0.0,0.0,0.0,0.0,0.0,0.0,0.0,0.0,0.0,0.0,0.0,0.0,0.0,8.3152,9.3131,9.6142,10.0202,10.3483,10.2705,9.4687,8.5757,0.0,0.0,0.0,0.0,0.0,0.0,6.2953,6.2535,6.246,6.4118,6.4664,6.7248,7.3923,0.0,0.0,0.0,0.0,0.0,0.0,0.0,0.0,0.0,0.0,0.0,0.0,10.0303,9.9796,10.1284,9.9897,9.9085,9.9085,9.9085,9.8713,9.7969,9.6514,9.5804,9.5736,9.4282,9.2759,0.0,0.0,0.0,0.0,8.9072,8.8632,8.7989,8.7989,8.7076,8.579,8.579,8.5283,8.4742,0.0,0.0,0.0,0.0,0.0,0.0,0.0,0.0,0.0,0.0,0.0,0.0,0.0,0.0,0.0,0.0,0.0,0.0,0.0,0.0,0.0,0.0,0.0,0.0,0.0,0.0,0.0,0.0,0.0,0.0,0.0,0.0,0.0,0.0,0.0,0.0,0.0,0.0,0.0,0.0,0.0,0.0,0.0,0.0,0.0,0.0,0.0,0.0,0.0,0.0,0.0,0.0,0.0,0.0,0.0,0.0,0.0,0.0,8.7922,9.1068,9.2624,9.1406,8.5627,7.9325,7.5832,0.0,0.0,0.0,0.0,0.0,6.3348,6.3096,6.3783,6.6445,6.6907,6.822,0.0,0.0,0.0,0.0,0.0,0.0,0.0,0.0,0.0,0.0,0.0,0.0,0.0,0.0,10.0912,9.9863,9.8882,9.8341,9.8341,9.8341,9.824,9.8003,9.7022,9.6277,9.577,9.4789,0.0,0.0,0.0,0.0,0.0,9.0053,8.9715,8.9444,8.8937,8.7854,8.6569,8.6569,8.6169,8.5671,0.0,0.0,0.0,0.0,0.0,0.0,0.0,0.0,0.0,0.0,0.0,0.0,0.0,0.0,0.0,0.0,0.0,0.0,0.0,0.0,0.0,0.0,0.0,0.0,0.0,0.0,0.0,0.0,0.0,0.0,0.0,0.0,0.0,0.0,0.0,0.0,0.0,0.0,0.0,0.0,0.0,0.0,0.0,0.0,0.0,0.0,0.0,0.0,0.0,0.0,0.0,0.0,0.0,0.0,0.0,0.0,0.0,0.0,0.0,8.4336,8.6129,8.5627,8.1088,0.0,0.0,0.0,0.0,0.0,0.0,0.0,0.0,6.3732,6.4174,6.6462,6.6892,6.804,7.1163,0.0,0.0,0.0,0.0,0.0,0.0,0.0,0.0,0.0,0.0,0.0,0.0,0.0,10.1682,9.9593,9.8815,9.8273,9.8003,9.8003,9.8003,9.8003,9.7225,9.648,9.577,9.506,0.0,0.0,0.0,0.0,0.0,9.0797,9.0573,9.0302,8.9681,8.8429,8.6907,8.6907,8.6447,8.5815,0.0,0.0,0.0,0.0,0.0,0.0,0.0,0.0,0.0,0.0,0.0,0.0,0.0,0.0,0.0,0.0,0.0,0.0,0.0,0.0,0.0,0.0,0.0,0.0,0.0,0.0,0.0,0.0,5.4048,5.5261,5.575,0.0,0.0,0.0,0.0,0.0,0.0,0.0,0.0,0.0,0.0,0.0,0.0,0.0,0.0,0.0,0.0,0.0,0.0,0.0,0.0,0.0,0.0,0.0,0.0,0.0,0.0,0.0,0.0,0.0,0.0,0.0,0.0,0.0,0.0,0.0,0.0,0.0,0.0,0.0,0.0,0.0,6.4014,6.4807,6.5413,6.7284,7.1713,0.0,0.0,0.0,0.0,0.0,0.0,0.0,0.0,0.0,0.0,0.0,0.0,0.0,10.2106,10.0202,9.9525,9.8815,9.8003,9.8003,9.8003,9.8003,9.7191,9.6447,9.577,9.4992,0.0,0.0,0.0,0.0,0.0,9.1521,9.1195,9.0775,9.0369,8.8903,8.6974,8.7008,8.6277,8.5616,0.0,0.0,0.0,0.0,0.0,0.0,0.0,0.0,0.0,0.0,0.0,0.0,0.0,0.0,0.0,0.0,0.0,0.0,0.0,0.0,0.0,0.0,0.0,0.0,0.0,0.0,0.0,5.1488,5.2909,5.4323,5.5716,5.5673,0.0,0.0,0.0,0.0,0.0,0.0,0.0,0.0,0.0,0.0,0.0,0.0,0.0,0.0,5.8761,0.0,0.0,0.0,0.0,0.0,0.0,0.0,0.0,0.0,6.3565,0.0,0.0,0.0,0.0,0.0,0.0,0.0,0.0,0.0,0.0,0.0,0.0,0.0,0.0,0.0,6.5773,6.7083,6.7945,6.9382,7.2207,0.0,0.0,0.0,0.0,0.0,0.0,0.0,0.0,0.0,0.0,0.0,0.0,0.0,10.1936,9.9424,9.9762,9.9322,9.8037,9.8249,9.8249,9.8003,9.6926,9.618,9.5736,9.4451,0.0,0.0,0.0,0.0,9.3113,9.2734,9.2203,9.1489,9.0799,8.9542,8.8048,8.7863,8.7906,8.8185,0.0,0.0,0.0,0.0,0.0,0.0,0.0,0.0,0.0,0.0,0.0,0.0,0.0,0.0,0.0,0.0,0.0,0.0,0.0,0.0,0.0,0.0,0.0,0.0,0.0,0.0,0.0,0.0,0.0,5.4996,0.0,0.0,0.0,0.0,0.0,0.0,0.0,0.0,0.0,0.0,0.0,0.0,0.0,0.0,0.0,0.0,5.8355,5.9438,0.0,6.1163,6.2245,6.3463,0.0,0.0,0.0,0.0,6.3971,0.0,0.0,0.0,0.0,0.0,0.0,0.0,0.0,0.0,0.0,0.0,0.0,0.0,0.0,0.0,0.0,6.7014,6.8601,0.0,0.0,0.0,0.0,0.0,0.0,0.0,0.0,0.0,0.0,0.0,0.0,0.0,0.0,0.0,10.2348,10.0125,10.0159,9.9402,9.8003,9.8711,9.8541,9.774,9.7047,9.63,9.5468,9.4569,9.3909,0.0,0.0,0.0,9.3738,9.3074,9.2555,9.1919,9.1169,8.9866,8.8395,8.821,8.8289,8.845,0.0,0.0,0.0,0.0,0.0,0.0,0.0,0.0,0.0,0.0,0.0,0.0,0.0,0.0,0.0,0.0,0.0,0.0,0.0,0.0,0.0,0.0,0.0,0.0,0.0,0.0,0.0,0.0,0.0,0.0,0.0,0.0,0.0,0.0,0.0,0.0,0.0,0.0,0.0,0.0,0.0,0.0,0.0,0.0,0.0,0.0,0.0,0.0,0.0,6.1264,6.2719,6.4546,6.529,0.0,0.0,0.0,0.0,0.0,0.0,0.0,0.0,0.0,0.0,0.0,0.0,0.0,0.0,0.0,0.0,0.0,0.0,0.0,0.0,0.0,0.0,0.0,0.0,0.0,0.0,0.0,0.0,0.0,0.0,0.0,0.0,0.0,0.0,0.0,0.0,0.0,0.0,10.1264,10.0513,9.9485,9.8126,9.9139,9.8886,9.7525,9.7389,9.6606,9.521,9.4789,9.4298,0.0,0.0,0.0,9.3937,9.3223,9.2668,9.2254,9.1501,9.012,8.8674,8.8674,8.8292,8.8033,0.0,0.0,0.0,0.0,0.0,0.0,0.0,0.0,0.0,0.0,0.0,0.0,0.0,0.0,0.0,0.0,0.0,0.0,0.0,0.0,0.0,0.0,0.0,0.0,0.0,0.0,0.0,0.0,0.0,0.0,5.8863,5.9347,5.9313,0.0,0.0,0.0,5.7881,5.8017,5.7983,5.7915,0.0,0.0,0.0,0.0,0.0,0.0,0.0,0.0,0.0,6.1061,6.2381,6.3802,6.4546,0.0,0.0,0.0,0.0,0.0,0.0,0.0,0.0,0.0,0.0,0.0,0.0,0.0,0.0,0.0,0.0,0.0,0.0,0.0,0.0,0.0,0.0,0.0,0.0,0.0,0.0,0.0,0.0,0.0,0.0,0.0,0.0,0.0,0.0,0.0,0.0,0.0,0.0,10.1196,10.0513,9.9761,9.8889,9.9232,9.8974,9.7695,9.7433,9.6679,9.5443,9.4597,9.4025,0.0,0.0,9.3806,9.3937,9.3418,9.3006,9.2475,9.172,9.0863,9.0001,8.9819,8.9396,8.8886,0.0,0.0,0.0,0.0,0.0,0.0,0.0,0.0,0.0,0.0,0.0,0.0,0.0,0.0,0.0,0.0,0.0,0.0,0.0,0.0,0.0,0.0,0.0,0.0,0.0,0.0,0.0,0.0,0.0,5.783,6.025,6.0511,6.0038,5.8998,0.0,0.0,5.7881,5.7881,5.7881,5.7881,0.0,0.0,0.0,0.0,0.0,0.0,0.0,0.0,0.0,0.0,6.255,6.4174,6.4478,0.0,0.0,0.0,0.0,0.0,6.5628,0.0,0.0,0.0,0.0,0.0,0.0,0.0,0.0,0.0,0.0,0.0,0.0,0.0,0.0,0.0,0.0,0.0,0.0,0.0,0.0,0.0,0.0,0.0,0.0,0.0,0.0,0.0,0.0,0.0,0.0,0.0,0.0,0.0,10.0549,9.9588,9.8867,9.91,9.8606,9.7467,9.6829,9.6075,9.5173,9.4522,9.4121,9.3971,0.0,9.3311,9.3325,9.2508,9.2159,9.1967,9.1427,9.0804,9.0353,9.0224,9.0291,9.0406,0.0,0.0,0.0,0.0,0.0,0.0,0.0,0.0,0.0,0.0,0.0,0.0,0.0,0.0,0.0,0.0,0.0,0.0,0.0,0.0,0.0,0.0,0.0,0.0,0.0,0.0,5.2266,5.5108,5.7533,5.9861,6.2076,6.1907,6.0892,0.0,0.0,0.0,5.7881,5.7881,5.7881,5.7881,0.0,0.0,0.0,0.0,0.0,0.0,0.0,0.0,0.0,0.0,0.0,0.0,0.0,0.0,0.0,0.0,6.4309,6.5155,6.5121,6.6268,0.0,0.0,0.0,0.0,0.0,0.0,0.0,0.0,0.0,0.0,0.0,0.0,0.0,0.0,0.0,0.0,0.0,0.0,0.0,0.0,0.0,0.0,0.0,0.0,0.0,0.0,0.0,0.0,0.0,0.0,0.0,0.0,10.0401,9.9366,9.878,9.8435,9.7838,9.7059,9.644,9.5753,9.4997,9.4522,9.4112,9.3814,9.3066,9.2759,9.2657,9.1664,9.1303,9.156,9.0982,9.0707,9.0532,9.0261,9.0787,9.167,0.0,0.0,0.0,0.0,0.0,0.0,0.0,0.0,0.0,0.0,0.0,0.0,0.0,0.0,0.0,0.0,0.0,0.0,0.0,0.0,0.0,0.0,0.0,0.0,0.0,5.2808,5.4363,5.663,6.0283,6.2854,6.4343,6.3666,6.2178,5.9979,0.0,0.0,5.7881,5.7881,5.7881,5.7881,5.7881,0.0,0.0,0.0,0.0,0.0,0.0,0.0,0.0,0.0,0.0,0.0,0.0,0.0,0.0,0.0,6.3599,6.4106,6.6102,6.7421,0.0,0.0,0.0,0.0,0.0,0.0,0.0,0.0,0.0,0.0,0.0,0.0,0.0,0.0,0.0,0.0,0.0,0.0,0.0,0.0,0.0,0.0,0.0,0.0,0.0,0.0,0.0,0.0,0.0,0.0,0.0,0.0,0.0,9.8849,9.878,9.7365,9.6641,9.6572,9.6538,9.6089,9.5365,9.4309,9.3666,9.3406,9.2655,9.2313,9.2211,9.1755,9.1629,9.1916,9.1123,9.0812,9.0603,8.9741,9.0588,9.2006,0.0,0.0,0.0,0.0,0.0,0.0,0.0,0.0,0.0,0.0,0.0,0.0,0.0,0.0,0.0,0.0,0.0,0.0,0.0,0.0,0.0,0.0,0.0,4.9097,5.2909,5.3788,5.5953,5.9607,6.2381,6.3835,6.3903,6.2685,0.0,0.0,0.0,0.0,5.7915,5.8389,5.8592,5.8592,5.8592,5.9032,0.0,0.0,0.0,0.0,0.0,0.0,0.0,0.0,0.0,0.0,0.0,0.0,0.0,0.0,6.3463,6.4275,6.4681,6.6928,0.0,0.0,0.0,0.0,0.0,0.0,0.0,0.0,0.0,0.0,0.0,0.0,0.0,0.0,0.0,0.0,0.0,0.0,0.0,0.0,0.0,0.0,0.0,0.0,0.0,0.0,0.0,0.0,0.0,0.0,0.0,0.0,0.0,9.8331,9.7365,9.6779,9.6262,9.5813,9.5813,9.5675,9.5365,9.4979,9.4619,9.4292,9.3092,9.2467,9.2475,9.1314,9.1048,9.1226,9.0916,9.0812,9.0778,9.0397,9.1052,9.2066,0.0,0.0,0.0,0.0,0.0,0.0,0.0,0.0,0.0,0.0,0.0,0.0,0.0,0.0,0.0,0.0,0.0,0.0,0.0,0.0,0.0,0.0,0.0,4.9661,5.3416,5.4668,5.7273,6.1298,6.3971,6.4681,6.3497,0.0,0.0,0.0,0.0,0.0,0.0,5.9235,5.937,5.937,5.937,5.9641,0.0,0.0,0.0,0.0,0.0,0.0,0.0,0.0,0.0,0.0,0.0,0.0,0.0,0.0,0.0,6.4546,6.4275,6.6147,0.0,0.0,0.0,0.0,0.0,0.0,0.0,0.0,0.0,0.0,0.0,0.0,0.0,0.0,0.0,0.0,0.0,0.0,0.0,0.0,0.0,0.0,0.0,0.0,0.0,0.0,0.0,0.0,0.0,0.0,0.0,0.0,0.0,9.7572,9.6503,9.6262,9.5882,9.54,9.54,9.54,9.5365,9.4882,9.4531,9.4129,9.2728,9.2075,9.1898,9.0941,9.0601,9.0812,9.0812,9.0812,9.0812,9.0812,9.1402,9.2168,0.0,0.0,0.0,0.0,0.0,0.0,0.0,0.0,0.0,0.0,0.0,0.0,0.0,0.0,0.0,0.0,0.0,0.0,0.0,0.0,0.0,0.0,0.0,4.9661,5.3382,5.5649,5.8287,6.1298,6.4986,6.5628,6.3463,6.3497,0.0,0.0,0.0,0.0,0.0,0.0,6.0114,6.0114,6.0114,6.0114,6.0216,0.0,0.0,0.0,0.0,0.0,0.0,0.0,0.0,0.0,0.0,0.0,0.0,0.0,6.3429,6.4749,6.5459,0.0,0.0,0.0,0.0,0.0,0.0,0.0,0.0,0.0,0.0,0.0,0.0,0.0,0.0,0.0,0.0,0.0,0.0,0.0,0.0,0.0,0.0,0.0,0.0,0.0,0.0,0.0,0.0,0.0,0.0,0.0,0.0,0.0,0.0,0.0,9.6469,9.5744,9.54,9.54,9.54,9.54,9.5331,9.3813,9.3015,9.2619,9.1396,9.0601,9.0422,9.0707,9.0812,9.0812,9.0812,9.0812,9.0812,9.0812,9.147,9.2294,0.0,0.0,0.0,0.0,0.0,0.0,0.0,0.0,0.0,0.0,0.0,0.0,0.0,0.0,0.0,0.0,0.0,0.0,0.0,0.0,0.0,0.0,0.0,0.0,0.0,0.0,5.778,6.1298,6.2922,6.255,0.0,0.0,0.0,5.9776,0.0,0.0,0.0,0.0,6.0926,6.0926,6.0926,6.1264,6.1738,0.0,0.0,0.0,0.0,0.0,0.0,0.0,0.0,0.0,0.0,0.0,0.0,6.3091,6.3869,6.4546,6.4241,0.0,0.0,0.0,0.0,0.0,0.0,0.0,0.0,0.0,0.0,0.0,0.0,0.0,0.0,0.0,0.0,0.0,0.0,0.0,0.0,0.0,0.0,0.0,0.0,0.0,0.0,0.0,0.0,0.0,0.0,0.0,0.0,0.0,0.0,9.6227,9.571,9.5503,9.54,9.54,9.54,9.54,9.5365,9.4365,9.3951,9.3738,9.2295,9.164,9.1499,9.0842,9.0601,9.0812,9.0601,9.0601,9.0881,9.1433,9.1472,9.1506,0.0,0.0,0.0,0.0,0.0,0.0,0.0,0.0,0.0,0.0,0.0,0.0,0.0,0.0,0.0,0.0,0.0,0.0,0.0,0.0,0.0,0.0,0.0,0.0,0.0,5.4972,5.7408,0.0,0.0,0.0,0.0,0.0,0.0,6.0926,0.0,6.4174,0.0,0.0,6.2719,6.2178,6.2178,6.2618,6.3226,0.0,0.0,0.0,0.0,0.0,0.0,0.0,0.0,0.0,0.0,0.0,0.0,6.3814,6.4322,6.4864,0.0,0.0,0.0,0.0,0.0,0.0,0.0,0.0,0.0,0.0,0.0,0.0,0.0,0.0,0.0,0.0,0.0,0.0,0.0,0.0,0.0,0.0,0.0,0.0,0.0,0.0,0.0,0.0,0.0,0.0,0.0,0.0,0.0,0.0,9.5779,9.5537,9.54,9.5089,9.4951,9.4951,9.4951,9.4779,9.4468,9.402,9.3641,9.3296,9.2054,9.1502,9.1468,9.0807,9.0601,9.0812,9.0601,9.0707,9.0812,9.1019,9.095,9.0987,0.0,0.0,0.0,0.0,0.0,0.0,0.0,0.0,0.0,0.0,0.0,0.0,0.0,0.0,0.0,0.0,0.0,0.0,0.0,0.0,0.0,0.0,0.0,0.0,0.0,0.0,0.0,0.0,0.0,0.0,0.0,0.0,6.3565,6.3734,0.0,6.7083,0.0,6.5459,6.4647,6.3531,6.3531,6.3903,6.4444,6.3768,0.0,0.0,0.0,0.0,0.0,0.0,0.0,0.0,0.0,0.0,6.3645,6.4517,6.4742,0.0,0.0,0.0,0.0,0.0,0.0,0.0,0.0,0.0,0.0,0.0,0.0,0.0,0.0,0.0,0.0,0.0,0.0,0.0,0.0,0.0,0.0,0.0,0.0,0.0,0.0,0.0,0.0,0.0,0.0,0.0,0.0,0.0,0.0,0.0,9.4641,9.4606,9.5262,9.4606,9.4296,0.0,9.4296,9.3882,9.3089,9.302,9.2606,9.1847,9.1123,9.0812,9.0812,9.0812,9.0812,9.0812,9.0743,9.0743,9.0743,9.0054,9.0226,9.0709,0.0,0.0,0.0,0.0,0.0,0.0,0.0,0.0,0.0,0.0,0.0,0.0,0.0,0.0,0.0,0.0,0.0,0.0,0.0,0.0,0.0,0.0,0.0,0.0,0.0,0.0,0.0,0.0,0.0,0.0,0.0,0.0,0.0,6.4478,0.0,6.7083,6.5561,6.3835,6.326,6.3531,6.3531,6.3599,6.3734,6.3565,6.3159,0.0,0.0,0.0,0.0,0.0,0.0,0.0,6.2276,6.2615,6.3023,6.3815,6.4708,0.0,0.0,0.0,0.0,0.0,0.0,0.0,0.0,0.0,0.0,0.0,0.0,0.0,0.0,0.0,0.0,0.0,0.0,0.0,0.0,0.0,0.0,0.0,0.0,0.0,0.0,0.0,0.0,0.0,0.0,0.0,0.0,0.0,0.0,9.4537,9.4365,9.4365,9.4537,9.4365,9.4296,0.0,9.4296,9.3882,9.3089,9.2502,9.1813,9.1054,9.0881,9.0812,9.0812,9.0601,9.0601,9.0743,8.9981,9.0013,9.0494,9.0535,9.0357,9.0452,0.0,0.0,0.0,0.0,0.0,0.0,0.0,0.0,0.0,0.0,0.0,0.0,0.0,0.0,0.0,0.0,0.0,0.0,0.0,0.0,0.0,0.0,0.0,0.0,0.0,0.0,0.0,0.0,0.0,0.0,0.0,0.0,0.0,6.4715,0.0,6.7421,6.5595,6.4444,6.4005,6.4038,6.4038,6.4241,6.4512,6.4174,6.3565,6.2888,6.2516,0.0,0.0,0.0,0.0,0.0,0.0,0.0,6.2931,6.4254,6.471,0.0,0.0,0.0,0.0,0.0,0.0,0.0,0.0,0.0,0.0,0.0,0.0,0.0,0.0,0.0,0.0,0.0,0.0,0.0,0.0,0.0,0.0,0.0,0.0,0.0,0.0,0.0,0.0,0.0,0.0,0.0,0.0,0.0,9.4675,9.4296,9.3572,9.3365,9.3709,9.3365,9.3192,9.3192,9.2813,9.2226,9.1468,9.1433,9.1606,9.1847,9.0743,9.0881,9.1882,9.1323,9.1499,9.1847,9.0769,9.0593,9.0834,9.0326,9.0006,9.0167,0.0,0.0,0.0,0.0,0.0,0.0,0.0,0.0,0.0,0.0,0.0,0.0,0.0,0.0,0.0,0.0,0.0,0.0,0.0,0.0,0.0,0.0,0.0,0.0,0.0,0.0,0.0,0.0,0.0,0.0,0.0,0.0,0.0,6.5256,0.0,0.0,6.5865,6.5324,6.485,6.441,6.441,6.4783,6.5256,6.4647,6.3971,6.3226,6.2618,6.2381,6.2459,6.2459,0.0,0.0,0.0,0.0,6.3119,6.4736,6.4606,6.5028,0.0,0.0,0.0,0.0,0.0,0.0,0.0,0.0,0.0,0.0,0.0,0.0,0.0,0.0,0.0,0.0,0.0,0.0,0.0,0.0,0.0,0.0,0.0,0.0,0.0,0.0,0.0,0.0,0.0,0.0,0.0,9.4606,9.4158,9.3882,9.2675,9.2295,9.2882,9.2295,9.1916,9.1778,9.0985,9.0295,8.9709,9.0192,9.1192,9.2399,9.0536,9.0709,9.2295,9.1778,9.195,9.2433,9.1319,9.1005,9.0863,8.977,8.9488,8.9642,0.0,0.0,0.0,0.0,0.0,0.0,0.0,0.0,0.0,0.0,0.0,0.0,0.0,0.0,0.0,0.0,0.0,0.0,0.0,0.0,0.0,0.0,0.0,0.0,0.0,0.0,0.0,0.0,0.0,0.0,0.0,0.0,0.0,0.0,0.0,0.0,0.0,6.3937,6.3159,6.3666,6.3666,6.3734,6.3802,6.37,6.3193,6.2516,6.2415,6.2537,6.2693,6.2847,6.3076,0.0,0.0,0.0,0.0,0.0,0.0,0.0,0.0,0.0,0.0,0.0,0.0,0.0,0.0,0.0,0.0,0.0,0.0,0.0,0.0,0.0,0.0,0.0,0.0,0.0,0.0,0.0,0.0,0.0,0.0,0.0,0.0,0.0,0.0,0.0,0.0,0.0,9.4468,9.433,9.3675,9.233,9.2088,9.2054,9.2157,9.2054,9.164,9.095,9.0192,8.9812,8.9674,8.9122,8.9364,9.0157,8.9847,8.9502,8.9226,8.9778,9.0054,9.0088,8.8982,8.8874,8.9243,8.9286,8.8823,8.8448,0.0,0.0,0.0,0.0,0.0,0.0,0.0,0.0,0.0,0.0,0.0,0.0,0.0,0.0,0.0,0.0,0.0,0.0,0.0,0.0,0.0,0.0,0.0,0.0,0.0,0.0,0.0,0.0,0.0,0.0,0.0,6.3463,6.5019,0.0,0.0,0.0,0.0,0.0,0.0,6.3531,6.3531,6.4005,6.4647,6.3835,6.3565,6.3531,6.2843,6.2615,6.2693,6.2923,6.3152,6.3371,6.3817,0.0,0.0,0.0,0.0,0.0,0.0,0.0,0.0,0.0,0.0,0.0,0.0,0.0,0.0,0.0,0.0,0.0,0.0,0.0,0.0,0.0,0.0,0.0,0.0,0.0,0.0,0.0,0.0,0.0,0.0,0.0,0.0,0.0,0.0,9.4944,9.433,9.3847,9.3123,9.2019,9.1157,9.0916,9.133,9.0502,8.9674,8.8915,8.857,8.8433,8.8398,8.7639,8.8398,9.026,8.8984,8.895,8.9847,8.9743,8.9846,9.0085,8.9529,8.9312,8.9294,8.962,8.9294,8.8777,0.0,0.0,0.0,0.0,0.0,0.0,0.0,0.0,0.0,0.0,0.0,0.0,0.0,0.0,0.0,0.0,0.0,0.0,0.0,0.0,0.0,0.0,0.0,0.0,0.0,0.0,0.0,0.0,0.0,0.0,6.3802,6.4546,6.5764,0.0,6.6981,0.0,0.0,0.0,0.0,0.0,6.4017,6.4525,6.5406,6.4776,6.4843,6.5115,6.3815,6.3349,6.3435,6.333,6.3595,6.4019,6.4571,6.4882,0.0,0.0,0.0,0.0,0.0,0.0,0.0,0.0,0.0,0.0,0.0,0.0,0.0,0.0,0.0,0.0,0.0,0.0,0.0,0.0,0.0,0.0,0.0,0.0,0.0,0.0,0.0,0.0,0.0,0.0,0.0,0.0,0.0,9.4138,9.3744,9.3158,9.2468,9.1709,9.0398,8.995,9.0536,8.9053,8.7984,8.7398,8.7225,8.7122,8.7122,8.657,8.7536,8.9571,8.8088,8.826,8.9535,8.9157,8.9224,8.9423,8.9316,8.9238,8.9007,8.9431,8.9143,8.871,0.0,0.0,0.0,0.0,0.0,0.0,0.0,0.0,0.0,0.0,0.0,0.0,0.0,0.0,0.0,0.0,0.0,0.0,0.0,0.0,0.0,0.0,0.0,0.0,0.0,0.0,0.0,0.0,0.0,0.0,6.4546,6.529,6.7929,7.1988,7.0567,6.9553,6.8707,0.0,0.0,0.0,0.0,0.0,6.5107,6.6677,0.0,0.0,0.0,0.0,0.0,6.4491,6.4883,6.5654,6.5654,6.6215,6.6703,0.0,0.0,0.0,0.0,0.0,0.0,0.0,0.0,0.0,0.0,0.0,0.0,0.0,0.0,0.0,0.0,0.0,0.0,0.0,0.0,0.0,0.0,0.0,0.0,0.0,0.0,0.0,0.0,0.0,0.0,0.0,0.0,9.2591,9.2157,9.2088,9.1675,9.0881,9.0123,8.9709,8.9778,8.8226,8.7467,8.7398,8.6708,8.6363,8.6363,8.6329,8.6398,8.657,8.7156,8.6986,8.6165,8.6817,8.7023,8.6778,8.6496,8.6797,8.7511,8.8191,8.7803,8.7211,0.0,0.0,0.0,0.0,0.0,0.0,0.0,0.0,0.0,0.0,0.0,0.0,0.0,0.0,0.0,0.0,0.0,0.0,0.0,0.0,0.0,0.0,0.0,0.0,0.0,0.0,0.0,0.0,0.0,6.0216,6.3937,6.5121,6.7827,7.165,7.0161,6.935,6.891,6.617,0.0,0.0,0.0,0.0,0.0,0.0,0.0,0.0,0.0,0.0,0.0,0.0,0.0,6.6566,6.6547,6.7043,6.7546,6.6796,6.5627,6.5275,0.0,0.0,0.0,0.0,0.0,0.0,0.0,0.0,0.0,0.0,0.0,0.0,0.0,0.0,0.0,0.0,0.0,0.0,0.0,0.0,0.0,0.0,0.0,0.0,0.0,0.0,0.0,0.0,0.0,0.0,9.148,9.1074,9.0563,8.9807,8.8778,8.8019,8.7536,8.7432,8.7156,8.6708,8.6432,8.6294,8.6294,8.6294,8.6294,8.6329,8.6368,8.6233,8.589,8.5994,8.589,8.5716,8.6227,8.6355,8.6481,8.7301,8.7634,8.7753,0.0,0.0,0.0,0.0,0.0,0.0,0.0,0.0,0.0,0.0,0.0,0.0,0.0,0.0,0.0,0.0,0.0,0.0,0.0,0.0,0.0,0.0,0.0,0.0,0.0,0.0,0.0,0.0,0.0,0.0,0.0,0.0,6.7793,7.0872,6.9654,0.0,0.0,0.0,0.0,6.644,0.0,0.0,6.7692,0.0,0.0,0.0,0.0,0.0,0.0,0.0,0.0,0.0,6.8246,6.8129,6.7945,6.7204,6.6255,6.5911,6.7866,0.0,0.0,0.0,0.0,0.0,0.0,0.0,0.0,0.0,0.0,0.0,0.0,0.0,0.0,0.0,0.0,0.0,0.0,0.0,0.0,0.0,0.0,0.0,0.0,0.0,0.0,0.0,0.0,0.0,8.999,8.9933,8.9457,8.8568,8.7745,8.6952,8.6329,8.7053,8.7053,8.6329,8.6811,8.6811,8.6329,8.657,8.6536,8.6294,8.589,8.5788,8.5788,8.548,8.5168,8.5026,8.5713,8.5875,8.5824,8.6548,8.7193,8.7753,0.0,0.0,0.0,0.0,0.0,0.0,0.0,0.0,0.0,0.0,0.0,0.0,0.0,0.0,0.0,0.0,0.0,0.0,0.0,0.0,0.0,0.0,0.0,0.0,0.0,0.0,0.0,0.0,0.0,0.0,0.0,0.0,6.7929,0.0,6.9417,7.1109,7.4322,0.0,0.0,7.0026,0.0,6.7928,6.7876,0.0,0.0,0.0,7.218,7.1757,0.0,0.0,0.0,0.0,0.0,0.0,6.8024,6.7299,6.7092,6.6669,0.0,0.0,0.0,0.0,0.0,0.0,0.0,0.0,0.0,0.0,0.0,0.0,0.0,0.0,0.0,0.0,0.0,0.0,0.0,0.0,0.0,0.0,0.0,0.0,0.0,0.0,0.0,0.0,0.0,8.8164,8.7735,8.8384,8.8217,8.7023,8.6955,8.6714,8.6363,8.7018,8.7018,8.6329,8.7812,8.7743,8.6329,8.7053,8.6984,8.6294,8.5686,8.5514,8.5514,8.5202,8.4853,8.464,8.464,8.508,8.5757,8.5757,8.623,8.6974,0.0,0.0,0.0,0.0,0.0,0.0,0.0,0.0,0.0,0.0,0.0,0.0,0.0,0.0,0.0,0.0,0.0,0.0,0.0,0.0,0.0,0.0,0.0,0.0,0.0,0.0,0.0,0.0,0.0,0.0,0.0,0.0,0.0,0.0,6.8944,6.9958,7.121,6.8436,0.0,0.0,6.8387,6.9678,0.0,0.0,0.0,0.0,0.0,7.5544,0.0,0.0,7.477,7.233,0.0,0.0,0.0,6.9424,6.8643,6.7714,6.7221,0.0,0.0,0.0,0.0,0.0,0.0,0.0,0.0,0.0,0.0,0.0,0.0,0.0,0.0,0.0,0.0,0.0,0.0,0.0,0.0,0.0,0.0,0.0,0.0,0.0,0.0,0.0,8.7897,8.7761,8.7159,8.7215,8.7123,8.6989,8.6678,8.6676,8.7087,8.6777,8.6501,8.6329,8.6742,8.6708,8.6329,8.6536,8.6401,8.5992,8.5686,8.5411,8.5202,8.4853,8.464,8.464,8.464,8.4776,8.4945,8.4945,8.5418,8.6298,0.0,0.0,0.0,0.0,0.0,0.0,0.0,0.0,0.0,0.0,0.0,0.0,0.0,0.0,0.0,0.0,0.0,0.0,0.0,0.0,0.0,0.0,0.0,0.0,0.0,0.0,0.0,0.0,0.0,0.0,0.0,0.0,0.0,0.0,0.0,0.0,0.0,0.0,0.0,0.0,6.9451,0.0,0.0,7.4287,7.6175,0.0,0.0,0.0,7.8791,7.9528,7.7223,0.0,0.0,0.0,0.0,0.0,0.0,0.0,0.0,0.0,0.0,0.0,0.0,0.0,0.0,0.0,0.0,0.0,0.0,0.0,0.0,0.0,0.0,0.0,0.0,0.0,0.0,0.0,0.0,0.0,0.0,0.0,0.0,0.0,0.0,8.6501,8.6839,8.7042,8.6907,8.6593,8.6503,8.6712,8.6268,8.63,8.6747,8.6711,8.6605,8.6329,8.6949,8.6915,8.6329,8.6504,8.6368,8.589,8.548,8.5273,8.5063,8.4747,8.464,8.464,8.464,8.464,8.464,8.464,8.5114,8.596,0.0,0.0,0.0,0.0,0.0,0.0,0.0,0.0,0.0,0.0,0.0,0.0,0.0,0.0,0.0,0.0,0.0,0.0,0.0,0.0,0.0,0.0,0.0,0.0,0.0,0.0,0.0,0.0,0.0,0.0,0.0,0.0,0.0,0.0,0.0,0.0,0.0,0.0,0.0,6.8301,7.121,7.2722,0.0,0.0,7.9337,0.0,8.1318,8.1294,8.0212,8.1461,7.9408,0.0,0.0,0.0,0.0,0.0,6.8551,0.0,0.0,0.0,0.0,0.0,0.0,0.0,7.274,7.2897,7.3205,0.0,0.0,0.0,0.0,0.0,0.0,0.0,0.0,0.0,0.0,0.0,0.0,0.0,0.0,0.0,0.0,8.6332,8.596,8.579,8.5723,8.596,8.6636,8.6141,8.6049,8.6185,8.5994,8.5925,8.6028,8.6781,8.6848,8.6228,8.7572,8.7537,8.6228,8.6679,8.6508,8.5788,8.5273,8.5063,8.4958,8.4747,8.464,8.464,8.464,8.464,8.464,8.464,8.5114,8.5892,0.0,0.0,0.0,0.0,0.0,0.0,0.0,0.0,0.0,0.0,0.0,0.0,0.0,0.0,0.0,0.0,0.0,0.0,0.0,0.0,0.0,0.0,0.0,0.0,0.0,0.0,0.0,0.0,0.0,0.0,0.0,0.0,0.0,0.0,0.0,0.0,0.0,0.0,0.0,6.9079,7.1715,0.0,0.0,7.998,8.2573,8.5137,8.5095,8.5264,8.5052,0.0,8.05,7.8271,0.0,0.0,0.0,0.0,0.0,0.0,0.0,0.0,0.0,0.0,0.0,0.0,6.7807,6.9164,7.1041,0.0,0.0,0.0,0.0,0.0,0.0,0.0,0.0,0.0,0.0,0.0,0.0,0.0,0.0,0.0,0.0,8.6941,8.7076,8.5858,8.5215,8.4911,8.5046,8.4547,8.4927,8.6151,8.5786,8.5891,8.6473,8.6028,8.5857,8.572,8.5994,8.5994,8.572,8.5754,8.5617,8.5273,8.5168,8.4958,8.4747,8.464,8.464,8.464,8.464,8.464,8.464,8.464,8.5114,8.596,0.0,0.0,0.0,0.0,0.0,0.0,0.0,0.0,0.0,0.0,0.0,0.0,0.0,0.0,0.0,0.0,0.0,0.0,0.0,0.0,0.0,0.0,0.0,0.0,0.0,0.0,0.0,0.0,0.0,0.0,0.0,0.0,0.0,0.0,0.0,0.0,0.0,0.0,6.5459,6.732,7.2711,0.0,8.0403,8.3227,8.5857,8.7844,8.7401,8.7504,8.7193,8.3241,8.1329,0.0,0.0,7.5579,7.5258,0.0,7.3209,7.2916,0.0,0.0,0.0,7.031,0.0,0.0,0.0,6.8907,6.9141,0.0,0.0,0.0,0.0,0.0,0.0,0.0,0.0,0.0,0.0,0.0,0.0,0.0,0.0,0.0,0.0,8.4776,8.4911,8.4167,8.4065,8.4065,8.4065,8.4381,8.4551,8.4819,8.5273,8.5377,8.5273,8.5377,8.5514,8.5514,8.5514,8.5514,8.5514,8.5411,8.5202,8.5063,8.4958,8.4747,8.464,8.464,8.464,8.464,8.464,8.464,8.464,8.464,8.5114,8.596,0.0,0.0,0.0,0.0,0.0,0.0,0.0,0.0,0.0,0.0,0.0,0.0,0.0,0.0,0.0,0.0,0.0,0.0,0.0,0.0,0.0,0.0,0.0,6.1061,0.0,0.0,0.0,0.0,0.0,0.0,0.0,0.0,0.0,0.0,0.0,0.0,0.0,0.0,0.0,6.6948,0.0,0.0,8.014,8.4966,8.7291,8.7974,8.8673,8.895,8.8191,8.4212,0.0,8.1608,7.8345,7.7284,0.0,0.0,0.0,0.0,0.0,0.0,0.0,0.0,0.0,7.0303,0.0,0.0,0.0,7.043,0.0,0.0,0.0,0.0,0.0,0.0,0.0,0.0,0.0,0.0,0.0,0.0,0.0,0.0,0.0,8.2069,8.2103,8.2408,8.2577,8.2847,8.3253,8.3937,8.4005,8.3287,8.4452,8.4658,8.3804,8.4794,8.5273,8.5273,8.5273,8.5273,8.5273,8.5063,8.4958,8.4958,8.4747,8.464,8.464,8.464,8.464,8.464,8.464,8.464,8.464,8.4776,8.5249,8.5926,0.0,0.0,0.0,0.0,0.0,0.0,0.0,0.0,0.0,0.0,0.0,0.0,0.0,0.0,0.0,0.0,0.0,0.0,6.5899,0.0,0.0,0.0,0.0,0.0,6.3362,0.0,0.0,0.0,0.0,0.0,0.0,0.0,0.0,0.0,6.4816,0.0,0.0,0.0,6.8842,0.0,7.642,7.6239,0.0,8.0947,8.3978,8.5412,8.8874,8.9947,8.926,0.0,8.5481,8.3484,0.0,8.1358,0.0,0.0,0.0,0.0,0.0,0.0,0.0,0.0,7.4975,0.0,0.0,0.0,7.1302,6.8954,0.0,0.0,0.0,0.0,0.0,0.0,0.0,0.0,0.0,0.0,0.0,0.0,0.0,0.0,0.0,0.0,8.0987,8.2306,8.0682,8.0479,8.2441,8.1968,8.1934,8.2509,8.3358,8.3697,8.349,8.434,8.4747,8.4747,8.4747,8.4747,8.4747,8.464,8.464,8.4606,8.464,8.464,8.464,8.464,8.464,8.464,8.464,8.464,8.4708,8.5384,8.5723,8.6061,0.0,0.0,0.0,0.0,0.0,0.0,0.0,0.0,0.0,0.0,0.0,0.0,0.0,0.0,0.0,0.0,0.0,0.0,0.0,0.0,0.0,0.0,0.0,0.0,0.0,0.0,0.0,0.0,6.4576,0.0,0.0,0.0,0.0,0.0,6.6652,0.0,6.8096,0.0,0.0,0.0,0.0,0.0,0.0,8.3705,8.8248,8.9423,9.0628,9.0941,9.036,0.0,8.6177,0.0,0.0,0.0,0.0,0.0,0.0,0.0,0.0,0.0,0.0,0.0,0.0,0.0,0.0,0.0,7.041,0.0,0.0,0.0,0.0,0.0,0.0,0.0,0.0,0.0,0.0,0.0,0.0,0.0,0.0,0.0,0.0,0.0,0.0,0.0,0.0,7.8855,7.9803,8.0344,8.0784,8.1122,8.2678,8.3287,8.2881,8.4031,8.464,8.464,8.464,8.464,8.464,8.464,8.464,8.464,8.464,8.4877,8.5249,8.4809,8.4911,8.5249,8.4809,8.464,8.4674,8.4979,8.5384,8.5993,0.0,0.0,0.0,0.0,0.0,0.0,0.0,0.0,0.0,0.0,0.0,0.0,7.2227,7.272,0.0,0.0,0.0,7.1318,0.0,0.0,6.7227,0.0,0.0,0.0,0.0,0.0,0.0,0.0,0.0,0.0,0.0,0.0,0.0,0.0,0.0,7.0035,7.1752,0.0,0.0,7.2741,7.6505,7.789,7.8613,8.65,9.0646,9.2166,9.1726,9.152,9.1216,8.8571,8.7018,0.0,8.5658,0.0,0.0,0.0,0.0,0.0,7.9148,0.0,0.0,0.0,0.0,0.0,0.0,0.0,0.0,0.0,0.0,0.0,0.0,0.0,0.0,0.0,0.0,0.0,0.0,0.0,0.0,0.0,0.0,0.0,0.0,0.0,0.0,7.6555,7.6487,7.6826,7.7638,7.8889,7.9701,7.9904,8.2035,8.2949,8.2408,8.3862,8.464,8.464,8.464,8.464,8.464,8.464,8.4742,8.4945,8.4708,8.508,8.5723,8.4945,8.4945,8.5418,8.4843,8.464,8.464,8.4877,8.5317,8.5926,0.0,5.1821,0.0,0.0,0.0,0.0,0.0,0.0,0.0,0.0,0.0,0.0,0.0,0.0,0.0,0.0,0.0,8.0775,7.9417,0.0,7.0531,0.0,0.0,0.0,0.0,0.0,0.0,0.0,0.0,0.0,0.0,0.0,0.0,0.0,0.0,7.3934,7.4567,7.7488,8.0415,8.3044,8.3668,8.6817,9.0741,0.0,8.7727,9.1117,9.1412,0.0,0.0,8.9329,8.8536,0.0,0.0,0.0,0.0,0.0,0.0,0.0,0.0,0.0,0.0,7.8473,0.0,0.0,0.0,0.0,7.5446,0.0,0.0,0.0,0.0,0.0,0.0,0.0,0.0,0.0,0.0,0.0,0.0,0.0,0.0,0.0,0.0,0.0,0.0,7.5574,7.3781,7.3849,7.6792,7.7638,7.8382,7.9126,8.1291,8.2441,8.2408,8.3862,8.464,8.464,8.464,8.464,8.464,8.464,8.5046,8.5723,8.4945,8.508,8.5723,8.4945,8.464,8.4674,8.464,8.464,8.4708,8.5452,8.5757,8.5993,0.0,0.0,0.0,0.0,0.0,0.0,0.0,6.7639,0.0,0.0,0.0,0.0,0.0,0.0,8.9307,0.0,0.0,8.6825,8.5269,8.0992,0.0,0.0,0.0,7.2136,0.0,0.0,0.0,0.0,0.0,0.0,0.0,0.0,0.0,0.0,0.0,7.5371,0.0,0.0,0.0,0.0,0.0,8.8054,9.0299,0.0,0.0,9.3043,9.2757,9.2467,0.0,9.1155,8.9847,8.8638,8.8597,8.7414,8.5977,8.5757,8.5385,0.0,0.0,0.0,8.6325,8.1562,0.0,0.0,0.0,0.0,0.0,0.0,0.0,0.0,0.0,0.0,0.0,0.0,0.0,0.0,0.0,0.0,0.0,0.0,0.0,0.0,0.0,0.0,0.0,7.2983,7.3061,7.3781,7.5303,7.6589,7.7841,7.9058,8.0784,8.1663,8.1663,8.3152,8.3862,8.3896,8.4403,8.464,8.464,8.5148,8.5249,8.5046,8.5283,8.5554,8.5723,8.4945,8.4911,8.5351,8.4809,8.464,8.4776,8.6061,8.623,8.5993,5.876,0.0,0.0,0.0,0.0,0.0,0.0,0.0,0.0,0.0,8.2206,0.0,9.1586,0.0,9.5557,0.0,9.5261,9.2823,8.9573,8.6923,0.0,8.126,7.9215,0.0,0.0,0.0,0.0,0.0,7.1976,7.2108,0.0,0.0,0.0,0.0,0.0,0.0,0.0,0.0,8.5121,0.0,0.0,9.0259,0.0,0.0,9.2645,9.2781,0.0,9.2245,9.1919,9.1525,9.05,8.9433,8.964,8.8364,8.6705,8.6394,8.6026,8.5652,8.5832,8.7121,0.0,8.4569,8.3483,0.0,7.8024,0.0,0.0,0.0,0.0,0.0,0.0,0.0,0.0,0.0,0.0,0.0,0.0,0.0,0.0,0.0,0.0,0.0,0.0,0.0,7.2811,7.2567,7.2707,7.3297,0.0,0.0,7.6792,7.828,8.0006,8.1021,8.1291,8.2509,8.3253,8.349,8.3998,8.437,8.464,8.5148,8.5249,8.5046,8.5283,8.552,8.5723,8.4945,8.4911,8.5317,8.4809,8.4776,8.5182,8.6467,8.6941,8.711,0.0,0.0,0.0,0.0,6.3309,0.0,0.0,0.0,7.7,0.0,8.6271,9.069,9.5507,9.8151,9.9889,10.0686,10.1219,0.0,9.3008,9.2246,0.0,0.0,8.427,8.3487,8.1794,0.0,0.0,0.0,7.5654,7.5202,0.0,0.0,0.0,0.0,7.5933,0.0,8.2443,8.631,8.9669,9.2524,9.286,9.3434,9.3995,9.2459,0.0,9.0639,9.0775,9.1075,9.1452,9.0765,9.0597,9.0743,8.9985,8.9743,8.9295,8.7122,8.7501,8.8354,8.7214,8.723,8.769,8.7192,0.0,0.0,0.0,0.0,8.2214,0.0,0.0,0.0,0.0,0.0,0.0,0.0,0.0,0.0,0.0,0.0,0.0,0.0,0.0,0.0,0.0,7.236,7.2572,7.4098,7.2599,7.2347,0.0,0.0,7.527,7.686,7.9025,8.0513,8.1291,8.2035,8.278,8.349,8.3524,8.393,8.464,8.4674,8.5046,8.5689,8.4979,8.508,8.5655,8.4945,8.464,8.4674,8.464,8.5148,8.5993,8.6704,8.7888,8.914,6.2479,6.3909,6.5041,0.0,0.0,6.4033,0.0,0.0,0.0,0.0,9.395,10.0079,10.4872,10.7087,10.8083,10.8183,10.7423,0.0,0.0,0.0,0.0,9.6484,9.3005,9.0429,8.8943,8.5842,0.0,8.025,0.0,0.0,7.5432,0.0,0.0,0.0,0.0,0.0,8.2414,8.632,8.969,9.255,9.5426,9.4693,0.0,0.0,9.0844,8.9726,9.1614,9.2078,9.168,9.1698,9.1364,9.0892,9.0353,8.9841,8.9291,8.8915,8.9122,8.9329,8.8971,9.0018,9.0607,8.8683,8.7455,8.5988,0.0,0.0,0.0,0.0,0.0,0.0,0.0,0.0,0.0,0.0,0.0,0.0,0.0,0.0,0.0,0.0,0.0,0.0,7.1903,7.2407,7.2788,7.2758,7.2665,7.2958,7.3837,0.0,0.0,7.6826,7.8517,8.0006,8.1257,8.2035,8.278,8.349,8.4065,8.4437,8.464,8.5215,8.5283,8.4945,8.5317,8.5283,8.4911,8.4708,8.4979,8.5418,8.4843,8.5757,8.7448,8.7651,8.8666,8.985,6.4427,0.0,0.0,0.0,0.0,0.0,7.3062,0.0,0.0,8.9265,9.6068,0.0,10.5362,10.949,11.1927,11.1602,11.09,0.0,0.0,0.0,0.0,10.1915,9.9713,9.7356,9.4765,9.1143,0.0,8.3251,0.0,0.0,7.657,0.0,0.0,0.0,0.0,7.9396,0.0,8.766,9.1475,9.3784,9.5734,0.0,0.0,9.2407,9.1189,9.0086,9.1758,9.1724,9.0809,9.0998,9.0836,9.0537,9.0452,9.0006,8.9697,9.0087,9.0087,9.0156,9.1021,9.1746,9.205,9.1563,9.01,8.826,8.6496,8.5831,8.585,0.0,0.0,0.0,0.0,0.0,0.0,0.0,0.0,0.0,0.0,0.0,0.0,0.0,0.0,0.0,7.1927,7.3392,7.4136,7.3447,7.319,7.3199,0.0,0.0,0.0,7.6343,7.8477,8.0141,8.1257,8.234,8.3084,8.349,8.393,8.4302,8.464,8.508,8.5046,8.464,8.508,8.5046,8.464,8.464,8.4877,8.5317,8.552,8.6602,8.8023,8.8361,8.9207,9.0087,0.0,0.0,0.0,0.0,0.0,0.0,0.0,8.0781,0.0,9.1453,0.0,10.1235,10.2994,10.9057,11.305,0.0,0.0,11.1068,10.743,10.9287,10.8637,10.4232,10.491,10.3583,9.9668,9.6462,0.0,0.0,0.0,0.0,0.0,0.0,0.0,0.0,0.0,0.0,0.0,8.9629,9.3747,0.0,9.5214,9.5379,9.5593,9.3888,9.2335,9.1143,9.1697,9.0892,8.9576,8.9678,8.9934,9.0188,9.0481,9.0515,9.0406,9.091,9.091,9.112,9.2818,9.2617,9.2444,9.3969,9.2133,8.9874,9.0043,8.7937,8.6771,8.9785,8.8678,8.7584,0.0,0.0,0.0,0.0,0.0,0.0,0.0,0.0,0.0,0.0,0.0,0.0,0.0,7.4478,7.5506,7.4808,7.3812,7.3262,0.0,0.0,0.0,7.5736,7.8394,8.031,8.1426,0.0,8.3524,8.3795,8.3693,8.3998,8.464,8.464,8.464,8.464,8.464,8.464,8.464,8.464,8.4674,8.4945,8.6467,8.7448,8.8091,8.8801,8.9512,8.9951,0.0,0.0,0.0,0.0,0.0,0.0,0.0,9.2965,9.621,10.0033,10.7058,0.0,11.1212,11.2967,11.4079,11.3757,11.3364,0.0,0.0,0.0,0.0,10.9797,10.9299,10.7465,10.4091,9.9585,9.474,0.0,0.0,0.0,0.0,0.0,0.0,0.0,0.0,0.0,8.5306,9.074,0.0,9.4405,9.6977,9.7424,9.6348,9.5936,9.4496,9.267,9.2744,9.1645,9.0234,9.081,9.1013,9.1161,9.15,9.1724,9.1946,9.2276,9.2493,9.2606,9.2301,9.2198,9.1919,9.1646,9.1185,9.0618,8.9909,8.9518,8.9449,9.0008,8.9986,8.9175,8.6713,0.0,0.0,0.0,0.0,0.0,0.0,0.0,0.0,0.0,0.0,0.0,0.0,0.0,0.0,0.0,0.0,0.0,0.0,0.0,0.0,0.0,7.6897,0.0,0.0,0.0,8.3524,8.5384,8.4742,8.4505,8.464,8.464,8.464,8.464,8.464,8.464,8.464,8.464,8.5012,8.5723,8.7211,8.7888,8.8091,8.8801,8.9173,8.9241,0.0,0.0,0.0,0.0,0.0,0.0,0.0,10.2138,0.0,10.3301,10.7342,11.0127,10.9599,11.3755,11.641,11.6161,11.5855,11.573,11.5504,11.5055,11.3902,11.2326,11.1573,0.0,10.711,10.2301,9.7383,9.2501,0.0,0.0,0.0,0.0,0.0,0.0,0.0,8.0424,0.0,0.0,0.0,9.3139,9.6734,9.75,9.649,9.647,9.4959,9.272,9.2471,9.1433,9.0324,9.1034,9.1034,9.0797,9.1546,9.1761,9.1874,9.2356,9.2543,9.2585,9.2459,9.2464,9.2399,9.1606,9.123,9.0846,9.0365,8.9831,8.9573,9.0441,9.0383,8.9435,8.6692,8.2746,0.0,0.0,0.0,0.0,0.0,0.0,0.0,0.0,0.0,0.0,0.0,0.0,0.0,0.0,0.0,0.0,0.0,0.0,0.0,0.0,0.0,0.0,0.0,0.0,0.0,8.5182,8.4809,8.464,8.464,8.464,8.464,8.464,8.464,8.464,8.464,8.464,8.5317,8.6433,8.7144,8.7888,8.8598,8.897,8.9072,8.9072,0.0,7.6607,0.0,0.0,9.0262,0.0,0.0,10.8395,11.1243,10.6902,10.7685,10.8725,10.8698,11.447,11.8285,11.8168,11.8021,11.7596,11.6709,11.6023,11.5018,11.3627,11.3003,11.1588,10.9386,10.4504,9.9365,0.0,0.0,0.0,0.0,0.0,0.0,0.0,0.0,0.0,0.0,0.0,9.1657,9.3161,9.6751,9.7889,9.7416,9.7424,9.602,9.3891,9.345,9.2433,9.1485,9.2235,9.1693,9.0797,9.1919,9.2123,9.2123,9.2611,9.2689,9.2767,9.2962,9.3009,9.2808,9.2192,9.1399,9.0812,9.0812,8.9778,8.9121,9.0373,8.9959,8.8714,8.7076,8.4281,0.0,0.0,0.0,0.0,0.0,0.0,0.0,0.0,0.0,0.0,0.0,0.0,0.0,0.0,0.0,7.4324,7.5592,7.4044,0.0,0.0,0.0,8.0337,8.2335,0.0,8.4403,0.0,8.4708,8.464,8.464,8.464,8.464,8.464,8.464,8.464,8.464,8.4809,8.5689,8.6941,8.7076,8.7955,8.9072,8.9072,8.9072,8.9072,0.0,0.0,0.0,0.0,0.0,0.0,0.0,11.0817,11.4598,11.4818,11.5626,11.6507,11.7204,11.7902,11.8416,11.8416,11.7755,11.7184,11.7074,11.6434,11.5626,11.4745,11.3901,11.2689,11.1001,10.6192,10.0209,0.0,0.0,0.0,0.0,0.0,0.0,0.0,0.0,0.0,0.0,9.0005,9.3492,9.6465,9.9035,10.0306,10.0719,10.0458,9.9568,9.8265,9.7979,9.6699,9.5295,9.6065,9.4468,9.2353,9.3131,9.3835,9.418,9.4295,9.4488,9.4541,9.4221,9.3457,9.2625,9.2085,9.1399,9.0812,9.0812,9.0192,8.9433,8.8915,8.7771,8.6842,8.6751,8.6489,8.5591,0.0,0.0,0.0,0.0,0.0,0.0,0.0,0.0,0.0,0.0,0.0,0.0,0.0,0.0,7.4738,7.4787,7.4573,7.5114,7.6733,0.0,7.8162,8.1792,8.2376,8.3659,8.5655,8.4945,8.464,8.464,8.464,8.464,8.464,8.464,8.464,8.4674,8.5384,8.6163,8.6974,8.7651,8.8395,8.9072,8.9072,8.9072,8.9072,0.0,0.0,0.0,0.0,0.0,0.0,0.0,11.302,11.5406,11.7204,11.8122,11.8783,11.9076,11.959,11.9884,11.9884,11.9113,11.8416,11.8012,11.7204,11.6103,11.4892,11.4011,11.3093,11.1919,10.7587,10.2522,0.0,0.0,0.0,0.0,0.0,0.0,0.0,0.0,8.3948,8.7509,9.1583,9.463,9.6906,9.9328,10.0386,10.0554,10.0165,9.9459,9.8487,9.7576,9.6783,9.614,9.6458,9.5575,9.4479,9.5091,9.4772,9.437,9.4563,9.4304,9.3871,9.3229,9.3381,9.3428,9.2295,9.1744,9.1502,9.1502,9.0916,9.0019,8.8846,8.7847,8.722,8.7354,8.7079,8.7,0.0,0.0,0.0,0.0,0.0,0.0,0.0,0.0,7.9396,0.0,0.0,0.0,0.0,0.0,7.5079,7.5555,7.5917,7.6789,7.8322,0.0,8.0443,8.3271,8.3231,8.3841,8.508,8.4776,8.464,8.464,8.464,8.464,8.464,8.464,8.4877,8.5351,8.5655,8.6501,8.7583,8.7888,8.8429,8.9072,8.9072,8.9072,8.9072,9.5364,0.0,9.786,0.0,10.6119,10.8211,11.3791,11.5296,11.658,11.8489,11.948,11.9994,11.9994,12.0508,12.0912,12.0912,11.9884,11.9003,11.8416,11.7425,11.6323,11.5185,11.4194,0.0,11.28,10.8982,10.4798,10.0209,9.518,0.0,0.0,0.0,0.0,0.0,8.4095,8.6958,9.0225,9.4079,9.6502,9.7933,10.0099,10.0907,10.0606,10.0215,9.9687,9.9093,9.8088,9.7716,9.7716,9.7716,9.7469,9.7003,9.6693,9.5882,9.5042,9.5024,9.4614,9.388,9.3031,9.3469,9.3801,9.2808,9.2223,9.1985,9.1985,9.1364,9.0398,8.8915,8.8091,8.7702,8.7702,8.7543,8.8057,8.9893,0.0,0.0,0.0,0.0,0.0,0.0,8.1195,7.9103,7.8662,0.0,0.0,0.0,0.0,0.0,7.679,7.7254,0.0,0.0,0.0,0.0,0.0,8.3901,8.4077,8.464,8.464,8.464,8.464,8.464,8.464,8.464,8.4877,8.5283,8.5824,8.6264,8.7042,8.8023,8.8226,8.8632,8.9072,8.9072,8.9072,8.9072,10.1494,10.3917,10.6706,11.2469,11.4084,11.5222,11.6911,11.7828,11.8709,11.948,12.0288,12.0912,12.0912,12.0912,12.0912,12.0912,11.9407,11.8416,11.8416,11.6911,11.5993,0.0,0.0,11.357,11.357,11.0414,10.678,10.2705,0.0,0.0,8.9271,0.0,8.4976,8.582,8.8243,9.1143,9.4446,9.7676,9.9512,10.0393,10.2008,10.2191,10.1494,10.1287,10.1204,10.1131,10.0845,10.0724,10.0724,10.0724,10.0627,10.0107,9.7838,9.7239,9.7071,9.5989,9.57,9.5482,9.4693,9.3919,9.3451,9.364,9.2872,9.1985,9.1985,9.1364,9.0398,8.8915,8.8091,8.7702,8.7702,8.849,8.9162,8.9264,0.0,0.0,0.0,0.0,0.0,8.259,8.1489,8.0351,7.8736,0.0,0.0,0.0,0.0,0.0,0.0,0.0,0.0,7.9764,8.0043,0.0,8.3415,8.3682,8.4077,8.464,8.464,8.464,8.464,8.464,8.464,8.4674,8.5452,8.579,8.5892,8.738,8.7989,8.8057,8.8801,8.9072,8.9072,8.9072,8.9072,8.9072,10.7807,10.8909,11.0304,11.3791,11.4598,11.5185,11.6213,11.7094,11.7902,11.8709,11.948,12.0214,12.0802,12.0912,12.0912,0.0,11.9884,11.9187,0.0,11.7718,11.6801,11.6801,11.5296,11.4194,11.357,11.1515,10.8688,10.5201,0.0,0.0,0.0,9.0886,9.0519,9.0886,9.3308,9.5878,9.8484,10.0099,10.12,10.1898,10.1898,10.1677,10.1494,10.1376,10.1413,10.1413,10.1295,10.1168,10.1121,10.1121,10.1235,10.1241,10.0508,9.9036,9.7562,9.7493,9.638,9.5296,9.5542,9.4929,9.4404,9.5402,9.4041,9.2636,9.3416,9.1715,8.9916,8.9433,8.8842,8.8142,8.7587,8.8286,8.9108,8.9829,8.8879,0.0,0.0,0.0,8.4792,8.3214,8.1819,8.0791,0.0,7.925,0.0,0.0,0.0,0.0,0.0,0.0,0.0,0.0,8.3298,0.0,8.4829,8.5286,8.522,8.464,8.464,8.464,8.464,8.464,8.4911,8.5418,8.5689,8.6366,8.7347,8.782,8.8294,8.8767,8.9004,8.9072,8.9072,8.9072,8.9072,8.9072,11.0817,11.1698,11.2579,11.4084,11.5112,11.581,11.5993,11.6911,11.7828,11.8306,11.8819,11.959,12.0802,12.0581,0.0,12.0912,12.0104,11.959,11.959,11.8122,11.7204,11.7204,11.5406,11.4084,11.357,0.0,0.0,10.7771,10.4687,10.0796,9.6245,9.5951,9.5658,9.5474,9.7897,9.9622,10.0796,10.2301,10.2999,10.3109,10.2595,10.2191,10.1898,10.1604,10.1494,10.1494,10.1494,10.1596,10.1845,10.1845,10.1988,10.2229,10.2024,10.0883,9.9601,9.9349,9.7834,9.6301,9.6821,9.6063,9.5303,9.6237,9.4878,9.3291,9.3381,9.1611,8.9949,8.9778,8.9396,8.8801,8.7637,8.8224,8.8909,8.927,8.8326,8.7703,8.8325,0.0,8.4095,0.0,0.0,0.0,0.0,8.0534,0.0,0.0,0.0,0.0,0.0,0.0,0.0,8.327,8.5438,0.0,8.6695,8.6646,8.6107,8.524,8.4785,8.464,8.464,8.4911,8.5317,8.5824,8.6366,8.7144,8.8023,8.8294,8.8666,8.9072,8.9072,8.9072,8.9072,8.9072,8.9072,8.9072,11.1221,11.2616,0.0,0.0,11.5699,0.0,11.6213,11.7388,11.8489,11.8489,11.8489,11.9113,12.0618,12.0104,11.9994,12.0691,0.0,0.0,0.0,11.8122,11.7314,11.7204,11.4892,11.3681,11.357,11.2102,11.0891,10.9973,10.6082,10.3403,10.1677,10.098,10.0099,9.9365,10.1788,10.2412,10.1788,10.41,10.4687,10.399,10.388,10.3403,10.2705,10.1788,10.1494,10.1567,10.1494,10.2008,10.2742,10.2742,10.2887,10.3058,10.262,10.2694,10.2587,10.1259,9.9873,9.862,9.8434,9.736,9.6307,9.6484,9.5572,9.4168,9.2506,9.143,9.0529,8.9914,9.004,8.9668,8.7911,8.823,8.8556,8.7936,8.709,8.6597,8.6661,8.5408,8.3661,0.0,0.0,0.0,0.0,8.1269,8.1819,0.0,0.0,0.0,0.0,0.0,8.2737,8.5783,8.6529,8.7559,8.8734,8.7548,8.6674,8.6217,8.517,8.464,8.464,8.5418,8.5824,8.596,8.738,8.8023,8.8125,8.8801,8.9072,8.9072,8.9072,8.9072,8.9072,8.9072,8.9072,8.9072,0.0,0.0,11.4708,11.5296,11.6397,11.7131,11.6911,11.8306,11.9297,11.9297,11.9884,12.0214,11.9884,12.0288,12.0398,11.9884,12.0288,12.0288,11.959,11.8709,11.7828,11.7204,11.5516,11.4194,11.357,11.2616,11.1405,10.9973,10.8395,10.6486,10.421,10.41,10.2889,10.098,10.3513,10.41,10.3403,10.4614,10.5018,10.4724,10.3513,10.3219,10.3476,10.2008,10.1898,10.2301,10.1677,10.1927,10.2495,10.2495,10.284,10.3168,10.3108,10.3045,10.2693,10.1773,10.1118,10.0697,10.1399,9.9633,9.8089,9.9896,9.8716,9.664,9.4487,9.3729,9.298,9.1744,9.1506,9.1057,8.9398,8.8879,8.8677,8.8703,8.6966,8.5528,8.5178,8.4246,8.3192,0.0,8.244,8.3067,8.3691,8.3765,8.3398,0.0,0.0,0.0,0.0,8.4205,8.5202,8.6456,8.8398,8.9196,8.8644,8.7993,8.6725,8.4961,8.4713,8.464,8.464,8.5418,8.6095,8.6704,8.7617,8.8294,8.8835,8.9004,8.9072,8.9072,8.9072,8.9072,8.9072,8.9072,8.9072,8.9072,11.3497,11.4194,11.4892,11.5406,11.6397,11.7094,11.669,11.8012,11.9076,11.9076,11.948,11.9884,12.0178,12.0288,12.0288,12.0178,12.0581,12.0508,11.97,11.8819,11.8012,11.7204,11.5296,11.4011,11.357,11.2506,11.1405,11.0487,10.9716,10.8688,10.7294,10.6596,10.5311,10.3806,10.5091,10.5495,10.5091,10.5899,10.6192,10.6119,10.4908,10.421,10.3806,10.2485,10.2301,10.2595,10.1788,10.2403,10.3531,10.2834,10.318,10.3814,10.312,10.2912,10.303,10.2521,10.2099,10.2039,10.2913,10.1079,9.9207,9.9847,9.9004,9.7491,9.5593,9.5257,9.4983,9.2923,9.2582,9.2166,9.0538,8.9329,8.8458,8.7854,8.5816,8.4145,8.3954,8.2896,0.0,8.2106,8.3482,8.4569,8.5078,8.5797,8.5747,8.4499,8.4792,0.0,8.5049,8.6591,8.7586,8.7919,8.9568,9.0295,9.0006,8.8967,8.7611,8.582,8.5701,8.5655,8.5689,8.6433,8.7008,8.7448,8.8158,8.8734,8.9072,8.9072,8.9072,8.9072,8.9072,8.9072,8.9072,8.9072,8.9072,8.9072,11.3791,11.4415,11.5002,11.5002,11.6213,11.7021,11.6397,11.7608,11.8599,11.8783,11.8783,11.9297,12.0581,12.0178,11.9994,12.0691,12.0802,12.0508,11.948,11.8783,11.7902,11.6911,11.4892,11.3681,11.3387,11.1992,11.1221,11.1221,11.0487,11.0083,10.9973,10.8578,10.7367,10.6376,10.6486,10.6413,10.6302,10.7183,10.7477,10.7367,10.667,10.5495,10.4173,10.3219,10.2999,10.2999,10.2191,10.3293,10.4908,10.3403,10.3677,10.4436,10.3118,10.284,10.3058,10.3254,10.2979,10.2877,10.3566,10.2168,10.0098,9.8801,9.8202,9.7598,9.6423,9.6507,9.626,9.3869,9.3446,9.2915,9.1334,8.9778,8.8323,8.6726,8.4632,8.3069,8.2852,0.0,8.1382,8.2176,8.4388,8.5951,8.628,8.7558,8.8096,8.7435,8.7362,8.7362,8.7362,8.8793,8.9674,8.9784,9.0445,9.0993,9.1351,8.9915,8.852,8.7332,8.7001,8.6907,8.6941,8.7651,8.7989,8.8023,8.8767,8.9072,8.9072,8.9072,8.9072,8.9072,8.9072,8.9072,8.9072,8.9072,8.9072,8.9072,11.4598,11.5296,11.581,11.581,11.6617,11.7425,11.7902,11.8783,11.97,12.0398,12.0508,12.0288,11.9884,12.0288,12.0508,11.9884,12.0508,12.0214,11.8709,11.8489,11.7388,11.5296,11.4818,11.4011,11.2579,11.1698,11.1221,11.1221,11.1111,11.0707,10.9973,10.9679,10.8505,10.6413,10.7073,10.6596,10.5422,10.689,10.7183,10.6596,10.6486,10.6192,10.5789,10.4284,10.41,10.4614,10.3806,10.421,10.5018,10.399,10.3917,10.3981,10.3687,10.3044,10.2657,10.3278,10.329,10.3336,10.4138,10.303,10.1473,10.0412,9.9623,9.882,9.8144,9.7372,9.6409,9.4953,9.3987,9.308,9.2245,9.078,8.9317,8.7728,8.5605,8.345,8.1533,0.0,8.217,8.2994,8.5299,8.7298,8.8653,8.9089,8.916,8.905,8.905,8.905,8.905,8.9931,9.0739,9.14,9.1546,9.1084,9.0089,8.9568,8.8635,8.7318,8.7057,8.6907,8.6941,8.7651,8.7989,8.8023,8.8767,8.9072,8.9072,8.9072,8.9072,8.9072,8.9072,8.9072,8.9072,8.9072,8.9072,8.9072,11.5406,11.5699,11.5993,11.5993,11.6287,11.669,11.7094,11.8195,11.9113,11.948,11.9884,12.0214,12.0288,11.9884,11.959,11.959,11.9994,11.97,11.8489,11.8416,11.7314,11.4892,11.4415,11.3387,11.1808,11.1405,11.1221,11.1221,11.1221,11.1001,11.0597,11.0193,10.9202,10.7697,10.7587,10.7404,10.711,10.7477,10.7587,10.7697,10.7183,10.6486,10.5605,10.4798,10.4504,10.432,10.3513,10.3806,10.432,10.3513,10.3513,10.388,10.388,10.3284,10.2688,10.3494,10.3498,10.3241,10.3131,10.2498,10.161,10.0882,10.0282,9.9731,9.9028,9.892,9.8487,9.6993,9.6399,9.5581,9.3869,9.2399,9.0701,8.8573,8.5339,0.0,0.0,8.1566,8.1272,8.2899,8.5697,8.7823,8.8547,8.9457,9.0078,9.0078,9.0078,9.0078,9.0078,9.1253,9.2134,9.2501,9.2819,9.2437,9.124,9.0949,9.003,8.8671,8.8402,8.8202,8.8091,8.8429,8.8564,8.8598,8.8937,8.9072,8.9072,8.9072,8.9072,8.9072,8.9072,8.9072,8.9072,8.9072,8.9072,8.9072,11.5993,11.5993,11.5993,11.5993,11.5993,11.6103,11.6507,11.7608,11.8489,11.8893,11.948,12.0178,12.0802,11.9811,11.9187,11.9811,11.9884,11.948,11.8489,11.8416,11.7388,11.5185,11.3901,11.2689,11.1515,11.1295,11.1221,11.1221,11.1221,11.1221,11.1221,11.0597,10.9716,10.8799,10.8175,10.7991,10.8211,10.7771,10.7807,10.8211,10.7771,10.6596,10.5128,10.5311,10.4908,10.41,10.3696,10.3806,10.41,10.3513,10.3513,10.388,10.41,10.3513,10.2889,10.3696,10.341,10.2719,10.2013,10.166,10.1501,10.0943,10.0518,10.0151,9.9515,9.976,9.9788,9.8426,9.8,9.7246,9.5198,9.3426,9.1478,8.8954,0.0,0.0,0.0,8.2063,8.1344,8.3613,8.6253,8.7964,8.8143,8.9452,9.0222,9.0222,9.0483,9.063,9.085,9.2317,9.3272,9.3639,9.3941,9.3633,9.2868,9.2489,9.1579,9.0225,9.001,8.9593,8.9072,8.9072,8.9072,8.9072,8.9072,8.9072,8.9072,8.9072,8.9072,8.9072,8.9072,8.9072,8.9072,8.9072,8.9072,8.9072,11.5993,11.5993,11.5993,11.5993,11.5993,11.6507,11.8012,11.8306,11.9003,12.0508,12.0802,12.0802,12.0912,12.0802,12.0691,12.0802,12.0802,12.0104,11.8489,11.8416,11.7682,11.5993,11.3681,11.2396,11.2286,11.1588,11.1221,11.1221,11.1221,11.1221,11.1221,11.1111,11.0304,10.8799,10.8688,10.7881,10.6596,10.7294,10.7183,10.6596,10.7294,10.6596,10.5201,10.6009,10.5789,10.5128,10.5899,10.5605,10.5018,10.4908,10.4504,10.399,10.4798,10.3917,10.2889,10.3696,10.2815,10.1596,10.1277,10.1241,10.1195,10.0918,10.0081,9.9365,9.9535,9.8905,9.8275,9.8407,9.7123,9.5934,9.5773,9.3229,9.0427,8.7941,0.0,0.0,8.3539,8.3743,8.467,8.631,8.7358,8.8214,8.8963,8.9121,8.9207,8.9207,9.0042,9.0806,9.1567,9.2603,9.3786,9.529,9.4628,9.4171,9.3913,9.3651,9.2743,9.1328,9.0988,9.025,8.9072,8.9072,8.9072,8.9072,8.9072,8.9072,8.9072,8.9072,8.9072,8.9072,8.9072,8.9072,8.9072,8.9072,8.9072,8.9072,11.5993,11.5993,11.5993,11.5993,11.5993,11.6213,11.6801,11.7314,11.8085,11.9187,11.8893,11.9187,12.0691,11.9517,11.9003,11.9994,11.959,11.9113,11.8416,11.7498,11.6177,11.4598,11.2689,11.1698,11.1698,11.1405,11.1221,11.1221,11.1221,11.1221,11.1221,11.1221,11.0597,10.9496,10.9496,10.8909,10.7881,10.7697,10.7367,10.7073,10.689,10.6486,10.5899,10.6302,10.5899,10.5128,10.5495,10.5091,10.4394,10.4394,10.421,10.399,10.4798,10.4027,10.2705,10.2485,10.1971,10.1494,10.1413,10.125,10.1204,10.1121,10.0578,10.0312,10.0323,9.9984,9.9838,10.0088,9.9462,9.8491,9.7007,9.5672,9.3683,9.0017,0.0,8.7321,8.6096,8.5882,8.6465,8.8121,8.8972,8.9842,9.0635,9.0762,9.0788,9.0788,9.1644,9.2235,9.2564,9.3856,9.4842,9.5276,9.557,9.5455,9.4746,9.4663,9.3872,9.2392,9.16,9.0849,9.0104,8.9373,8.9072,8.9072,8.9072,8.9072,8.9072,8.9072,8.9072,8.9072,8.9072,8.9072,8.9072,8.9072,8.9072,8.9072,11.5993,11.5993,11.5993,11.5993,11.5993,11.6177,11.669,11.7204,11.7902,11.8709,11.8306,11.8599,12.0288,11.9003,11.8489,11.9884,11.9297,11.8709,11.8416,11.6397,11.4598,11.3277,11.2212,11.1515,11.1221,11.1221,11.1221,11.1221,11.1221,11.1221,11.1221,11.1221,11.0781,10.9973,10.9973,10.9569,10.8688,10.7881,10.7587,10.7477,10.6706,10.6192,10.6009,10.6302,10.5899,10.5128,10.5128,10.4724,10.421,10.399,10.388,10.399,10.4504,10.3806,10.2522,10.1677,10.1494,10.1494,10.1494,10.1413,10.125,10.125,10.1085,10.0881,10.0881,10.0918,10.0918,10.0965,10.0662,9.9827,9.7897,9.6896,9.5108,9.124,9.0151,8.94,8.8398,8.8313,8.8864,9.0192,9.0408,9.0645,9.1186,9.1103,9.1053,9.1307,9.2158,9.2972,9.3822,9.4622,9.5224,9.5668,9.6064,9.5866,9.5217,9.5217,9.4459,9.3061,9.1999,9.116,9.0285,8.9593,8.9184,8.9072,8.9072,8.9072,8.9072,8.9072,8.9072,8.9072,8.9072,8.9072,8.9072,8.9072,8.9072,8.9072,11.5993,11.5993,11.5993,11.5993,11.5993,11.6507,11.8122,11.8416,11.8709,11.948,11.959,11.959,11.959,11.959,11.9994,12.0802,12.0104,11.9187,11.8416,11.5369,11.3203,11.2396,11.2396,11.1992,11.1221,11.1221,11.1221,11.1221,11.1221,11.1221,11.1221,11.1221,11.0781,10.9973,10.9973,10.9569,10.8799,10.7991,10.7587,10.7477,10.6706,10.5899,10.5201,10.6082,10.5899,10.5128,10.5128,10.5128,10.5018,10.421,10.388,10.388,10.388,10.3293,10.2522,10.1677,10.1494,10.1494,10.1494,10.1494,10.1494,10.1494,10.1368,10.1168,10.1204,10.1002,10.0797,10.0797,10.0177,9.9255,9.8323,9.6242,9.3836,9.0892,9.0959,9.0936,9.0001,9.0936,9.1994,9.2754,9.1354,9.0248,9.0284,8.957,8.9427,9.0264,9.1139,9.283,9.5325,9.4584,9.4831,9.6572,9.5668,9.5217,9.5217,9.5217,9.4547,9.3306,9.2329,9.1092,8.9517,8.9517,8.9407,8.9072,8.9072,8.9072,8.9072,8.9072,8.9072,8.9072,8.9072,8.9072,8.9072,8.9072,8.9072,8.9072,11.5993,11.5993,11.5993,11.5993,11.5993,11.6177,11.6617,11.7204,11.7828,11.8709,11.8783,11.9187,12.0398,11.9994,11.9994,12.0802,11.959,11.7682,11.5185,11.4084,11.2983,11.1588,11.1588,11.1405,11.1221,11.1221,11.1221,11.1221,11.1221,11.1221,11.1221,11.1221,11.1111,11.0817,11.0817,11.0414,10.9606,10.8799,10.8101,10.7477,10.6706,10.6192,10.6009,10.6302,10.6192,10.5899,10.5311,10.5128,10.4908,10.3513,10.3109,10.2999,10.2375,10.2412,10.2522,10.1677,10.1494,10.1494,10.1494,10.1494,10.1604,10.2191,10.1934,10.1596,10.211,10.1772,10.1332,10.1332,10.0985,10.0317,9.8846,9.7777,9.6011,9.2782,9.2299,9.1941,9.0566,9.0855,9.1531,9.253,9.1245,9.0462,9.0997,9.0492,9.0141,9.0393,9.1686,9.2518,9.2652,9.4072,9.4506,9.3841,9.5377,9.5586,9.4231,9.4842,9.4459,9.3097,9.2812,9.2267,9.14,9.0709,9.0285,9.0177,8.9373,8.9072,8.9072,8.9072,8.9072,8.9072,8.9072,8.9072,8.9072,8.9072,8.9072,8.9072,11.5993,11.5993,11.6103,11.6397,11.6507,11.669,11.7278,11.7792,11.8306,11.8783,11.8893,11.9113,11.9811,11.97,11.97,11.9884,11.8709,11.669,11.3791,11.357,11.2873,11.1295,11.1221,11.1221,11.1221,11.1221,11.1221,11.1221,11.1221,11.1221,11.1221,11.1221,11.1221,11.1221,11.1221,11.0891,11.0414,10.9312,10.8688,10.8395,10.7,10.6596,10.678,10.6486,10.6192,10.5789,10.4908,10.4614,10.4394,10.2815,10.2191,10.2118,10.1677,10.1788,10.2081,10.1604,10.1494,10.1494,10.1494,10.1494,10.1677,10.2522,10.2081,10.1604,10.2081,10.1788,10.1494,10.1494,10.1413,10.0774,9.9082,9.8509,9.7198,9.3925,9.3776,9.3458,9.1657,9.1956,9.2496,9.2779,9.1461,9.0802,9.1354,9.043,8.9893,9.0216,9.1487,9.2351,9.2504,9.3611,9.4215,9.4205,9.5083,9.4963,9.3781,9.3962,9.3745,9.3097,9.2752,9.2594,9.24,9.14,9.0779,9.0709,8.9593,8.9072,8.9072,8.9072,8.9072,8.9072,8.9072,8.9072,8.9072,8.9072,8.9072,8.9072,11.5993,11.5993,11.6213,11.7021,11.7094,11.7608,11.9187,11.9407,11.948,11.959,11.97,11.9407,11.8709,11.9187,11.9297,11.8599,11.7608,11.6103,11.3864,11.357,11.28,11.1405,11.1221,11.1221,11.1221,11.1221,11.1221,11.1221,11.1221,11.1221,11.1221,11.1221,11.1221,11.1221,11.1221,11.1221,11.1111,10.9496,10.9202,10.9679,10.7294,10.678,10.7367,10.667,10.5899,10.5128,10.421,10.3917,10.3806,10.2081,10.1604,10.1604,10.1494,10.1494,10.1494,10.1494,10.1494,10.1494,10.1494,10.1494,10.1677,10.2522,10.2081,10.1494,10.1604,10.1567,10.1494,10.1494,10.1494,10.0973,9.9163,9.8627,9.7632,9.4747,9.5,9.4914,9.3003,9.3562,9.3926,9.3213,9.1715,9.0956,9.1138,8.9627,8.8952,8.9681,9.0624,9.1853,9.335,9.28,9.3581,9.6113,9.4597,9.371,9.369,9.2752,9.2559,9.3226,9.2435,9.2273,9.2594,9.1705,9.0988,9.0709,8.9593,8.9072,8.9072,8.9072,8.9072,8.9072,8.9072,8.9072,8.9072,8.9072,8.9072,8.9072,11.5993,11.5993,11.6103,11.6213,11.6287,11.6617,11.7608,11.8306,11.8893,11.948,12.0178,12.0581,12.0398,11.9884,11.948,11.937,11.7498,11.581,11.4598,11.3387,11.2506,11.2212,11.1515,11.1221,11.1221,11.1221,11.1221,11.1221,11.1221,11.1221,11.1221,11.1221,11.1221,11.1221,11.1221,11.1221,11.1111,10.9496,10.8909,10.8909,10.711,10.6486,10.6596,10.6486,10.6302,10.5899,10.4394,10.432,10.4614,10.2999,10.2412,10.2301,10.1677,10.1494,10.1494,10.1494,10.1494,10.1494,10.1494,10.1494,10.1677,10.2522,10.2081,10.1677,10.2301,10.1971,10.1494,10.1494,10.1494,10.1017,9.9322,9.887,9.8079,9.5913,9.4963,9.4355,9.3979,9.2752,9.1835,9.1835,9.0362,8.9433,8.9673,8.9012,8.837,8.8227,8.9237,8.9547,8.8613,9.0415,9.1658,9.1953,9.2545,9.2738,9.2656,9.24,9.2203,9.187,9.2594,9.2691,9.24,9.2203,9.1603,9.0709,8.9593,8.9072,8.9072,8.9072,8.9072,8.9072,8.9072,8.9072,8.9072,8.9072,8.9072,8.9072,11.5993,11.5993,11.6103,11.6507,11.6617,11.6801,11.7608,11.8122,11.8599,11.9003,11.9407,11.97,11.97,11.9297,11.8893,11.8489,11.6984,11.5479,11.4305,11.3387,11.2616,11.1882,11.1405,11.1221,11.1221,11.1221,11.1221,11.1221,11.1221,11.1221,11.1221,11.1221,11.1221,11.1221,11.1221,11.1001,11.0487,10.9312,10.8799,10.8688,10.7,10.6596,10.689,10.6486,10.6119,10.5715,10.4798,10.421,10.3806,10.2522,10.2081,10.2081,10.1604,10.1494,10.1494,10.1494,10.1494,10.1494,10.1494,10.1494,10.1604,10.2008,10.1788,10.1677,10.2522,10.2081,10.1384,10.098,10.0907,10.0393,9.8814,9.8363,9.7722,9.6202,9.5373,9.4655,9.416,9.2691,9.1603,9.1298,8.9429,8.8072,8.8049,8.7501,8.7142,8.7142,8.8181,8.8666,8.8084,9.0274,9.167,9.1951,9.2176,9.2328,9.2302,9.184,9.1537,9.1502,9.2594,9.3168,9.3097,9.2559,9.1705,9.0709,8.9593,8.9072,8.9072,8.9072,8.9072,8.9072,8.9072,8.9072,8.9072,8.9072,8.9072,8.9072,11.5993,11.5993,11.6213,11.6911,11.7021,11.7314,11.8085,11.8195,11.8195,11.8416,11.8416,11.8416,11.8416,11.8306,11.7902,11.7094,11.6103,11.5075,11.3901,11.3387,11.2689,11.1515,11.1295,11.1221,11.1221,11.1221,11.1221,11.1221,11.1221,11.1221,11.1221,11.1221,11.1221,11.1221,11.1221,11.0781,10.99,10.9092,10.8688,10.8505,10.7,10.678,10.7294,10.667,10.6009,10.5311,10.5201,10.421,10.2815,10.1971,10.1677,10.1677,10.1494,10.1494,10.1494,10.1494,10.1494,10.1494,10.1494,10.1494,10.1494,10.1677,10.1604,10.1677,10.2522,10.2081,10.1274,10.0613,10.0503,9.9989,9.8374,9.796,9.7472,9.6246,9.5858,9.541,9.4303,9.3262,9.2267,9.167,8.9293,8.7492,8.6847,8.6303,8.6063,8.6473,8.7434,8.8158,8.8871,9.0423,9.169,9.2611,9.183,9.1565,9.2005,9.1196,9.0953,9.1603,9.24,9.3038,9.3527,9.2427,9.14,9.0391,8.9483,8.9072,8.9072,8.9072,8.9072,8.9072,8.9072,8.9072,8.9072,8.9072,8.9072,8.9072,11.5993,11.5993,11.5993,11.6103,11.6177,11.6397,11.7204,11.7388,11.7608,11.8306,11.8416,11.8416,11.8416,11.7792,11.7021,11.6213,11.4782,11.4084,11.4598,11.2689,11.1698,11.2212,11.1588,11.1221,11.1221,11.1221,11.1221,11.1221,11.1221,11.1221,11.1221,11.1221,11.1221,11.1221,11.1221,11.0781,10.99,10.9092,10.8395,10.7697,10.678,10.6486,10.6596,10.6413,10.6302,10.6119,10.5422,10.4504,10.3586,10.2815,10.2522,10.2412,10.1677,10.1494,10.1494,10.1494,10.1494,10.1494,10.1494,10.1494,10.1677,10.2412,10.2008,10.1677,10.2522,10.2081,10.1494,10.1384,10.131,10.0796,9.9218,9.8961,9.8369,9.6631,9.61,9.5858,9.5493,9.4391,9.3541,9.3413,9.12,8.9053,8.7633,8.667,8.6093,8.596,8.6542,8.7018,8.7561,8.8189,8.898,8.9962,8.9488,8.9701,9.0707,9.0494,9.0953,9.187,9.1805,9.1467,9.116,9.0988,9.0285,8.9295,8.9184,8.9072,8.9072,8.9072,8.9072,8.9072,8.9072,8.9072,8.9072,8.9072,8.9072,8.9072,11.5993,11.5993,11.5993,11.5993,11.5993,11.6103,11.6507,11.6507,11.669,11.6984,11.7094,11.7204,11.7718,11.7425,11.6911,11.6103,11.5369,11.4708,11.4194,11.3093,11.2286,11.1808,11.1405,11.1221,11.1221,11.1221,11.1221,11.1221,11.1221,11.1221,11.1221,11.1221,11.1221,11.1221,11.1221,11.0781,10.99,10.9092,10.8285,10.7477,10.6706,10.6376,10.6376,10.6376,10.6082,10.5495,10.421,10.3513,10.3109,10.2301,10.2008,10.1971,10.1604,10.1494,10.1494,10.1494,10.1494,10.1494,10.1494,10.1494,10.1523,10.1246,10.1351,10.145,10.1162,10.1424,10.1384,10.0907,10.0503,9.9805,9.8631,9.808,9.7452,9.6599,9.618,9.5939,9.5695,9.4567,9.3455,9.2436,9.0678,8.9431,8.924,8.7499,8.6575,8.6846,8.6577,8.6428,8.6447,8.7177,8.7795,8.8259,8.847,8.8891,8.9556,9.0001,9.028,9.0498,9.0426,9.0603,9.0849,9.0779,9.007,8.9072,8.9072,8.9072,8.9072,8.9072,8.9072,8.9072,8.9072,8.9072,8.9072,8.9072,8.9072,8.9072]},{"header":{"parameterUnit":"m.s-1","parameterCategory":1,"la1":30.6,"la2":28.766,"lo1":-90.7593,"lo2":-88.6598,"dx":0.0162,"dy":0.0183,"nx":116,"ny":114,"refTime":"2023-02-08T18:00:00:Z","depth":0,"parameterNumber":3,"parameterNumberName":"V-component_of_WINDS"},"data":[0.0,0.0,0.0,0.0,0.0,0.0,0.0,0.0,0.0,0.0,0.0,0.0,0.0,0.0,0.0,0.0,0.0,0.0,0.0,0.0,0.0,0.0,0.0,0.0,0.0,0.0,0.0,0.0,0.0,0.0,0.0,0.0,0.0,0.0,0.0,0.0,0.0,0.0,0.0,0.0,0.0,0.0,0.0,0.0,0.0,0.0,0.0,0.0,0.0,0.0,0.0,0.0,0.0,0.0,0.0,0.0,0.0,0.0,0.0,0.0,0.0,0.0,0.0,0.0,0.0,0.0,0.0,0.0,0.0,0.0,0.0,0.0,0.0,0.0,0.0,0.0,0.0,0.0,0.0,0.0,0.0,0.0,0.0,0.0,0.0,0.0,0.0,0.0,0.0,0.0,0.0,0.0,0.0,0.0,0.0,0.0,0.0,0.0,0.0,0.0,0.0,0.0,0.0,0.0,0.0,0.0,0.0,0.0,0.0,0.0,0.0,0.0,0.0,0.0,0.0,0.0,0.0,0.0,0.0,0.0,0.0,0.0,0.0,0.0,0.0,0.0,0.0,0.0,0.0,0.0,0.0,0.0,0.0,0.0,0.0,0.0,0.0,0.0,0.0,0.0,0.0,0.0,0.0,0.0,0.0,0.0,0.0,0.0,0.0,0.0,0.0,0.0,0.0,0.0,0.0,0.0,0.0,0.0,0.0,0.0,0.0,0.0,0.0,0.0,0.0,0.0,0.0,0.0,0.0,0.0,0.0,0.0,0.0,0.0,0.0,0.0,0.0,0.0,0.0,0.0,0.0,0.0,0.0,0.0,0.0,0.0,0.0,0.0,0.0,0.0,0.0,0.0,0.0,0.0,0.0,0.0,0.0,0.0,0.0,0.0,0.0,0.0,0.0,0.0,0.0,0.0,0.0,0.0,0.0,0.0,0.0,0.0,0.0,0.0,0.0,0.0,0.0,0.0,0.0,0.0,0.0,0.0,0.0,0.0,0.0,0.0,0.0,0.0,0.0,0.0,0.0,0.0,0.0,0.0,0.0,0.0,0.0,0.0,0.0,0.0,0.0,0.0,0.0,0.0,0.0,0.0,0.0,0.0,0.0,0.0,0.0,0.0,0.0,0.0,0.0,0.0,0.0,0.0,0.0,0.0,0.0,0.0,0.0,0.0,0.0,0.0,0.0,0.0,0.0,0.0,0.0,0.0,0.0,0.0,0.0,0.0,0.0,0.0,0.0,0.0,0.0,0.0,0.0,0.0,0.0,0.0,0.0,0.0,0.0,0.0,0.0,0.0,0.0,0.0,0.0,0.0,0.0,0.0,0.0,0.0,0.0,0.0,0.0,0.0,0.0,0.0,0.0,0.0,0.0,0.0,0.0,0.0,0.0,0.0,0.0,0.0,0.0,0.0,0.0,0.0,0.0,0.0,0.0,0.0,0.0,0.0,0.0,0.0,0.0,0.0,0.0,0.0,0.0,0.0,0.0,0.0,0.0,0.0,0.0,0.0,0.0,0.0,0.0,0.0,0.0,0.0,0.0,0.0,0.0,0.0,0.0,0.0,0.0,0.0,0.0,0.0,0.0,0.0,0.0,0.0,0.0,0.0,0.0,0.0,0.0,0.0,0.0,0.0,0.0,0.0,0.0,0.0,0.0,0.0,0.0,0.0,0.0,0.0,0.0,0.0,0.0,0.0,0.0,0.0,0.0,0.0,0.0,0.0,0.0,0.0,0.0,0.0,0.0,0.0,0.0,0.0,0.0,0.0,0.0,0.0,0.0,0.0,0.0,0.0,0.0,0.0,0.0,0.0,0.0,0.0,0.0,0.0,0.0,0.0,0.0,0.0,0.0,0.0,0.0,0.0,0.0,0.0,0.0,0.0,0.0,0.0,0.0,0.0,0.0,0.0,0.0,0.0,0.0,0.0,0.0,0.0,0.0,0.0,0.0,0.0,0.0,0.0,0.0,0.0,0.0,0.0,0.0,0.0,0.0,0.0,0.0,0.0,0.0,0.0,0.0,0.0,0.0,0.0,0.0,0.0,0.0,0.0,0.0,0.0,0.0,0.0,0.0,0.0,0.0,0.0,0.0,0.0,0.0,0.0,0.0,0.0,0.0,0.0,0.0,0.0,0.0,0.0,0.0,0.0,0.0,0.0,0.0,0.0,0.0,0.0,0.0,0.0,0.0,0.0,0.0,0.0,0.0,0.0,0.0,0.0,0.0,0.0,0.0,0.0,0.0,0.0,0.0,0.0,0.0,0.0,0.0,0.0,0.0,0.0,0.0,0.0,0.0,0.0,0.0,0.0,0.0,0.0,0.0,0.0,0.0,0.0,0.0,0.0,0.0,0.0,0.0,0.0,0.0,0.0,0.0,0.0,0.0,0.0,0.0,0.0,0.0,0.0,0.0,0.0,0.0,0.0,0.0,0.0,0.0,0.0,0.0,0.0,0.0,0.0,0.0,0.0,0.0,0.0,0.0,0.0,0.0,0.0,0.0,0.0,0.0,0.0,0.0,0.0,0.0,0.0,0.0,0.0,0.0,0.0,0.0,0.0,0.0,0.0,0.0,0.0,0.0,0.0,0.0,0.0,0.0,0.0,0.0,0.0,0.0,0.0,0.0,0.0,0.0,0.0,0.0,0.0,0.0,0.0,0.0,0.0,0.0,0.0,0.0,0.0,0.0,0.0,0.0,0.0,0.0,0.0,0.0,0.0,0.0,0.0,0.0,0.0,0.0,0.0,0.0,0.0,0.0,0.0,0.0,0.0,0.0,0.0,0.0,0.0,0.0,0.0,0.0,0.0,0.0,0.0,0.0,0.0,0.0,0.0,0.0,0.0,0.0,0.0,0.0,0.0,0.0,0.0,0.0,0.0,0.0,0.0,0.0,0.0,0.0,0.0,0.0,0.0,0.0,0.0,0.0,0.0,0.0,0.0,0.0,0.0,0.0,0.0,0.0,0.0,0.0,0.0,0.0,0.0,0.0,0.0,0.0,0.0,0.0,0.0,0.0,0.0,0.0,0.0,0.0,0.0,0.0,0.0,0.0,0.0,0.0,0.0,0.0,0.0,0.0,0.0,0.0,0.0,0.0,0.0,0.0,0.0,0.0,0.0,0.0,0.0,0.0,0.0,0.0,0.0,0.0,0.0,0.0,0.0,0.0,0.0,0.0,0.0,0.0,0.0,0.0,0.0,0.0,0.0,0.0,0.0,0.0,0.0,0.0,0.0,0.0,0.0,0.0,0.0,0.0,0.0,0.0,0.0,0.0,0.0,0.0,0.0,0.0,0.0,0.0,0.0,0.0,0.0,0.0,0.0,0.0,0.0,0.0,0.0,0.0,0.0,0.0,0.0,0.0,0.0,0.0,0.0,0.0,0.0,0.0,0.0,0.0,0.0,0.0,0.0,0.0,0.0,0.0,0.0,0.0,0.0,0.0,0.0,0.0,0.0,0.0,0.0,0.0,0.0,0.0,0.0,0.0,0.0,0.0,0.0,0.0,0.0,0.0,0.0,0.0,0.0,0.0,0.0,0.0,0.0,0.0,0.0,0.0,0.0,0.0,0.0,0.0,0.0,0.0,0.0,0.0,0.0,0.0,0.0,0.0,0.0,0.0,0.0,0.0,0.0,0.0,0.0,0.0,0.0,0.0,0.0,0.0,0.0,0.0,0.0,0.0,0.0,0.0,0.0,0.0,0.0,0.0,0.0,0.0,0.0,0.0,0.0,0.0,0.0,0.0,0.0,0.0,0.0,0.0,0.0,0.0,0.0,0.0,0.0,0.0,0.0,0.0,0.0,0.0,0.0,0.0,0.0,0.0,0.0,0.0,0.0,0.0,0.0,0.0,0.0,0.0,0.0,0.0,0.0,0.0,0.0,0.0,0.0,0.0,0.0,0.0,0.0,0.0,0.0,0.0,0.0,0.0,0.0,0.0,0.0,0.0,0.0,0.0,0.0,0.0,0.0,0.0,0.0,0.0,0.0,0.0,0.0,0.0,0.0,0.0,0.0,0.0,0.0,0.0,0.0,0.0,0.0,0.0,0.0,0.0,0.0,0.0,0.0,0.0,0.0,0.0,0.0,0.0,0.0,0.0,0.0,0.0,0.0,0.0,0.0,0.0,0.0,0.0,0.0,0.0,0.0,0.0,0.0,0.0,0.0,0.0,0.0,0.0,0.0,0.0,0.0,0.0,0.0,0.0,0.0,0.0,0.0,0.0,0.0,0.0,0.0,0.0,0.0,0.0,0.0,0.0,0.0,0.0,0.0,0.0,0.0,0.0,0.0,0.0,0.0,0.0,0.0,0.0,0.0,0.0,0.0,0.0,0.0,0.0,0.0,0.0,0.0,0.0,0.0,0.0,0.0,0.0,0.0,0.0,0.0,0.0,0.0,0.0,0.0,0.0,0.0,0.0,0.0,0.0,0.0,0.0,0.0,0.0,0.0,0.0,0.0,0.0,0.0,0.0,0.0,0.0,0.0,0.0,0.0,0.0,0.0,0.0,0.0,0.0,0.0,0.0,0.0,0.0,0.0,0.0,0.0,0.0,0.0,0.0,0.0,0.0,0.0,0.0,0.0,0.0,0.0,0.0,0.0,0.0,0.0,0.0,0.0,0.0,0.0,0.0,0.0,0.0,0.0,0.0,0.0,0.0,0.0,0.0,0.0,0.0,0.0,0.0,0.0,0.0,0.0,0.0,0.0,0.0,0.0,0.0,0.0,0.0,0.0,0.0,0.0,0.0,0.0,0.0,0.0,0.0,0.0,0.0,0.0,0.0,0.0,0.0,0.0,0.0,0.0,0.0,0.0,0.0,0.0,0.0,0.0,0.0,0.0,0.0,0.0,0.0,0.0,0.0,0.0,0.0,0.0,0.0,0.0,0.0,0.0,0.0,0.0,0.0,0.0,0.0,0.0,0.0,0.0,0.0,0.0,0.0,0.0,0.0,0.0,0.0,0.0,0.0,0.0,0.0,0.0,0.0,0.0,0.0,0.0,0.0,0.0,0.0,0.0,0.0,0.0,0.0,0.0,0.0,0.0,0.0,0.0,0.0,0.0,0.0,0.0,0.0,0.0,0.0,0.0,0.0,0.0,0.0,0.0,0.0,0.0,0.0,0.0,0.0,0.0,0.0,0.0,0.0,0.0,0.0,0.0,0.0,0.0,0.0,0.0,0.0,0.0,0.0,0.0,0.0,0.0,0.0,0.0,0.0,0.0,0.0,0.0,0.0,0.0,0.0,0.0,0.0,0.0,0.0,0.0,0.0,0.0,0.0,0.0,0.0,0.0,0.0,0.0,0.0,0.0,0.0,0.0,0.0,0.0,0.0,0.0,0.0,0.0,0.0,0.0,0.0,0.0,0.0,0.0,0.0,0.0,0.0,0.0,0.0,0.0,0.0,0.0,0.0,0.0,0.0,0.0,0.0,0.0,0.0,0.0,0.0,0.0,0.0,0.0,0.0,0.0,0.0,0.0,0.0,0.0,0.0,0.0,0.0,0.0,0.0,0.0,0.0,0.0,0.0,0.0,0.0,0.0,0.0,0.0,0.0,0.0,0.0,0.0,0.0,0.0,0.0,0.0,0.0,0.0,0.0,0.0,0.0,0.0,0.0,0.0,0.0,0.0,0.0,0.0,0.0,0.0,0.0,0.0,0.0,0.0,0.0,0.0,0.0,0.0,0.0,0.0,0.0,0.0,0.0,0.0,0.0,0.0,0.0,0.0,0.0,0.0,0.0,0.0,0.0,0.0,0.0,0.0,0.0,0.0,0.0,0.0,0.0,0.0,0.0,0.0,0.0,0.0,0.0,0.0,0.0,0.0,0.0,0.0,0.0,0.0,0.0,0.0,0.0,0.0,0.0,0.0,0.0,0.0,0.0,0.0,0.0,0.0,0.0,0.0,0.0,0.0,0.0,0.0,0.0,0.0,0.0,0.0,0.0,0.0,0.0,0.0,0.0,0.0,0.0,0.0,0.0,0.0,0.0,0.0,0.0,0.0,0.0,0.0,0.0,0.0,0.0,0.0,0.0,0.0,0.0,0.0,0.0,0.0,0.0,0.0,0.0,0.0,0.0,0.0,0.0,0.0,0.0,0.0,0.0,0.0,0.0,0.0,0.0,0.0,-2.998,0.0,0.0,0.0,0.0,0.0,0.0,0.0,0.0,0.0,0.0,0.0,0.0,0.0,0.0,0.0,0.0,0.0,0.0,0.0,0.0,0.0,0.0,0.0,0.0,0.0,0.0,0.0,0.0,0.0,0.0,0.0,0.0,0.0,0.0,0.0,0.0,0.0,0.0,0.0,0.0,0.0,0.0,0.0,0.0,0.0,0.0,0.0,0.0,0.0,0.0,0.0,0.0,0.0,0.0,0.0,0.0,0.0,0.0,0.0,0.0,0.0,0.0,0.0,0.0,0.0,0.0,0.0,0.0,0.0,0.0,0.0,0.0,0.0,0.0,0.0,0.0,0.0,0.0,0.0,0.0,0.0,0.0,0.0,0.0,0.0,0.0,0.0,0.0,0.0,0.0,0.0,0.0,0.0,0.0,0.0,0.0,0.0,0.0,0.0,0.0,0.0,0.0,0.0,0.0,0.0,0.0,0.0,0.0,0.0,0.0,0.0,0.0,0.0,0.0,0.0,0.0,-3.0625,0.0,0.0,0.0,0.0,0.0,0.0,0.0,0.0,0.0,0.0,0.0,0.0,0.0,0.0,0.0,0.0,0.0,0.0,0.0,0.0,0.0,0.0,0.0,0.0,0.0,0.0,0.0,0.0,0.0,0.0,0.0,0.0,0.0,0.0,0.0,0.0,0.0,0.0,0.0,0.0,0.0,0.0,0.0,0.0,0.0,0.0,0.0,0.0,0.0,0.0,0.0,0.0,0.0,0.0,0.0,0.0,0.0,0.0,0.0,0.0,0.0,0.0,0.0,0.0,0.0,0.0,0.0,0.0,0.0,0.0,0.0,0.0,0.0,0.0,0.0,0.0,0.0,0.0,0.0,0.0,0.0,0.0,0.0,0.0,0.0,0.0,0.0,0.0,0.0,0.0,0.0,0.0,0.0,0.0,0.0,0.0,0.0,0.0,0.0,0.0,0.0,0.0,0.0,0.0,0.0,0.0,0.0,0.0,0.0,-3.457,-3.5254,-3.5332,-3.5781,-3.6328,-3.3828,-3.2539,-3.2129,0.0,0.0,0.0,0.0,0.0,0.0,0.0,0.0,0.0,0.0,0.0,0.0,0.0,0.0,0.0,0.0,0.0,0.0,0.0,0.0,0.0,0.0,0.0,0.0,0.0,0.0,0.0,0.0,0.0,0.0,0.0,0.0,0.0,0.0,0.0,0.0,0.0,0.0,0.0,0.0,0.0,0.0,0.0,0.0,0.0,0.0,0.0,0.0,0.0,0.0,0.0,0.0,0.0,0.0,0.0,0.0,0.0,0.0,0.0,0.0,0.0,0.0,0.0,0.0,0.0,0.0,0.0,0.0,0.0,0.0,0.0,0.0,0.0,0.0,0.0,0.0,0.0,0.0,0.0,0.0,0.0,0.0,0.0,0.0,0.0,0.0,0.0,-3.0644,-3.0703,0.0,0.0,0.0,0.0,0.0,0.0,0.0,0.0,0.0,0.0,0.0,0.0,0.0,0.0,-3.373,-3.4863,-3.5488,-3.5605,-3.6777,-3.7383,-3.75,-3.7891,-3.8125,-3.8223,-3.7812,0.0,-3.4824,-3.3926,0.0,0.0,0.0,0.0,0.0,0.0,0.0,0.0,0.0,0.0,0.0,0.0,0.0,0.0,0.0,0.0,0.0,0.0,0.0,0.0,0.0,0.0,0.0,0.0,0.0,0.0,0.0,0.0,0.0,0.0,0.0,0.0,0.0,0.0,0.0,0.0,0.0,0.0,0.0,0.0,0.0,0.0,0.0,0.0,0.0,0.0,0.0,0.0,0.0,0.0,0.0,0.0,0.0,0.0,0.0,0.0,0.0,0.0,0.0,0.0,0.0,0.0,0.0,0.0,0.0,0.0,0.0,0.0,0.0,0.0,0.0,0.0,0.0,0.0,0.0,0.0,0.0,0.0,0.0,0.0,0.0,0.0,0.0,0.0,0.0,-3.041,-3.0976,-3.0234,-3.0449,-3.0176,0.0,0.0,0.0,0.0,0.0,0.0,0.0,0.0,0.0,-3.4922,-3.5156,-3.5684,-3.6601,-3.7402,-3.8301,-3.9277,-4.0078,-4.0957,-4.1914,-4.2109,-4.2207,-4.2168,-4.168,-4.0664,-3.9121,-3.6074,-3.4219,-3.3164,0.0,0.0,0.0,0.0,0.0,-3.2441,0.0,0.0,0.0,0.0,0.0,0.0,0.0,0.0,0.0,0.0,0.0,0.0,0.0,0.0,0.0,0.0,0.0,0.0,0.0,0.0,0.0,0.0,0.0,0.0,0.0,0.0,0.0,0.0,0.0,0.0,0.0,0.0,0.0,0.0,0.0,0.0,0.0,0.0,0.0,0.0,0.0,0.0,0.0,0.0,0.0,0.0,0.0,0.0,0.0,0.0,0.0,0.0,0.0,0.0,0.0,0.0,0.0,0.0,0.0,0.0,0.0,0.0,0.0,0.0,0.0,0.0,0.0,0.0,0.0,0.0,0.0,0.0,0.0,0.0,0.0,0.0,0.0,-3.1074,-3.1641,-3.0234,-3.1406,-3.1523,0.0,0.0,0.0,0.0,0.0,0.0,-3.4512,-3.4687,-3.5781,-3.8066,-3.8359,-3.8984,-4.0059,-4.0488,-4.1348,-4.2637,-4.3047,-4.3945,-4.5195,-4.5195,-4.5254,-4.5312,-4.4414,-4.3613,-4.2598,-3.832,-3.6133,-3.5371,-3.3906,-3.3262,-3.3223,-3.375,-3.4141,-3.4531,0.0,0.0,0.0,0.0,0.0,0.0,0.0,0.0,0.0,0.0,0.0,0.0,0.0,0.0,0.0,0.0,0.0,0.0,0.0,0.0,0.0,0.0,0.0,0.0,0.0,0.0,0.0,0.0,0.0,0.0,0.0,0.0,0.0,0.0,0.0,0.0,0.0,0.0,0.0,0.0,0.0,0.0,0.0,0.0,0.0,0.0,0.0,0.0,0.0,0.0,0.0,0.0,0.0,0.0,0.0,0.0,0.0,0.0,0.0,0.0,0.0,0.0,0.0,0.0,0.0,0.0,0.0,0.0,0.0,0.0,0.0,0.0,0.0,0.0,0.0,0.0,0.0,0.0,0.0,-3.1621,-3.3262,0.0,0.0,0.0,0.0,-3.3223,-3.3711,-3.5059,-3.7559,-3.8086,-3.9492,-4.2051,-4.293,-4.3594,-4.4101,-4.4512,-4.4785,-4.4863,-4.5312,-4.5566,-4.5644,-4.5644,-4.5859,-4.6191,-4.5332,-4.4707,-4.4062,-4.0957,-3.8926,-3.7676,-3.6797,-3.6191,-3.5937,-3.6758,-3.709,-3.7226,0.0,0.0,0.0,0.0,0.0,0.0,0.0,0.0,0.0,0.0,0.0,0.0,0.0,0.0,0.0,0.0,0.0,0.0,0.0,0.0,0.0,0.0,0.0,0.0,0.0,0.0,0.0,0.0,0.0,0.0,0.0,0.0,0.0,0.0,0.0,0.0,0.0,0.0,0.0,0.0,0.0,0.0,0.0,0.0,0.0,0.0,0.0,0.0,0.0,0.0,0.0,0.0,0.0,0.0,0.0,0.0,0.0,0.0,0.0,0.0,0.0,0.0,0.0,0.0,0.0,0.0,0.0,0.0,0.0,0.0,0.0,0.0,0.0,0.0,0.0,0.0,0.0,0.0,0.0,-3.418,-3.6406,0.0,0.0,-3.5781,-3.6582,-3.6738,-3.793,-3.9512,-4.1543,-4.1543,-4.2539,-4.4844,-4.5215,-4.5723,-4.6445,-4.6601,-4.6797,-4.707,-4.7226,-4.7461,-4.7715,-4.7715,-4.7812,-4.7891,-4.7031,-4.6426,-4.5879,-4.3984,-4.1777,-3.9512,-3.8633,-3.8047,-3.7695,-3.8008,-3.8301,-3.8574,0.0,0.0,0.0,0.0,0.0,0.0,0.0,0.0,0.0,0.0,0.0,0.0,0.0,0.0,0.0,0.0,0.0,0.0,0.0,0.0,0.0,0.0,0.0,0.0,0.0,0.0,0.0,0.0,0.0,0.0,0.0,0.0,0.0,0.0,0.0,0.0,0.0,0.0,0.0,0.0,0.0,0.0,-3.2598,0.0,0.0,0.0,0.0,0.0,0.0,0.0,0.0,0.0,0.0,0.0,0.0,0.0,0.0,0.0,0.0,0.0,0.0,0.0,0.0,0.0,0.0,0.0,0.0,0.0,0.0,0.0,0.0,0.0,0.0,0.0,0.0,0.0,0.0,0.0,-3.7519,-3.6387,-3.916,-4.0273,-3.7988,-3.9297,-4.0312,-4.0312,-4.1797,-4.3301,-4.4726,-4.4805,-4.5527,-4.7109,-4.7305,-4.7598,-4.8008,-4.8008,-4.8223,-4.8652,-4.8496,-4.8652,-4.9082,-4.8769,-4.8711,-4.8808,-4.8105,-4.7461,-4.6855,-4.6016,-4.4238,-4.1933,-4.0918,-4.0332,-4.0078,-3.9922,-3.9961,-4.0059,0.0,0.0,0.0,0.0,0.0,0.0,0.0,0.0,0.0,0.0,0.0,0.0,0.0,0.0,0.0,0.0,0.0,0.0,0.0,0.0,0.0,0.0,0.0,0.0,0.0,0.0,0.0,0.0,0.0,0.0,0.0,0.0,0.0,0.0,0.0,0.0,0.0,0.0,0.0,0.0,0.0,0.0,-3.6328,0.0,0.0,0.0,0.0,0.0,0.0,0.0,0.0,0.0,0.0,0.0,0.0,0.0,0.0,0.0,0.0,0.0,0.0,0.0,0.0,0.0,0.0,0.0,0.0,0.0,0.0,0.0,0.0,0.0,0.0,0.0,0.0,0.0,-3.4355,-3.7187,-3.9062,-3.8281,-4.1523,-4.3183,-4.1523,-4.2851,-4.3808,-4.3828,-4.5019,-4.6113,-4.6973,-4.7773,-4.8418,-4.8887,-4.9316,-4.9336,-4.8926,-4.8926,-4.9121,-4.9531,-4.9082,-4.9101,-4.9492,-4.8633,-4.8476,-4.8848,-4.8418,-4.7754,-4.6973,-4.6953,-4.6211,-4.4961,-4.3613,-4.3105,-4.3047,-4.2598,-4.2168,-4.1758,0.0,0.0,0.0,0.0,0.0,0.0,0.0,0.0,0.0,0.0,0.0,0.0,0.0,0.0,0.0,0.0,0.0,0.0,0.0,0.0,0.0,0.0,0.0,0.0,0.0,0.0,0.0,0.0,0.0,0.0,0.0,0.0,0.0,0.0,0.0,0.0,0.0,0.0,0.0,0.0,0.0,0.0,-3.8184,0.0,0.0,0.0,0.0,0.0,0.0,0.0,0.0,0.0,0.0,0.0,0.0,0.0,0.0,0.0,0.0,0.0,0.0,0.0,0.0,0.0,0.0,0.0,0.0,0.0,0.0,0.0,0.0,0.0,0.0,0.0,0.0,-3.8066,-3.7832,-4.0488,-4.2851,-4.3867,-4.5488,-4.6211,-4.543,-4.5762,-4.6172,-4.6484,-4.6855,-4.7578,-4.875,-4.8437,-4.8691,-4.9785,-4.9941,-5.0078,-5.0273,-5.0273,-5.0019,-4.9531,-4.9414,-4.9414,-4.9512,-4.8945,-4.8926,-4.9316,-4.8867,-4.8359,-4.7832,-4.7519,-4.7012,-4.6211,-4.4277,-4.3535,-4.3437,-4.2695,-4.2344,-4.2187,0.0,0.0,0.0,0.0,0.0,0.0,0.0,0.0,0.0,0.0,0.0,0.0,0.0,0.0,0.0,0.0,0.0,0.0,0.0,0.0,0.0,0.0,0.0,0.0,0.0,0.0,0.0,0.0,0.0,0.0,0.0,0.0,0.0,0.0,0.0,0.0,0.0,0.0,0.0,0.0,0.0,0.0,-4.1836,-3.873,-3.707,-3.6211,-3.4824,-3.416,-3.373,-3.2305,0.0,0.0,0.0,0.0,0.0,0.0,0.0,0.0,0.0,0.0,0.0,0.0,0.0,0.0,0.0,0.0,0.0,0.0,0.0,0.0,0.0,0.0,0.0,0.0,-3.9531,-4.1465,-4.2558,-4.3906,-4.543,-4.7168,-4.7988,-4.8379,-4.8301,-4.8457,-4.8594,-4.8672,-4.9004,-4.9453,-5.0039,-4.9746,-4.9824,-5.043,-5.0273,-5.0293,-5.0547,-5.0351,-5.0195,-5.0058,-4.9707,-4.9629,-4.9785,-4.9141,-4.9004,0.0,-4.8965,-4.8613,-4.8183,-4.7949,-4.7695,0.0,0.0,0.0,0.0,0.0,-4.2851,-4.2637,0.0,0.0,0.0,0.0,0.0,0.0,0.0,0.0,0.0,0.0,0.0,0.0,0.0,0.0,0.0,0.0,0.0,0.0,0.0,0.0,0.0,0.0,0.0,0.0,0.0,0.0,0.0,0.0,0.0,0.0,0.0,0.0,0.0,0.0,0.0,0.0,0.0,0.0,0.0,0.0,0.0,-4.8906,-4.6191,-4.25,-4.1035,-4.0684,-3.8613,-3.6914,-3.5547,-3.4941,0.0,0.0,0.0,0.0,0.0,0.0,0.0,0.0,0.0,0.0,0.0,0.0,0.0,0.0,0.0,0.0,0.0,0.0,0.0,0.0,0.0,0.0,0.0,0.0,-4.2695,-4.5039,-4.7578,-4.7285,-4.7383,-4.8887,-4.9433,-4.9844,-5.0273,-5.0605,-5.0664,-5.0351,-5.0957,-5.123,-5.0898,0.0,0.0,0.0,0.0,-5.0312,-5.0312,-4.998,-5.0176,-5.0859,-5.0098,-4.9941,-5.0293,-4.9453,-4.9043,-4.9004,-4.8945,-4.8691,-4.8281,-4.8223,-4.8144,-4.791,-4.6406,-4.5723,-4.5469,-4.4297,-4.3613,-4.3223,0.0,0.0,0.0,0.0,0.0,0.0,0.0,0.0,0.0,0.0,0.0,0.0,0.0,0.0,0.0,0.0,0.0,0.0,0.0,0.0,0.0,0.0,0.0,0.0,0.0,0.0,0.0,0.0,0.0,0.0,0.0,0.0,0.0,0.0,0.0,0.0,0.0,0.0,0.0,0.0,0.0,-5.0664,-4.8086,-4.5625,-4.4258,-4.3457,-4.1973,-4.1445,-4.1191,-3.9375,-3.8887,-3.8594,-3.6074,0.0,0.0,0.0,0.0,0.0,0.0,0.0,0.0,0.0,0.0,0.0,0.0,0.0,0.0,0.0,0.0,0.0,0.0,0.0,0.0,-4.2246,-4.498,-4.7617,-4.9863,-5.0039,-5.0058,-5.0391,-5.0508,-5.0723,-5.1152,-5.0957,-5.0918,-5.1172,-5.1035,-5.1035,-5.1289,-5.0742,0.0,-5.1289,-5.123,-5.1191,-5.1191,-5.1445,-5.1484,-5.1308,0.0,0.0,-5.1172,-5.0664,-5.0254,-4.9902,-4.9551,-4.9141,-4.8711,-4.8359,-4.7793,-4.7148,-4.6816,-4.6055,-4.5117,-4.4863,-4.4707,-4.4531,0.0,0.0,0.0,0.0,0.0,0.0,0.0,0.0,0.0,0.0,0.0,0.0,0.0,0.0,0.0,0.0,0.0,0.0,0.0,0.0,0.0,0.0,0.0,0.0,0.0,0.0,0.0,0.0,0.0,0.0,0.0,0.0,0.0,0.0,0.0,0.0,0.0,0.0,0.0,0.0,-5.4453,-5.2988,-5.1191,-4.8828,-4.7539,-4.6816,-4.5723,-4.4902,-4.418,-4.2891,-4.2168,-4.1504,-3.9766,-3.8184,-3.666,0.0,0.0,0.0,0.0,0.0,0.0,0.0,0.0,0.0,0.0,0.0,0.0,0.0,0.0,-3.7051,0.0,0.0,-4.2891,-4.5254,-4.7461,-4.9473,-5.1211,-5.1621,-5.1758,-5.1758,-5.1582,-5.1601,-5.2031,-5.1875,-5.1836,-5.2051,-5.168,-5.1621,-5.2051,-5.1269,-5.1191,-5.2051,-5.166,-5.1641,-5.207,-5.207,-5.207,-5.207,-5.1855,-5.1758,-5.1719,-5.0879,-5.0371,-5.0137,-4.9473,-4.9062,-4.8848,-4.8613,-4.8144,-4.7558,-4.7558,-4.666,-4.5351,-4.5351,-4.5215,-4.4961,0.0,0.0,0.0,0.0,0.0,0.0,0.0,0.0,0.0,0.0,0.0,0.0,0.0,0.0,0.0,0.0,0.0,0.0,0.0,0.0,0.0,0.0,0.0,0.0,0.0,0.0,0.0,0.0,0.0,0.0,0.0,0.0,0.0,0.0,0.0,0.0,0.0,0.0,0.0,-5.6758,-5.5996,-5.5215,-5.4277,-5.1933,-5.0566,-4.9785,-4.8906,-4.7441,-4.5898,-4.5703,-4.4726,-4.3535,-4.3262,-4.1875,-3.998,-3.8184,-3.707,0.0,0.0,0.0,0.0,0.0,0.0,0.0,0.0,0.0,-3.5625,-3.709,-3.8418,-3.9863,-4.1719,-4.3496,-4.5566,-4.8164,-4.9687,-5.0957,-5.2168,-5.2617,-5.2871,-5.2949,-5.2519,-5.2363,-5.2793,-5.2832,-5.2832,-5.2832,-5.2519,-5.248,-5.2812,-5.209,-5.2031,-5.2812,-5.2168,-5.2129,-5.2832,-5.2578,-5.2637,-5.2969,-5.2617,-5.2363,-5.2168,-5.1055,-5.041,-5.0137,-4.9238,-4.8867,-4.8867,-4.8867,-4.8594,-4.8203,-4.8203,-4.7324,-4.6035,-4.5957,-4.5644,-4.5254,0.0,0.0,0.0,0.0,0.0,0.0,0.0,0.0,0.0,0.0,0.0,0.0,0.0,0.0,0.0,0.0,0.0,0.0,0.0,0.0,0.0,0.0,0.0,0.0,0.0,0.0,0.0,0.0,0.0,0.0,0.0,0.0,0.0,0.0,0.0,0.0,0.0,0.0,-5.6973,-5.7676,-5.7187,-5.6719,-5.6152,-5.4726,-5.2949,-5.1113,-5.0254,-4.8594,-4.6894,-4.7617,-4.6758,-4.5449,-4.5762,-4.5176,-4.3672,-4.0039,0.0,-3.6973,-3.3633,-3.3144,0.0,-3.4336,-3.4824,-3.5879,0.0,0.0,-3.9824,-4.1875,-4.332,-4.4414,-4.5058,-4.6875,-4.8652,-4.9785,-5.1035,-5.2187,-5.3086,-5.3262,-5.3437,-5.3828,-5.3144,-5.2812,-5.3242,-5.3281,-5.3281,-5.3281,-5.3242,-5.3242,-5.3281,-5.2832,-5.2793,-5.3281,-5.3203,-5.3183,-5.3281,-5.3633,-5.3828,-5.3887,-5.3828,-5.3398,-5.2617,-5.2109,-5.125,-5.0137,-4.9238,-4.8867,-4.8867,-4.8867,-4.8594,-4.8203,-4.8203,-4.7871,-4.7324,-4.6933,-4.6523,-4.6113,0.0,0.0,0.0,0.0,0.0,0.0,0.0,0.0,0.0,0.0,0.0,0.0,0.0,0.0,0.0,0.0,0.0,0.0,0.0,0.0,0.0,0.0,0.0,0.0,0.0,0.0,0.0,0.0,0.0,0.0,0.0,0.0,0.0,0.0,0.0,0.0,0.0,-5.7402,-5.7695,-5.8203,-5.7793,-5.7324,-5.6816,-5.5527,-5.3535,-5.1211,-4.9609,-4.7656,0.0,0.0,-4.5332,-4.4726,-4.5937,-4.5019,-4.3105,-4.0976,-3.9023,0.0,-3.5801,0.0,0.0,0.0,-3.7851,-3.8906,-4.0918,-4.1758,-4.2578,-4.4258,-4.6016,-4.7383,-4.7832,-4.9453,-5.0937,0.0,-5.2539,-5.334,-5.3691,-5.375,-5.3535,-5.2969,-5.2558,-5.2715,-5.3652,-5.375,-5.375,-5.375,-5.3496,-5.3476,-5.373,-5.3086,-5.3144,-5.4101,-5.3633,-5.373,-5.4492,-5.4433,-5.4414,-5.4414,-5.4414,-5.3945,-5.3066,-5.2637,-5.1621,-5.0137,-4.9512,-4.9101,-4.8867,-4.8867,-4.875,-4.8594,-4.8594,-4.8164,-4.7519,-4.709,-4.6816,-4.6601,0.0,0.0,0.0,0.0,0.0,0.0,0.0,0.0,0.0,0.0,0.0,0.0,0.0,0.0,0.0,0.0,0.0,0.0,0.0,0.0,0.0,0.0,0.0,0.0,0.0,0.0,0.0,0.0,0.0,0.0,0.0,0.0,0.0,0.0,0.0,0.0,-5.8027,-5.8027,-5.832,-5.8711,-5.8379,-5.7734,-5.6875,-5.5351,-5.2871,-4.998,-4.8281,-4.6074,0.0,0.0,-4.2871,-4.2598,-4.4336,-4.3594,-4.1836,-4.0625,-3.8516,-3.666,-3.7031,0.0,0.0,-3.9492,-4.0859,-4.209,-4.3379,-4.4336,-4.5312,-4.6641,-4.8242,-4.9531,-4.998,-5.125,0.0,-5.2656,-5.3457,-5.3984,-5.3867,-5.373,-5.3223,-5.2051,-5.1797,-5.2148,-5.3203,-5.3535,-5.3769,-5.4004,-5.373,-5.373,-5.418,-5.3594,-5.3691,-5.4648,-5.418,-5.4297,-5.5117,-5.4941,-5.4805,-5.4687,-5.4687,-5.416,-5.3164,-5.248,-5.1387,-4.998,-4.9668,-4.9277,-4.8867,-4.8867,-4.8867,-4.8867,-4.8867,-4.8476,-4.7871,-4.7441,-4.7051,-4.6719,0.0,0.0,0.0,0.0,0.0,0.0,0.0,0.0,0.0,0.0,0.0,0.0,0.0,0.0,0.0,0.0,0.0,0.0,0.0,0.0,0.0,0.0,0.0,0.0,0.0,0.0,0.0,0.0,0.0,0.0,0.0,0.0,0.0,0.0,0.0,-5.8535,-5.8535,-5.8535,-5.8769,-5.918,-5.914,-5.8144,-5.6367,-5.4238,-5.0781,-4.7012,-4.6523,0.0,0.0,0.0,-3.9785,-3.9043,-4.0781,-4.1269,0.0,-3.8652,-3.6484,0.0,0.0,0.0,-3.9551,-4.1289,-4.332,-4.5215,-4.6504,-4.7461,-4.8437,-4.9766,-5.041,-5.0879,-5.1289,-5.209,-5.2695,-5.2715,-5.3457,-5.3887,-5.3437,-5.3008,-5.2422,-5.1562,-5.1094,-5.1016,0.0,-5.2266,-5.3105,-5.3965,-5.4023,-5.4199,-5.4629,-5.4629,-5.4648,-5.4687,-5.5058,-5.5078,-5.4707,-5.5098,-5.5078,-5.4687,-5.4687,-5.4004,-5.2695,-5.1426,-5.0391,-4.9551,-4.9531,-4.9277,-4.8867,-4.8867,-4.8867,-4.8867,-4.8867,-4.8848,-4.8769,-4.832,-4.7383,-4.6328,0.0,0.0,0.0,0.0,0.0,0.0,0.0,0.0,0.0,0.0,0.0,0.0,0.0,0.0,0.0,0.0,0.0,0.0,0.0,0.0,0.0,0.0,0.0,0.0,0.0,0.0,0.0,0.0,0.0,0.0,0.0,0.0,0.0,0.0,-5.8828,-5.8828,-5.8535,-5.8828,-5.9355,-5.9863,-5.8144,-5.7441,-5.6953,-5.25,-4.8672,-4.5234,0.0,0.0,0.0,0.0,0.0,0.0,-3.8379,0.0,0.0,-3.5488,0.0,0.0,0.0,0.0,-4.3125,-4.5137,-4.6836,-4.8281,-4.9277,-5.0156,-5.082,-5.0976,-5.0683,-5.0254,-4.9805,-5.0195,-5.0781,-5.1348,-5.2656,-5.3633,-5.3789,-5.3672,-5.2734,-5.043,-5.0547,0.0,0.0,0.0,0.0,-5.3496,-5.3867,-5.4219,-5.4648,-5.4941,-5.5215,-5.5508,-5.5117,-5.5234,-5.5937,-5.5254,-5.4961,-5.5078,-5.4219,-5.373,-5.3535,-5.2246,-5.1504,-5.1172,-5.0332,-4.9707,-4.9277,-4.8984,-4.8867,-4.8867,-4.8867,-4.8672,-4.8418,-4.8262,-4.7754,-4.7109,0.0,0.0,0.0,0.0,0.0,0.0,0.0,0.0,0.0,0.0,0.0,0.0,0.0,0.0,0.0,0.0,0.0,0.0,0.0,0.0,0.0,0.0,0.0,0.0,0.0,0.0,0.0,0.0,0.0,0.0,0.0,0.0,0.0,-5.6933,-5.7383,-5.7422,-5.7168,-5.7461,-5.7519,-5.7265,-5.5156,-5.3887,-5.2793,-4.8418,-4.4707,0.0,0.0,0.0,0.0,0.0,0.0,0.0,0.0,0.0,0.0,0.0,0.0,0.0,0.0,-4.3594,-4.6504,-4.8652,-5.0039,-5.1074,-5.1797,-5.2148,-5.2187,-5.1758,-5.0488,-4.9258,-4.8535,-4.8262,-4.8476,-4.9492,-5.0703,-5.1894,-5.2949,-5.2715,-5.1758,-4.998,-4.9961,0.0,0.0,0.0,0.0,-5.3008,-5.3691,-5.4297,-5.4883,-5.5312,-5.5644,-5.5918,-5.5566,-5.5683,-5.6348,-5.5547,-5.5117,-5.5058,-5.3906,-5.3437,-5.3535,-5.2695,-5.1973,-5.1367,-5.0703,-4.998,-4.9258,-4.8984,-4.8867,-4.8867,-4.8867,-4.8691,-4.8437,-4.8437,-4.8164,-4.7715,0.0,0.0,0.0,0.0,0.0,0.0,0.0,0.0,0.0,0.0,0.0,0.0,0.0,0.0,0.0,0.0,0.0,0.0,0.0,0.0,0.0,0.0,0.0,0.0,0.0,0.0,0.0,0.0,0.0,0.0,0.0,0.0,-5.3203,-5.3652,-5.4062,-5.4258,-5.4258,-5.4258,-5.332,-5.1699,-5.0351,-4.7871,-4.4746,-4.2461,0.0,0.0,0.0,0.0,0.0,0.0,0.0,0.0,0.0,0.0,0.0,0.0,0.0,-4.0957,-4.4336,-4.7187,-4.9687,-5.1738,-5.2871,-5.3594,-5.3945,-5.334,-5.2558,-5.2031,-4.9824,-4.7851,0.0,0.0,-4.5996,-4.7305,-4.8027,-4.9199,-5.1367,-5.0625,-4.998,0.0,0.0,0.0,0.0,0.0,0.0,-5.2656,0.0,-5.4394,-5.5332,-5.5762,-5.6015,-5.6035,-5.6406,-5.6426,-5.6035,-5.5976,-5.5508,-5.4629,-5.3789,-5.3183,-5.2773,-5.2734,-5.1836,-5.0332,-5.0644,-5.0078,-4.8926,-4.8867,-4.8867,-4.8867,-4.8867,-4.8867,-4.8867,-4.8867,-4.8594,-4.8125,0.0,0.0,0.0,0.0,0.0,0.0,0.0,0.0,0.0,0.0,0.0,0.0,0.0,0.0,0.0,0.0,0.0,0.0,0.0,0.0,0.0,0.0,0.0,0.0,0.0,0.0,0.0,0.0,0.0,0.0,0.0,0.0,-4.7871,0.0,-4.8379,-4.8437,-4.8437,-4.8437,-4.8359,-4.8047,0.0,-4.4746,-4.4141,0.0,0.0,0.0,0.0,0.0,0.0,0.0,0.0,0.0,0.0,0.0,-3.7344,0.0,0.0,-4.5215,-4.7695,-5.0957,-5.3789,-5.4355,-5.4883,-5.5058,-5.4219,-5.334,-5.2129,-5.0098,-4.7383,-4.4746,0.0,0.0,0.0,-4.6367,-4.9394,0.0,-5.4473,-5.4512,0.0,0.0,0.0,-5.2383,-5.1504,-5.1719,0.0,0.0,-5.3769,-5.4336,-5.6152,-5.666,-5.7031,-5.7363,-5.7168,-5.7148,-5.7363,-5.6406,-5.5351,-5.4199,-5.3965,-5.3808,-5.3672,-5.3008,-5.248,-5.1992,-5.084,-5.0156,-4.9785,-4.9121,-4.8867,-4.8867,-4.8867,-4.8867,-4.8867,-4.8867,-4.8789,-4.8613,0.0,0.0,0.0,0.0,0.0,0.0,0.0,0.0,0.0,0.0,0.0,0.0,0.0,0.0,0.0,0.0,0.0,0.0,0.0,0.0,0.0,0.0,0.0,0.0,0.0,0.0,0.0,0.0,0.0,0.0,0.0,-4.2539,-4.3066,-4.3496,-4.3691,-4.3769,-4.3769,-4.3769,0.0,0.0,0.0,0.0,0.0,0.0,0.0,0.0,0.0,0.0,0.0,0.0,0.0,-3.6621,-3.7949,-3.9199,-4.0684,-4.3242,0.0,-4.8867,-5.1601,-5.4199,-5.623,-5.6621,-5.6465,-5.5742,-5.3867,-5.248,-5.0644,-4.7285,-4.4668,0.0,0.0,0.0,0.0,0.0,0.0,0.0,-5.4414,-5.4648,-5.4297,0.0,-5.3711,0.0,-5.2715,-5.2851,-5.3535,0.0,-5.4316,-5.4707,-5.6484,-5.6797,-5.7051,-5.7285,-5.7246,-5.7246,-5.7305,-5.6387,-5.539,-5.4316,-5.4316,-5.4121,-5.3711,-5.3223,-5.2676,-5.209,0.0,-5.041,-4.9844,-4.9355,-4.9043,-4.8867,-4.8867,-4.8867,-4.8867,-4.8867,-4.8867,-4.8828,0.0,0.0,0.0,0.0,0.0,0.0,0.0,0.0,0.0,0.0,0.0,0.0,0.0,0.0,0.0,0.0,0.0,0.0,0.0,0.0,0.0,0.0,0.0,0.0,0.0,0.0,0.0,0.0,0.0,0.0,0.0,0.0,0.0,0.0,0.0,0.0,0.0,0.0,0.0,0.0,0.0,0.0,0.0,0.0,0.0,0.0,0.0,0.0,0.0,0.0,-3.8984,-3.9434,-4.0976,-4.2637,-4.459,-4.75,-4.9844,-5.2187,-5.541,-5.6953,-5.7793,-5.8535,-5.7637,-5.5898,-5.3223,-5.1094,-4.8457,-4.416,0.0,-4.0039,-3.8047,0.0,-4.1152,-4.3652,0.0,-4.9726,-5.3359,-5.3496,-5.3555,-5.4433,-5.4141,-5.3887,-5.3945,-5.3906,-5.4394,-5.5644,-5.5234,-5.5449,-5.6601,-5.668,-5.6699,-5.6758,-5.7109,-5.707,-5.6582,-5.6152,-5.5508,-5.4687,-5.4629,-5.4199,-5.3457,-5.3379,-5.2715,-5.1601,0.0,0.0,-4.9687,-4.957,-4.9297,-4.8945,-4.8887,-4.8867,-4.8867,-4.8867,-4.8867,-4.8867,0.0,0.0,0.0,0.0,0.0,0.0,0.0,0.0,0.0,0.0,0.0,0.0,0.0,0.0,0.0,0.0,0.0,0.0,0.0,0.0,0.0,0.0,0.0,0.0,0.0,0.0,0.0,0.0,0.0,0.0,0.0,0.0,0.0,0.0,0.0,0.0,0.0,0.0,0.0,0.0,0.0,0.0,0.0,0.0,0.0,0.0,0.0,0.0,0.0,0.0,-4.1133,-4.2773,-4.5508,-4.7539,-4.9394,-5.168,-5.3633,-5.5488,-5.7519,-5.8945,-5.9805,-5.9629,-5.8086,-5.582,-5.2871,-4.9492,0.0,0.0,0.0,-3.7637,-3.6543,-3.8047,0.0,-4.5156,0.0,0.0,0.0,0.0,-5.623,0.0,0.0,0.0,0.0,0.0,0.0,0.0,0.0,0.0,-5.707,-5.7109,-5.7265,-5.7637,-5.7715,-5.7383,-5.6601,-5.6152,-5.5508,-5.4668,-5.4316,-5.4062,-5.3906,-5.3535,-5.3047,-5.2441,-5.1738,0.0,-5.0527,-4.9824,-4.9492,-4.9375,-4.9004,-4.8867,-4.8867,-4.8867,-4.8867,-4.8867,0.0,0.0,0.0,0.0,0.0,0.0,0.0,0.0,0.0,0.0,0.0,0.0,0.0,0.0,0.0,0.0,0.0,0.0,0.0,0.0,0.0,0.0,0.0,0.0,0.0,0.0,0.0,0.0,0.0,0.0,0.0,0.0,0.0,0.0,0.0,0.0,0.0,0.0,0.0,0.0,0.0,0.0,0.0,0.0,0.0,0.0,0.0,0.0,0.0,0.0,-4.1699,-4.4961,-4.7988,-5.043,-5.2519,-5.4199,-5.5937,-5.7617,-5.9101,-5.998,-6.0371,-6.0195,-5.7851,-5.4629,-5.0918,0.0,0.0,0.0,0.0,-3.6035,-3.5176,0.0,0.0,0.0,0.0,0.0,0.0,0.0,0.0,0.0,0.0,0.0,0.0,0.0,0.0,0.0,0.0,0.0,-5.7539,-5.7129,-5.7285,-5.8183,-5.7558,-5.7207,-5.7246,-5.6601,-5.584,-5.5,-5.4785,-5.4453,-5.4023,-5.3574,-5.3125,-5.2676,-5.2051,0.0,-5.0762,-5.0117,-4.9726,-4.9492,-4.9023,-4.8867,-4.8867,-4.8867,-4.8867,-4.8867,0.0,0.0,0.0,0.0,0.0,0.0,0.0,0.0,0.0,0.0,0.0,0.0,0.0,0.0,0.0,0.0,0.0,0.0,0.0,0.0,0.0,0.0,0.0,0.0,0.0,0.0,0.0,0.0,0.0,0.0,0.0,0.0,0.0,0.0,0.0,0.0,0.0,0.0,0.0,0.0,0.0,0.0,0.0,0.0,0.0,0.0,0.0,0.0,0.0,0.0,-4.125,-4.5078,-4.8008,-5.1348,-5.4336,-5.5137,-5.6933,-5.8945,-6.0098,-6.0488,-6.0547,-6.0332,-5.7324,-5.3281,-4.9043,-4.5137,0.0,0.0,0.0,0.0,0.0,0.0,0.0,0.0,0.0,0.0,0.0,0.0,0.0,0.0,0.0,0.0,0.0,0.0,0.0,0.0,0.0,0.0,0.0,-5.7129,-5.7226,-5.8359,-5.7305,-5.7051,-5.7715,-5.6973,-5.6211,-5.5449,-5.5254,-5.4824,-5.416,-5.3711,-5.3223,-5.2695,-5.2363,0.0,0.0,-5.0488,-5.0058,-4.9629,-4.918,-4.8945,-4.8867,-4.8867,-4.8867,-4.8867,0.0,0.0,0.0,0.0,0.0,0.0,0.0,0.0,0.0,0.0,0.0,0.0,0.0,0.0,0.0,0.0,0.0,0.0,0.0,0.0,0.0,0.0,0.0,0.0,0.0,0.0,0.0,0.0,0.0,0.0,0.0,0.0,0.0,0.0,0.0,0.0,0.0,0.0,0.0,0.0,0.0,0.0,0.0,0.0,0.0,0.0,0.0,0.0,0.0,0.0,0.0,-4.1445,-4.4101,-4.9394,-5.4492,-5.3789,0.0,0.0,-6.0215,-6.0723,-6.0859,-6.0039,-5.664,-5.2461,-4.8535,0.0,0.0,0.0,0.0,0.0,0.0,0.0,0.0,0.0,0.0,0.0,0.0,0.0,0.0,0.0,0.0,0.0,0.0,0.0,0.0,0.0,0.0,0.0,0.0,-5.7422,-5.7383,-5.791,-5.7422,-5.7187,-5.7265,-5.6816,-5.6348,-5.5859,-5.5098,-5.4687,-5.4609,-5.416,-5.3516,-5.2715,-5.2676,0.0,0.0,-5.0918,-5.0488,-5.0078,-4.9629,-4.9219,-4.8867,-4.8867,-4.8867,-4.8867,0.0,0.0,0.0,0.0,0.0,0.0,0.0,0.0,0.0,0.0,0.0,0.0,0.0,0.0,0.0,0.0,0.0,0.0,0.0,0.0,0.0,0.0,0.0,0.0,0.0,0.0,0.0,0.0,0.0,0.0,0.0,0.0,0.0,0.0,0.0,0.0,0.0,0.0,0.0,0.0,0.0,0.0,0.0,0.0,0.0,0.0,0.0,0.0,0.0,0.0,0.0,0.0,-3.9355,-4.3359,0.0,0.0,-5.4414,-5.7383,-5.9805,-6.0957,-6.125,-6.039,-5.6152,-5.1328,-4.7949,0.0,0.0,0.0,0.0,0.0,0.0,0.0,0.0,0.0,0.0,0.0,0.0,0.0,0.0,0.0,0.0,0.0,0.0,0.0,0.0,0.0,0.0,0.0,0.0,-5.7637,-5.7148,-5.7851,-5.7187,-5.6953,-5.7207,-5.6797,-5.6367,-5.5937,-5.5586,-5.5176,-5.4668,-5.4512,-5.3789,-5.2715,-5.2715,0.0,0.0,-5.0976,-5.0703,-5.0508,-5.0078,-4.9648,-4.9258,-4.9258,-4.9101,-4.8867,0.0,0.0,0.0,0.0,0.0,0.0,0.0,0.0,0.0,0.0,0.0,0.0,0.0,0.0,0.0,0.0,0.0,0.0,0.0,0.0,0.0,0.0,0.0,0.0,0.0,0.0,0.0,0.0,0.0,0.0,0.0,0.0,0.0,0.0,0.0,0.0,0.0,0.0,0.0,0.0,0.0,0.0,0.0,0.0,0.0,0.0,0.0,0.0,0.0,0.0,0.0,0.0,0.0,0.0,0.0,0.0,-5.1699,-5.5371,-5.8301,-6.0098,-6.0957,-6.0273,-5.5527,-5.0312,0.0,0.0,0.0,0.0,0.0,0.0,-3.4391,-3.4526,0.0,0.0,0.0,-3.8163,0.0,0.0,0.0,0.0,0.0,0.0,0.0,0.0,0.0,0.0,0.0,0.0,0.0,-5.7793,-5.7168,-5.8027,-5.7226,-5.6914,-5.7207,-5.6914,-5.6562,-5.6113,-5.5879,-5.5449,-5.4863,-5.4609,-5.3848,-5.2715,0.0,0.0,0.0,-5.1113,-5.0918,-5.0781,-5.0488,-5.0019,-4.9531,-4.9531,-4.9238,-4.8867,0.0,0.0,0.0,0.0,0.0,0.0,0.0,0.0,0.0,0.0,0.0,0.0,0.0,0.0,0.0,0.0,0.0,0.0,0.0,0.0,0.0,0.0,0.0,0.0,0.0,0.0,0.0,0.0,0.0,0.0,0.0,0.0,0.0,0.0,0.0,0.0,0.0,0.0,0.0,0.0,0.0,0.0,0.0,0.0,0.0,0.0,0.0,0.0,0.0,0.0,0.0,0.0,0.0,0.0,0.0,0.0,-4.8008,-5.3769,-5.5508,-5.7851,-5.9746,-5.9297,-5.4668,-4.9512,0.0,0.0,0.0,0.0,0.0,0.0,-3.4359,-3.4308,-3.4444,-3.4995,-3.6028,-3.8047,-4.2037,0.0,0.0,0.0,0.0,0.0,0.0,0.0,0.0,0.0,0.0,0.0,0.0,-5.791,-5.7617,-5.8476,-5.7676,-5.7207,-5.7207,-5.7207,-5.6992,-5.6562,-5.5723,-5.5312,-5.5273,-5.4433,-5.3555,0.0,0.0,0.0,0.0,-5.1426,-5.1172,-5.0801,-5.0801,-5.0273,-4.9531,-4.9531,-4.9238,-4.8926,0.0,0.0,0.0,0.0,0.0,0.0,0.0,0.0,0.0,0.0,0.0,0.0,0.0,0.0,0.0,0.0,0.0,0.0,0.0,0.0,0.0,0.0,0.0,0.0,0.0,0.0,0.0,0.0,0.0,0.0,0.0,0.0,0.0,0.0,0.0,0.0,0.0,0.0,0.0,0.0,0.0,0.0,0.0,0.0,0.0,0.0,0.0,0.0,0.0,0.0,0.0,0.0,0.0,0.0,0.0,0.0,0.0,0.0,-5.0762,-5.2578,-5.3476,-5.2773,-4.9188,-4.5338,-4.3341,0.0,0.0,0.0,0.0,0.0,-3.4038,-3.4258,-3.4631,-3.5702,-3.6327,-3.7427,0.0,0.0,0.0,0.0,0.0,0.0,0.0,0.0,0.0,0.0,0.0,0.0,0.0,0.0,-5.8262,-5.7656,-5.709,-5.6777,-5.6777,-5.6777,-5.6719,-5.6582,-5.6015,-5.5586,-5.5293,-5.4726,0.0,0.0,0.0,0.0,0.0,-5.1992,-5.1797,-5.1641,-5.1348,-5.0723,-4.998,-4.998,-4.95,-4.8718,0.0,0.0,0.0,0.0,0.0,0.0,0.0,0.0,0.0,0.0,0.0,0.0,0.0,0.0,0.0,0.0,0.0,0.0,0.0,0.0,0.0,0.0,0.0,0.0,0.0,0.0,0.0,0.0,0.0,0.0,0.0,0.0,0.0,0.0,0.0,0.0,0.0,0.0,0.0,0.0,0.0,0.0,0.0,0.0,0.0,0.0,0.0,0.0,0.0,0.0,0.0,0.0,0.0,0.0,0.0,0.0,0.0,0.0,0.0,-4.8691,-4.9726,-4.9188,-4.6346,0.0,0.0,0.0,0.0,0.0,0.0,0.0,0.0,-3.4066,-3.4482,-3.5339,-3.5943,-3.6942,-3.8639,0.0,0.0,0.0,0.0,0.0,0.0,0.0,0.0,0.0,0.0,0.0,0.0,0.0,-5.8411,-5.75,-5.7051,-5.6738,-5.6582,-5.6582,-5.6582,-5.6582,-5.6133,-5.5703,-5.5293,-5.4883,0.0,0.0,0.0,0.0,0.0,-5.2422,-5.2029,-5.1873,-5.1777,-5.1055,-5.0176,-5.0176,-4.9408,-4.8305,0.0,0.0,0.0,0.0,0.0,0.0,0.0,0.0,0.0,0.0,0.0,0.0,0.0,0.0,0.0,0.0,0.0,0.0,0.0,0.0,0.0,0.0,0.0,0.0,0.0,0.0,0.0,0.0,-3.2155,-3.2714,-3.2187,0.0,0.0,0.0,0.0,0.0,0.0,0.0,0.0,0.0,0.0,0.0,0.0,0.0,0.0,0.0,0.0,0.0,0.0,0.0,0.0,0.0,0.0,0.0,0.0,0.0,0.0,0.0,0.0,0.0,0.0,0.0,0.0,0.0,0.0,0.0,0.0,0.0,0.0,0.0,0.0,0.0,-3.4037,-3.4458,-3.5148,-3.6532,-3.8937,0.0,0.0,0.0,0.0,0.0,0.0,0.0,0.0,0.0,0.0,0.0,0.0,0.0,-5.8063,-5.7851,-5.7461,-5.7051,-5.6582,-5.6582,-5.6582,-5.6582,-5.6113,-5.5683,-5.5293,-5.4844,0.0,0.0,0.0,0.0,0.0,-5.2574,-5.2122,-5.1358,-5.1912,-5.1328,-5.0215,-5.0234,-4.9311,-4.7702,0.0,0.0,0.0,0.0,0.0,0.0,0.0,0.0,0.0,0.0,0.0,0.0,0.0,0.0,0.0,0.0,0.0,0.0,0.0,0.0,0.0,0.0,0.0,0.0,0.0,0.0,0.0,-2.9726,-3.1166,-3.1999,-3.2168,-3.2631,0.0,0.0,0.0,0.0,0.0,0.0,0.0,0.0,0.0,0.0,0.0,0.0,0.0,0.0,-3.3926,0.0,0.0,0.0,0.0,0.0,0.0,0.0,0.0,0.0,-3.6699,0.0,0.0,0.0,0.0,0.0,0.0,0.0,0.0,0.0,0.0,0.0,0.0,0.0,0.0,0.0,-3.4972,-3.5669,-3.6127,-3.7086,-3.8596,0.0,0.0,0.0,0.0,0.0,0.0,0.0,0.0,0.0,0.0,0.0,0.0,0.0,-5.7967,-5.7402,-5.7598,-5.7344,-5.6601,-5.6154,-5.6154,-5.6582,-5.5398,-5.4971,-5.5273,-5.4531,0.0,0.0,0.0,0.0,-5.3488,-5.2734,-5.2166,-5.1762,-5.1633,-5.0919,-5.0069,-5.0472,-4.8727,-4.6151,0.0,0.0,0.0,0.0,0.0,0.0,0.0,0.0,0.0,0.0,0.0,0.0,0.0,0.0,0.0,0.0,0.0,0.0,0.0,0.0,0.0,0.0,0.0,0.0,0.0,0.0,0.0,0.0,0.0,-3.2395,0.0,0.0,0.0,0.0,0.0,0.0,0.0,0.0,0.0,0.0,0.0,0.0,0.0,0.0,0.0,0.0,-3.3691,-3.4316,0.0,-3.5312,-3.5937,-3.6641,0.0,0.0,0.0,0.0,-3.6934,0.0,0.0,0.0,0.0,0.0,0.0,0.0,0.0,0.0,0.0,0.0,0.0,0.0,0.0,0.0,0.0,-3.5632,-3.6476,0.0,0.0,0.0,0.0,0.0,0.0,0.0,0.0,0.0,0.0,0.0,0.0,0.0,0.0,0.0,-5.7317,-5.6648,-5.6667,-5.6813,-5.6582,-5.6132,-5.6036,-5.5863,-5.5186,-5.4761,-5.4564,-5.4325,-5.4219,0.0,0.0,0.0,-5.3576,-5.2927,-5.2099,-5.1477,-5.1057,-5.0585,-5.0012,-5.0416,-4.8437,-4.5555,0.0,0.0,0.0,0.0,0.0,0.0,0.0,0.0,0.0,0.0,0.0,0.0,0.0,0.0,0.0,0.0,0.0,0.0,0.0,0.0,0.0,0.0,0.0,0.0,0.0,0.0,0.0,0.0,0.0,0.0,0.0,0.0,0.0,0.0,0.0,0.0,0.0,0.0,0.0,0.0,0.0,0.0,0.0,0.0,0.0,0.0,0.0,0.0,0.0,-3.5371,-3.6211,-3.7266,-3.7695,0.0,0.0,0.0,0.0,0.0,0.0,0.0,0.0,0.0,0.0,0.0,0.0,0.0,0.0,0.0,0.0,0.0,0.0,0.0,0.0,0.0,0.0,0.0,0.0,0.0,0.0,0.0,0.0,0.0,0.0,0.0,0.0,0.0,0.0,0.0,0.0,0.0,0.0,-5.6132,-5.5715,-5.5714,-5.6368,-5.609,-5.5663,-5.4896,-5.482,-5.4379,-5.3593,-5.4177,-5.4169,0.0,0.0,0.0,-5.3147,-5.2743,-5.1897,-5.0874,-5.0459,-5.0212,-4.9914,-4.9914,-4.8188,-4.534,0.0,0.0,0.0,0.0,0.0,0.0,0.0,0.0,0.0,0.0,0.0,0.0,0.0,0.0,0.0,0.0,0.0,0.0,0.0,0.0,0.0,0.0,0.0,0.0,0.0,0.0,0.0,0.0,0.0,0.0,-3.3984,-3.4784,-3.4764,0.0,0.0,0.0,-3.3418,-3.3496,-3.3476,-3.3437,0.0,0.0,0.0,0.0,0.0,0.0,0.0,0.0,0.0,-3.5254,-3.6016,-3.6836,-3.7266,0.0,0.0,0.0,0.0,0.0,0.0,0.0,0.0,0.0,0.0,0.0,0.0,0.0,0.0,0.0,0.0,0.0,0.0,0.0,0.0,0.0,0.0,0.0,0.0,0.0,0.0,0.0,0.0,0.0,0.0,0.0,0.0,0.0,0.0,0.0,0.0,0.0,0.0,-5.6094,-5.5715,-5.5298,-5.5098,-5.4722,-5.4299,-5.4432,-5.3454,-5.304,-5.3177,-5.3249,-5.3468,0.0,0.0,-5.3615,-5.3147,-5.2317,-5.1289,-5.0471,-5.0059,-4.9592,-4.9376,-4.9788,-4.8034,-4.5046,0.0,0.0,0.0,0.0,0.0,0.0,0.0,0.0,0.0,0.0,0.0,0.0,0.0,0.0,0.0,0.0,0.0,0.0,0.0,0.0,0.0,0.0,0.0,0.0,0.0,0.0,0.0,0.0,0.0,-3.3895,-3.4785,-3.5112,-3.4838,-3.4062,0.0,0.0,-3.3418,-3.3418,-3.3418,-3.3418,0.0,0.0,0.0,0.0,0.0,0.0,0.0,0.0,0.0,0.0,-3.6113,-3.7051,-3.7226,0.0,0.0,0.0,0.0,0.0,-3.7891,0.0,0.0,0.0,0.0,0.0,0.0,0.0,0.0,0.0,0.0,0.0,0.0,0.0,0.0,0.0,0.0,0.0,0.0,0.0,0.0,0.0,0.0,0.0,0.0,0.0,0.0,0.0,0.0,0.0,0.0,0.0,0.0,0.0,-5.4594,-5.4072,-5.368,-5.3248,-5.326,-5.3472,-5.2848,-5.2436,-5.2213,-5.2664,-5.298,-5.3166,0.0,-5.3062,-5.2801,-5.1542,-5.056,-4.9934,-4.9125,-4.9046,-4.9058,-4.8226,-4.6503,-4.4094,0.0,0.0,0.0,0.0,0.0,0.0,0.0,0.0,0.0,0.0,0.0,0.0,0.0,0.0,0.0,0.0,0.0,0.0,0.0,0.0,0.0,0.0,0.0,0.0,0.0,0.0,-3.0176,-3.1816,-3.3552,-3.491,-3.584,-3.5742,-3.5156,0.0,0.0,0.0,-3.3418,-3.3418,-3.3418,-3.3418,0.0,0.0,0.0,0.0,0.0,0.0,0.0,0.0,0.0,0.0,0.0,0.0,0.0,0.0,0.0,0.0,-3.7129,-3.7617,-3.7598,-3.7875,0.0,0.0,0.0,0.0,0.0,0.0,0.0,0.0,0.0,0.0,0.0,0.0,0.0,0.0,0.0,0.0,0.0,0.0,0.0,0.0,0.0,0.0,0.0,0.0,0.0,0.0,0.0,0.0,0.0,0.0,0.0,0.0,-5.3384,-5.2834,-5.2522,-5.2339,-5.2295,-5.2425,-5.2091,-5.1719,-5.1311,-5.1856,-5.2436,-5.2808,-5.2386,-5.2214,-5.2156,-5.081,-5.009,-4.9455,-4.8631,-4.8484,-4.8645,-4.7238,-4.5265,-4.299,0.0,0.0,0.0,0.0,0.0,0.0,0.0,0.0,0.0,0.0,0.0,0.0,0.0,0.0,0.0,0.0,0.0,0.0,0.0,0.0,0.0,0.0,0.0,0.0,0.0,-3.0643,-3.1387,-3.2695,-3.4805,-3.6289,-3.7148,-3.6758,-3.5898,-3.4629,0.0,0.0,-3.3418,-3.3418,-3.3418,-3.3418,-3.3418,0.0,0.0,0.0,0.0,0.0,0.0,0.0,0.0,0.0,0.0,0.0,0.0,0.0,0.0,0.0,-3.6719,-3.7012,-3.8164,-3.8534,0.0,0.0,0.0,0.0,0.0,0.0,0.0,0.0,0.0,0.0,0.0,0.0,0.0,0.0,0.0,0.0,0.0,0.0,0.0,0.0,0.0,0.0,0.0,0.0,0.0,0.0,0.0,0.0,0.0,0.0,0.0,0.0,0.0,-5.2559,-5.2522,-5.177,-5.1385,-5.1348,-5.133,-5.1092,-5.0706,-5.094,-5.1387,-5.1776,-5.1359,-5.117,-5.1113,-5.0078,-4.9492,-4.8873,-4.8451,-4.8286,-4.8429,-4.8219,-4.566,-4.2172,0.0,0.0,0.0,0.0,0.0,0.0,0.0,0.0,0.0,0.0,0.0,0.0,0.0,0.0,0.0,0.0,0.0,0.0,0.0,0.0,0.0,0.0,0.0,-2.8632,-3.0701,-3.1055,-3.2305,-3.4414,-3.6016,-3.6855,-3.6894,-3.6191,0.0,0.0,0.0,0.0,-3.3437,-3.3711,-3.3828,-3.3828,-3.3828,-3.4082,0.0,0.0,0.0,0.0,0.0,0.0,0.0,0.0,0.0,0.0,0.0,0.0,0.0,0.0,-3.6641,-3.7109,-3.7344,-3.8059,0.0,0.0,0.0,0.0,0.0,0.0,0.0,0.0,0.0,0.0,0.0,0.0,0.0,0.0,0.0,0.0,0.0,0.0,0.0,0.0,0.0,0.0,0.0,0.0,0.0,0.0,0.0,0.0,0.0,0.0,0.0,0.0,0.0,-5.2284,-5.177,-5.1458,-5.1183,-5.0945,-5.0945,-5.0872,-5.0706,-5.0767,-5.1107,-5.1463,-5.0808,-5.0729,-5.0471,-4.958,-4.8922,-4.8506,-4.8341,-4.8286,-4.8267,-4.8318,-4.6644,-4.416,0.0,0.0,0.0,0.0,0.0,0.0,0.0,0.0,0.0,0.0,0.0,0.0,0.0,0.0,0.0,0.0,0.0,0.0,0.0,0.0,0.0,0.0,0.0,-2.8672,-3.084,-3.1562,-3.3066,-3.5391,-3.6934,-3.7344,-3.666,0.0,0.0,0.0,0.0,0.0,0.0,-3.4199,-3.4277,-3.4277,-3.4277,-3.4434,0.0,0.0,0.0,0.0,0.0,0.0,0.0,0.0,0.0,0.0,0.0,0.0,0.0,0.0,0.0,-3.7266,-3.7109,-3.7615,0.0,0.0,0.0,0.0,0.0,0.0,0.0,0.0,0.0,0.0,0.0,0.0,0.0,0.0,0.0,0.0,0.0,0.0,0.0,0.0,0.0,0.0,0.0,0.0,0.0,0.0,0.0,0.0,0.0,0.0,0.0,0.0,0.0,-5.188,-5.1312,-5.1183,-5.0982,-5.0725,-5.0725,-5.0725,-5.0706,-5.045,-5.0528,-5.1108,-5.0086,-4.9733,-4.9897,-4.912,-4.8682,-4.8286,-4.8286,-4.8286,-4.8286,-4.8286,-4.7075,-4.5203,0.0,0.0,0.0,0.0,0.0,0.0,0.0,0.0,0.0,0.0,0.0,0.0,0.0,0.0,0.0,0.0,0.0,0.0,0.0,0.0,0.0,0.0,0.0,-2.8672,-3.082,-3.2129,-3.3652,-3.5391,-3.7519,-3.7891,-3.6641,-3.666,0.0,0.0,0.0,0.0,0.0,0.0,-3.4707,-3.4707,-3.4707,-3.4707,-3.4766,0.0,0.0,0.0,0.0,0.0,0.0,0.0,0.0,0.0,0.0,0.0,0.0,0.0,-3.6621,-3.7383,-3.7793,0.0,0.0,0.0,0.0,0.0,0.0,0.0,0.0,0.0,0.0,0.0,0.0,0.0,0.0,0.0,0.0,0.0,0.0,0.0,0.0,0.0,0.0,0.0,0.0,0.0,0.0,0.0,0.0,0.0,0.0,0.0,0.0,0.0,0.0,0.0,-5.1293,-5.0908,-5.0725,-5.0725,-5.0725,-5.0725,-5.0688,-4.9881,-4.9718,-5.0288,-4.8852,-4.8682,-4.9095,-4.8484,-4.8286,-4.8286,-4.8286,-4.8286,-4.8286,-4.8286,-4.6858,-4.4766,0.0,0.0,0.0,0.0,0.0,0.0,0.0,0.0,0.0,0.0,0.0,0.0,0.0,0.0,0.0,0.0,0.0,0.0,0.0,0.0,0.0,0.0,0.0,0.0,0.0,0.0,-3.3359,-3.5391,-3.6328,-3.6113,0.0,0.0,0.0,-3.4512,0.0,0.0,0.0,0.0,-3.5176,-3.5176,-3.5176,-3.5371,-3.5644,0.0,0.0,0.0,0.0,0.0,0.0,0.0,0.0,0.0,0.0,0.0,0.0,-3.6426,-3.6875,-3.7266,-3.709,0.0,0.0,0.0,0.0,0.0,0.0,0.0,0.0,0.0,0.0,0.0,0.0,0.0,0.0,0.0,0.0,0.0,0.0,0.0,0.0,0.0,0.0,0.0,0.0,0.0,0.0,0.0,0.0,0.0,0.0,0.0,0.0,0.0,0.0,-5.1165,-5.089,-5.078,-5.0725,-5.0725,-5.0725,-5.0725,-5.0706,-5.0175,-4.9955,-5.0104,-4.9074,-4.8726,-4.8907,-4.8811,-4.8682,-4.8286,-4.8682,-4.8682,-4.8322,-4.8616,-4.8126,-4.7129,0.0,0.0,0.0,0.0,0.0,0.0,0.0,0.0,0.0,0.0,0.0,0.0,0.0,0.0,0.0,0.0,0.0,0.0,0.0,0.0,0.0,0.0,0.0,0.0,0.0,-3.1738,-3.3144,0.0,0.0,0.0,0.0,0.0,0.0,-3.5176,0.0,-3.7051,0.0,0.0,-3.6211,-3.5898,-3.5898,-3.6152,-3.6504,0.0,0.0,0.0,0.0,0.0,0.0,0.0,0.0,0.0,0.0,0.0,0.0,-3.6658,-3.695,-3.7261,0.0,0.0,0.0,0.0,0.0,0.0,0.0,0.0,0.0,0.0,0.0,0.0,0.0,0.0,0.0,0.0,0.0,0.0,0.0,0.0,0.0,0.0,0.0,0.0,0.0,0.0,0.0,0.0,0.0,0.0,0.0,0.0,0.0,0.0,-5.0927,-5.0798,-5.0725,-5.056,-5.0486,-5.0486,-5.0486,-5.0395,-5.023,-4.9991,-4.979,-4.9606,-4.8946,-4.8653,-4.8634,-4.8792,-4.8682,-4.8286,-4.8682,-4.8484,-4.8286,-4.8396,-4.8359,-4.8124,0.0,0.0,0.0,0.0,0.0,0.0,0.0,0.0,0.0,0.0,0.0,0.0,0.0,0.0,0.0,0.0,0.0,0.0,0.0,0.0,0.0,0.0,0.0,0.0,0.0,0.0,0.0,0.0,0.0,0.0,0.0,0.0,-3.6699,-3.6797,0.0,-3.873,0.0,-3.7793,-3.7324,-3.668,-3.668,-3.6894,-3.7207,-3.6816,0.0,0.0,0.0,0.0,0.0,0.0,0.0,0.0,0.0,0.0,-3.656,-3.6688,-3.7003,0.0,0.0,0.0,0.0,0.0,0.0,0.0,0.0,0.0,0.0,0.0,0.0,0.0,0.0,0.0,0.0,0.0,0.0,0.0,0.0,0.0,0.0,0.0,0.0,0.0,0.0,0.0,0.0,0.0,0.0,0.0,0.0,0.0,0.0,0.0,-5.0321,-5.0303,-5.0651,-5.0303,-5.0138,0.0,-5.0138,-4.9918,-4.9496,-4.9459,-4.9239,-4.8836,-4.8451,-4.8286,-4.8286,-4.8286,-4.8286,-4.8286,-4.8249,-4.8249,-4.8249,-4.7882,-4.7974,-4.8231,0.0,0.0,0.0,0.0,0.0,0.0,0.0,0.0,0.0,0.0,0.0,0.0,0.0,0.0,0.0,0.0,0.0,0.0,0.0,0.0,0.0,0.0,0.0,0.0,0.0,0.0,0.0,0.0,0.0,0.0,0.0,0.0,0.0,-3.7226,0.0,-3.873,-3.7851,-3.6855,-3.6523,-3.668,-3.668,-3.6719,-3.6797,-3.6699,-3.6465,0.0,0.0,0.0,0.0,0.0,0.0,0.0,-3.5413,-3.5606,-3.5838,-3.6105,-3.6984,0.0,0.0,0.0,0.0,0.0,0.0,0.0,0.0,0.0,0.0,0.0,0.0,0.0,0.0,0.0,0.0,0.0,0.0,0.0,0.0,0.0,0.0,0.0,0.0,0.0,0.0,0.0,0.0,0.0,0.0,0.0,0.0,0.0,0.0,-5.0266,-5.0175,-5.0175,-5.0266,-5.0175,-5.0138,0.0,-5.0138,-4.9918,-4.9496,-4.9184,-4.8818,-4.8414,-4.8322,-4.8286,-4.8286,-4.8682,-4.8682,-4.8249,-4.8349,-4.8619,-4.8879,-4.8392,-4.8805,-4.9367,0.0,0.0,0.0,0.0,0.0,0.0,0.0,0.0,0.0,0.0,0.0,0.0,0.0,0.0,0.0,0.0,0.0,0.0,0.0,0.0,0.0,0.0,0.0,0.0,0.0,0.0,0.0,0.0,0.0,0.0,0.0,0.0,0.0,-3.7363,0.0,-3.8926,-3.7871,-3.7207,-3.6953,-3.6973,-3.6973,-3.709,-3.7246,-3.7051,-3.6699,-3.6309,-3.6094,0.0,0.0,0.0,0.0,0.0,0.0,0.0,-3.5604,-3.58,-3.6425,0.0,0.0,0.0,0.0,0.0,0.0,0.0,0.0,0.0,0.0,0.0,0.0,0.0,0.0,0.0,0.0,0.0,0.0,0.0,0.0,0.0,0.0,0.0,0.0,0.0,0.0,0.0,0.0,0.0,0.0,0.0,0.0,0.0,-5.034,-5.0138,-4.9753,-4.9643,-4.9826,-4.9643,-4.9551,-4.9551,-4.9349,-4.9038,-4.8634,-4.8616,-4.8708,-4.8836,-4.8249,-4.8322,-4.8854,-4.907,-4.8907,-4.8836,-4.9028,-4.9188,-4.9319,-4.8534,-4.9124,-4.9724,0.0,0.0,0.0,0.0,0.0,0.0,0.0,0.0,0.0,0.0,0.0,0.0,0.0,0.0,0.0,0.0,0.0,0.0,0.0,0.0,0.0,0.0,0.0,0.0,0.0,0.0,0.0,0.0,0.0,0.0,0.0,0.0,0.0,-3.7676,0.0,0.0,-3.8027,-3.7715,-3.7441,-3.7187,-3.7187,-3.7402,-3.7676,-3.7324,-3.6934,-3.6504,-3.6152,-3.6016,-3.5879,-3.5879,0.0,0.0,0.0,0.0,-3.5349,-3.5332,-3.5811,-3.6417,0.0,0.0,0.0,0.0,0.0,0.0,0.0,0.0,0.0,0.0,0.0,0.0,0.0,0.0,0.0,0.0,0.0,0.0,0.0,0.0,0.0,0.0,0.0,0.0,0.0,0.0,0.0,0.0,0.0,0.0,0.0,-5.0303,-5.0065,-4.9918,-4.9276,-4.9074,-4.9386,-4.9074,-4.8873,-4.8799,-4.8377,-4.8011,-4.7699,-4.7956,-4.8487,-4.9129,-4.8139,-4.8231,-4.9074,-4.8799,-4.8891,-4.9148,-4.9325,-4.9412,-4.9592,-4.8741,-4.9095,-4.9945,0.0,0.0,0.0,0.0,0.0,0.0,0.0,0.0,0.0,0.0,0.0,0.0,0.0,0.0,0.0,0.0,0.0,0.0,0.0,0.0,0.0,0.0,0.0,0.0,0.0,0.0,0.0,0.0,0.0,0.0,0.0,0.0,0.0,0.0,0.0,0.0,0.0,-3.6914,-3.6465,-3.6758,-3.6758,-3.6797,-3.6836,-3.6777,-3.6484,-3.6094,-3.6035,-3.5743,-3.547,-3.5196,-3.4784,0.0,0.0,0.0,0.0,0.0,0.0,0.0,0.0,0.0,0.0,0.0,0.0,0.0,0.0,0.0,0.0,0.0,0.0,0.0,0.0,0.0,0.0,0.0,0.0,0.0,0.0,0.0,0.0,0.0,0.0,0.0,0.0,0.0,0.0,0.0,0.0,0.0,-5.023,-5.0156,-4.9808,-4.9093,-4.8964,-4.8946,-4.9001,-4.8946,-4.8726,-4.8359,-4.7956,-4.7754,-4.7681,-4.7387,-4.7516,-4.7937,-4.7772,-4.7589,-4.7442,-4.7736,-4.7882,-4.7901,-4.8062,-4.8506,-4.9214,-4.8731,-4.9489,-5.0552,0.0,0.0,0.0,0.0,0.0,0.0,0.0,0.0,0.0,0.0,0.0,0.0,0.0,0.0,0.0,0.0,0.0,0.0,0.0,0.0,0.0,0.0,0.0,0.0,0.0,0.0,0.0,0.0,0.0,0.0,0.0,-3.6641,-3.7539,0.0,0.0,0.0,0.0,0.0,0.0,-3.668,-3.668,-3.6953,-3.7324,-3.6855,-3.6699,-3.668,-3.5917,-3.5606,-3.547,-3.5059,-3.4646,-3.4408,-3.465,0.0,0.0,0.0,0.0,0.0,0.0,0.0,0.0,0.0,0.0,0.0,0.0,0.0,0.0,0.0,0.0,0.0,0.0,0.0,0.0,0.0,0.0,0.0,0.0,0.0,0.0,0.0,0.0,0.0,0.0,0.0,0.0,0.0,0.0,-5.0749,-5.0156,-4.99,-4.9514,-4.8928,-4.8469,-4.8341,-4.8561,-4.8121,-4.7681,-4.7277,-4.7094,-4.702,-4.7002,-4.6599,-4.7002,-4.7992,-4.7314,-4.7295,-4.7772,-4.7717,-4.8023,-4.8404,-4.861,-4.9252,-5.0007,-4.9422,-5.0007,-5.0998,0.0,0.0,0.0,0.0,0.0,0.0,0.0,0.0,0.0,0.0,0.0,0.0,0.0,0.0,0.0,0.0,0.0,0.0,0.0,0.0,0.0,0.0,0.0,0.0,0.0,0.0,0.0,0.0,0.0,0.0,-3.6836,-3.7266,-3.7969,0.0,-3.8672,0.0,0.0,0.0,0.0,0.0,-3.6774,-3.7066,-3.7572,-3.7022,-3.7061,-3.7216,-3.6105,-3.5659,-3.5344,-3.4564,-3.3992,-3.386,-3.4153,-3.4317,0.0,0.0,0.0,0.0,0.0,0.0,0.0,0.0,0.0,0.0,0.0,0.0,0.0,0.0,0.0,0.0,0.0,0.0,0.0,0.0,0.0,0.0,0.0,0.0,0.0,0.0,0.0,0.0,0.0,0.0,0.0,0.0,0.0,-5.0847,-4.9845,-4.9533,-4.9166,-4.8763,-4.8066,-4.7827,-4.8139,-4.7351,-4.6782,-4.647,-4.6379,-4.6324,-4.6324,-4.603,-4.6544,-4.7626,-4.6837,-4.6929,-4.7858,-4.7655,-4.7942,-4.8806,-4.9001,-4.9466,-5.0358,-5.0084,-5.0435,-5.0959,0.0,0.0,0.0,0.0,0.0,0.0,0.0,0.0,0.0,0.0,0.0,0.0,0.0,0.0,0.0,0.0,0.0,0.0,0.0,0.0,0.0,0.0,0.0,0.0,0.0,0.0,0.0,0.0,0.0,0.0,-3.7266,-3.7695,-3.9219,-4.1562,-4.0742,-4.0156,-3.9668,0.0,0.0,0.0,0.0,0.0,-3.6836,-3.715,0.0,0.0,0.0,0.0,0.0,-3.3037,-3.2173,-3.2199,-3.2199,-3.2474,-3.3075,0.0,0.0,0.0,0.0,0.0,0.0,0.0,0.0,0.0,0.0,0.0,0.0,0.0,0.0,0.0,0.0,0.0,0.0,0.0,0.0,0.0,0.0,0.0,0.0,0.0,0.0,0.0,0.0,0.0,0.0,0.0,0.0,-5.0012,-4.9001,-4.8964,-4.8744,-4.8322,-4.7919,-4.7699,-4.7736,-4.691,-4.6507,-4.647,-4.6103,-4.592,-4.592,-4.5902,-4.5938,-4.603,-4.6342,-4.6495,-4.6784,-4.7138,-4.7496,-4.8102,-4.8688,-4.9108,-4.9512,-4.9896,-5.0184,-5.0351,0.0,0.0,0.0,0.0,0.0,0.0,0.0,0.0,0.0,0.0,0.0,0.0,0.0,0.0,0.0,0.0,0.0,0.0,0.0,0.0,0.0,0.0,0.0,0.0,0.0,0.0,0.0,0.0,0.0,-3.4766,-3.6914,-3.7598,-3.916,-4.1367,-4.0508,-4.0039,-3.9785,-3.8203,0.0,0.0,0.0,0.0,0.0,0.0,0.0,0.0,0.0,0.0,0.0,0.0,0.0,-3.2646,-3.3907,-3.3792,-3.331,-3.4957,-3.5078,-3.5074,0.0,0.0,0.0,0.0,0.0,0.0,0.0,0.0,0.0,0.0,0.0,0.0,0.0,0.0,0.0,0.0,0.0,0.0,0.0,0.0,0.0,0.0,0.0,0.0,0.0,0.0,0.0,0.0,0.0,0.0,-4.9928,-4.9449,-4.8916,-4.8508,-4.7453,-4.68,-4.6544,-4.6489,-4.6342,-4.6103,-4.5957,-4.5883,-4.5883,-4.5883,-4.5883,-4.5902,-4.6407,-4.6577,-4.6635,-4.7178,-4.761,-4.8003,-4.8289,-4.8858,-4.9428,-4.9644,-5.0087,-5.0664,0.0,0.0,0.0,0.0,0.0,0.0,0.0,0.0,0.0,0.0,0.0,0.0,0.0,0.0,0.0,0.0,0.0,0.0,0.0,0.0,0.0,0.0,0.0,0.0,0.0,0.0,0.0,0.0,0.0,0.0,0.0,0.0,-3.9141,-4.0918,-4.0215,0.0,0.0,0.0,0.0,-3.8359,0.0,0.0,-3.8689,0.0,0.0,0.0,0.0,0.0,0.0,0.0,0.0,0.0,-3.3655,-3.4154,-3.4433,-3.5358,-3.5229,-3.5045,-3.6275,0.0,0.0,0.0,0.0,0.0,0.0,0.0,0.0,0.0,0.0,0.0,0.0,0.0,0.0,0.0,0.0,0.0,0.0,0.0,0.0,0.0,0.0,0.0,0.0,0.0,0.0,0.0,0.0,0.0,-4.9882,-4.9339,-4.8824,-4.8089,-4.7147,-4.6477,-4.5902,-4.6287,-4.6287,-4.5902,-4.6158,-4.6158,-4.5902,-4.603,-4.6012,-4.5883,-4.6635,-4.6822,-4.6822,-4.7382,-4.7941,-4.8351,-4.8247,-4.8833,-4.9551,-4.9466,-4.9835,-5.0664,0.0,0.0,0.0,0.0,0.0,0.0,0.0,0.0,0.0,0.0,0.0,0.0,0.0,0.0,0.0,0.0,0.0,0.0,0.0,0.0,0.0,0.0,0.0,0.0,0.0,0.0,0.0,0.0,0.0,0.0,0.0,0.0,-3.9219,0.0,-4.0078,-4.1055,-4.291,0.0,0.0,-4.043,0.0,-3.8432,-3.8207,0.0,0.0,0.0,-3.6184,-3.5192,0.0,0.0,0.0,0.0,0.0,0.0,-3.5979,-3.5595,-3.5486,-3.5449,0.0,0.0,0.0,0.0,0.0,0.0,0.0,0.0,0.0,0.0,0.0,0.0,0.0,0.0,0.0,0.0,0.0,0.0,0.0,0.0,0.0,0.0,0.0,0.0,0.0,0.0,0.0,0.0,0.0,-4.9627,-4.8632,-4.8992,-4.8648,-4.725,-4.7213,-4.6837,-4.592,-4.6269,-4.6269,-4.5902,-4.669,-4.6654,-4.5902,-4.6287,-4.625,-4.5883,-4.7009,-4.7401,-4.7401,-4.796,-4.8497,-4.8867,-4.8867,-4.9121,-4.9512,-4.9512,-4.9785,-5.0215,0.0,0.0,0.0,0.0,0.0,0.0,0.0,0.0,0.0,0.0,0.0,0.0,0.0,0.0,0.0,0.0,0.0,0.0,0.0,0.0,0.0,0.0,0.0,0.0,0.0,0.0,0.0,0.0,0.0,0.0,0.0,0.0,0.0,0.0,-3.9805,-4.0391,-4.1113,-3.9512,0.0,0.0,-3.9284,-3.9623,0.0,0.0,0.0,0.0,0.0,-3.705,0.0,0.0,-3.4866,-3.3536,0.0,0.0,0.0,-3.2558,-3.3109,-3.3761,-3.3699,0.0,0.0,0.0,0.0,0.0,0.0,0.0,0.0,0.0,0.0,0.0,0.0,0.0,0.0,0.0,0.0,0.0,0.0,0.0,0.0,0.0,0.0,0.0,0.0,0.0,0.0,0.0,-5.0492,-5.0414,-4.9815,-4.8843,-4.8045,-4.7231,-4.6574,-4.6329,-4.6305,-4.614,-4.5993,-4.5902,-4.6122,-4.6103,-4.5902,-4.6012,-4.6182,-4.6447,-4.7009,-4.7588,-4.796,-4.8497,-4.8867,-4.8867,-4.8867,-4.8945,-4.9043,-4.9043,-4.9316,-4.9824,0.0,0.0,0.0,0.0,0.0,0.0,0.0,0.0,0.0,0.0,0.0,0.0,0.0,0.0,0.0,0.0,0.0,0.0,0.0,0.0,0.0,0.0,0.0,0.0,0.0,0.0,0.0,0.0,0.0,0.0,0.0,0.0,0.0,0.0,0.0,0.0,0.0,0.0,0.0,0.0,-4.0098,0.0,0.0,-4.139,-4.136,0.0,0.0,0.0,-3.8856,-3.8146,-3.6627,0.0,0.0,0.0,0.0,0.0,0.0,0.0,0.0,0.0,0.0,0.0,0.0,0.0,0.0,0.0,0.0,0.0,0.0,0.0,0.0,0.0,0.0,0.0,0.0,0.0,0.0,0.0,0.0,0.0,0.0,0.0,0.0,0.0,0.0,-4.9941,-5.0137,-5.0254,-5.0176,-4.8992,-4.8196,-4.7818,-4.684,-4.637,-4.6611,-4.6348,-4.6048,-4.5902,-4.6232,-4.6213,-4.5902,-4.6237,-4.6407,-4.6635,-4.7382,-4.7755,-4.8127,-4.8682,-4.8867,-4.8867,-4.8867,-4.8867,-4.8867,-4.8867,-4.9141,-4.9629,0.0,0.0,0.0,0.0,0.0,0.0,0.0,0.0,0.0,0.0,0.0,0.0,0.0,0.0,0.0,0.0,0.0,0.0,0.0,0.0,0.0,0.0,0.0,0.0,0.0,0.0,0.0,0.0,0.0,0.0,0.0,0.0,0.0,0.0,0.0,0.0,0.0,0.0,0.0,-3.9434,-4.1113,-4.1775,0.0,0.0,-4.4204,0.0,-4.1657,-4.0753,-4.0211,-3.7986,-3.6188,0.0,0.0,0.0,0.0,0.0,-3.5306,0.0,0.0,0.0,0.0,0.0,0.0,0.0,-3.8676,-3.9374,-3.9954,0.0,0.0,0.0,0.0,0.0,0.0,0.0,0.0,0.0,0.0,0.0,0.0,0.0,0.0,0.0,0.0,-4.9844,-4.9629,-4.9531,-4.9492,-4.9629,-5.0019,-4.9234,-4.8684,-4.8761,-4.7422,-4.6653,-4.6709,-4.6629,-4.6421,-4.609,-4.6808,-4.679,-4.609,-4.6818,-4.697,-4.6822,-4.7755,-4.8127,-4.8312,-4.8682,-4.8867,-4.8867,-4.8867,-4.8867,-4.8867,-4.8867,-4.9141,-4.959,0.0,0.0,0.0,0.0,0.0,0.0,0.0,0.0,0.0,0.0,0.0,0.0,0.0,0.0,0.0,0.0,0.0,0.0,0.0,0.0,0.0,0.0,0.0,0.0,0.0,0.0,0.0,0.0,0.0,0.0,0.0,0.0,0.0,0.0,0.0,0.0,0.0,0.0,0.0,-3.9883,-4.0781,0.0,0.0,-4.4333,-4.5536,-4.6466,-4.5723,-4.5574,-4.5223,0.0,-3.8828,-3.7333,0.0,0.0,0.0,0.0,0.0,0.0,0.0,0.0,0.0,0.0,0.0,0.0,-3.6054,-3.7163,-3.8372,0.0,0.0,0.0,0.0,0.0,0.0,0.0,0.0,0.0,0.0,0.0,0.0,0.0,0.0,0.0,0.0,-5.0195,-5.0273,-4.957,-4.9199,-4.9023,-4.9101,-4.8323,-4.805,-4.8742,-4.7797,-4.7366,-4.7686,-4.7441,-4.7103,-4.7028,-4.7178,-4.7178,-4.7028,-4.729,-4.7458,-4.7755,-4.7941,-4.8312,-4.8682,-4.8867,-4.8867,-4.8867,-4.8867,-4.8867,-4.8867,-4.8867,-4.9141,-4.9629,0.0,0.0,0.0,0.0,0.0,0.0,0.0,0.0,0.0,0.0,0.0,0.0,0.0,0.0,0.0,0.0,0.0,0.0,0.0,0.0,0.0,0.0,0.0,0.0,0.0,0.0,0.0,0.0,0.0,0.0,0.0,0.0,0.0,0.0,0.0,0.0,0.0,0.0,-3.7793,-3.8867,-4.1558,0.0,-4.5258,-4.6371,-4.7347,-4.8193,-4.7208,-4.7018,-4.6606,-4.2872,-4.0771,0.0,0.0,-3.3848,-3.1945,0.0,-3.1075,-3.0764,0.0,0.0,0.0,-3.26,0.0,0.0,0.0,-3.6062,-3.6957,0.0,0.0,0.0,0.0,0.0,0.0,0.0,0.0,0.0,0.0,0.0,0.0,0.0,0.0,0.0,0.0,-4.8945,-4.9023,-4.8594,-4.8535,-4.8535,-4.8535,-4.7984,-4.808,-4.8478,-4.7755,-4.7569,-4.7755,-4.7569,-4.7401,-4.7401,-4.7401,-4.7401,-4.7401,-4.7588,-4.796,-4.8127,-4.8312,-4.8682,-4.8867,-4.8867,-4.8867,-4.8867,-4.8867,-4.8867,-4.8867,-4.8867,-4.9141,-4.9629,0.0,0.0,0.0,0.0,0.0,0.0,0.0,0.0,0.0,0.0,0.0,0.0,0.0,0.0,0.0,0.0,0.0,0.0,0.0,0.0,0.0,0.0,0.0,-3.5254,0.0,0.0,0.0,0.0,0.0,0.0,0.0,0.0,0.0,0.0,0.0,0.0,0.0,0.0,0.0,-3.8652,0.0,0.0,-4.6036,-4.7583,-4.8386,-4.8765,-4.7895,-4.7295,-4.6892,-4.4306,0.0,-4.0911,-3.9489,-3.6862,0.0,0.0,0.0,0.0,0.0,0.0,0.0,0.0,0.0,-3.3533,0.0,0.0,0.0,-3.6859,0.0,0.0,0.0,0.0,0.0,0.0,0.0,0.0,0.0,0.0,0.0,0.0,0.0,0.0,0.0,-4.7383,-4.7402,-4.7578,-4.7676,-4.7832,-4.8066,-4.7974,-4.8013,-4.8086,-4.778,-4.7653,-4.7656,-4.773,-4.7755,-4.7755,-4.7755,-4.7755,-4.7755,-4.8127,-4.8312,-4.8312,-4.8682,-4.8867,-4.8867,-4.8867,-4.8867,-4.8867,-4.8867,-4.8867,-4.8867,-4.8945,-4.9219,-4.9609,0.0,0.0,0.0,0.0,0.0,0.0,0.0,0.0,0.0,0.0,0.0,0.0,0.0,0.0,0.0,0.0,0.0,0.0,-3.8047,0.0,0.0,0.0,0.0,0.0,-3.6582,0.0,0.0,0.0,0.0,0.0,0.0,0.0,0.0,0.0,-3.7422,0.0,0.0,0.0,-3.9746,0.0,-4.4121,-4.3574,0.0,-4.5565,-4.703,-4.7102,-4.8506,-4.833,-4.7211,0.0,-4.3555,-4.2997,0.0,-3.5165,0.0,0.0,0.0,0.0,0.0,0.0,0.0,0.0,-3.2212,0.0,0.0,0.0,-3.306,-3.3631,0.0,0.0,0.0,0.0,0.0,0.0,0.0,0.0,0.0,0.0,0.0,0.0,0.0,0.0,0.0,0.0,-4.6758,-4.7519,-4.6582,-4.6465,-4.7598,-4.7324,-4.7305,-4.7637,-4.7885,-4.8079,-4.8203,-4.8449,-4.8682,-4.8682,-4.8682,-4.8682,-4.8682,-4.8867,-4.8867,-4.8848,-4.8867,-4.8867,-4.8867,-4.8867,-4.8867,-4.8867,-4.8867,-4.8867,-4.8906,-4.9297,-4.9492,-4.9687,0.0,0.0,0.0,0.0,0.0,0.0,0.0,0.0,0.0,0.0,0.0,0.0,0.0,0.0,0.0,0.0,0.0,0.0,0.0,0.0,0.0,0.0,0.0,0.0,0.0,0.0,0.0,0.0,-3.3975,0.0,0.0,0.0,0.0,0.0,-3.5813,0.0,-3.7166,0.0,0.0,0.0,0.0,0.0,0.0,-4.7117,-4.8916,-4.8806,-4.9207,-4.912,-4.8552,0.0,-4.51,0.0,0.0,0.0,0.0,0.0,0.0,0.0,0.0,0.0,0.0,0.0,0.0,0.0,0.0,0.0,-3.1533,0.0,0.0,0.0,0.0,0.0,0.0,0.0,0.0,0.0,0.0,0.0,0.0,0.0,0.0,0.0,0.0,0.0,0.0,0.0,0.0,-4.5527,-4.6074,-4.6387,-4.6641,-4.6836,-4.7734,-4.8086,-4.7851,-4.8516,-4.8867,-4.8867,-4.8867,-4.8867,-4.8867,-4.8867,-4.8867,-4.8867,-4.8867,-4.9004,-4.9219,-4.8965,-4.9023,-4.9219,-4.8965,-4.8867,-4.8887,-4.9062,-4.9297,-4.9648,0.0,0.0,0.0,0.0,0.0,0.0,0.0,0.0,0.0,0.0,0.0,0.0,-3.9625,-3.8463,0.0,0.0,0.0,-3.9736,0.0,0.0,-3.6882,0.0,0.0,0.0,0.0,0.0,0.0,0.0,0.0,0.0,0.0,0.0,0.0,0.0,0.0,-3.5493,-3.6166,0.0,0.0,-3.9907,-4.2626,-4.4068,-4.4931,-4.8442,-4.9988,-5.0303,-4.9803,-4.9691,-4.9269,-4.7342,-4.6269,0.0,-4.4829,0.0,0.0,0.0,0.0,0.0,-3.0779,0.0,0.0,0.0,0.0,0.0,0.0,0.0,0.0,0.0,0.0,0.0,0.0,0.0,0.0,0.0,0.0,0.0,0.0,0.0,0.0,0.0,0.0,0.0,0.0,0.0,0.0,-4.4199,-4.416,-4.4355,-4.4824,-4.5547,-4.6016,-4.6133,-4.7363,-4.7891,-4.7578,-4.8418,-4.8867,-4.8867,-4.8867,-4.8867,-4.8867,-4.8867,-4.8926,-4.9043,-4.8906,-4.9121,-4.9492,-4.9043,-4.9043,-4.9316,-4.8984,-4.8867,-4.8867,-4.9004,-4.9258,-4.9609,0.0,-2.5275,0.0,0.0,0.0,0.0,0.0,0.0,0.0,0.0,0.0,0.0,0.0,0.0,0.0,0.0,0.0,-4.1602,-3.8734,0.0,-3.9702,0.0,0.0,0.0,0.0,0.0,0.0,0.0,0.0,0.0,0.0,0.0,0.0,0.0,0.0,-3.5265,-3.4376,-3.6339,-3.9004,-4.2313,-4.3323,-4.6893,-5.1339,0.0,-4.9129,-5.0507,-4.9891,0.0,0.0,-4.7497,-4.7075,0.0,0.0,0.0,0.0,0.0,0.0,0.0,0.0,0.0,0.0,-2.9145,0.0,0.0,0.0,0.0,-2.8208,0.0,0.0,0.0,0.0,0.0,0.0,0.0,0.0,0.0,0.0,0.0,0.0,0.0,0.0,0.0,0.0,0.0,0.0,-4.3633,-4.2598,-4.2637,-4.4336,-4.4824,-4.5254,-4.5683,-4.6933,-4.7598,-4.7578,-4.8418,-4.8867,-4.8867,-4.8867,-4.8867,-4.8867,-4.8867,-4.9101,-4.9492,-4.9043,-4.9121,-4.9492,-4.9043,-4.8867,-4.8887,-4.8867,-4.8867,-4.8906,-4.9336,-4.9512,-4.9648,0.0,0.0,0.0,0.0,0.0,0.0,0.0,-3.0647,0.0,0.0,0.0,0.0,0.0,0.0,-4.0935,0.0,0.0,-4.2347,-4.09,-3.9066,0.0,0.0,0.0,-3.4407,0.0,0.0,0.0,0.0,0.0,0.0,0.0,0.0,0.0,0.0,0.0,-3.2772,0.0,0.0,0.0,0.0,0.0,-4.7313,-5.1089,0.0,0.0,-5.2107,-5.1416,-5.0729,0.0,-4.8723,-4.7772,-4.6882,-4.6121,-4.5263,-4.4044,-4.1595,-4.1645,0.0,0.0,0.0,-3.6865,-3.2746,0.0,0.0,0.0,0.0,0.0,0.0,0.0,0.0,0.0,0.0,0.0,0.0,0.0,0.0,0.0,0.0,0.0,0.0,0.0,0.0,0.0,0.0,0.0,-4.1713,-4.197,-4.2598,-4.3476,-4.4219,-4.4941,-4.5644,-4.6641,-4.7148,-4.7148,-4.8008,-4.8418,-4.8437,-4.873,-4.8867,-4.8867,-4.916,-4.9219,-4.9101,-4.9238,-4.9394,-4.9492,-4.9043,-4.9023,-4.9277,-4.8965,-4.8867,-4.8945,-4.9687,-4.9785,-4.9648,-2.2851,0.0,0.0,0.0,0.0,0.0,0.0,0.0,0.0,0.0,-3.5958,0.0,-4.1016,0.0,-4.1302,0.0,-4.3413,-4.2547,-4.035,-3.9384,0.0,-3.7677,-3.5476,0.0,0.0,0.0,0.0,0.0,-2.799,-2.7319,0.0,0.0,0.0,0.0,0.0,0.0,0.0,0.0,-3.8344,0.0,0.0,-4.8244,0.0,0.0,-5.2416,-5.2493,0.0,-5.1132,-5.0429,-4.9436,-4.8373,-4.7552,-4.7662,-4.6984,-4.5859,-4.4257,-4.4544,-4.4587,-3.9796,-3.9704,0.0,-3.4168,-3.2885,0.0,-2.8784,0.0,0.0,0.0,0.0,0.0,0.0,0.0,0.0,0.0,0.0,0.0,0.0,0.0,0.0,0.0,0.0,0.0,0.0,0.0,-3.9123,-3.8585,-3.9888,-4.0838,0.0,0.0,-4.4336,-4.5195,-4.6191,-4.6777,-4.6933,-4.7637,-4.8066,-4.8203,-4.8496,-4.8711,-4.8867,-4.916,-4.9219,-4.9101,-4.9238,-4.9375,-4.9492,-4.9043,-4.9023,-4.9258,-4.8965,-4.8945,-4.918,-4.9922,-5.0195,-5.0293,0.0,0.0,0.0,0.0,-2.5579,0.0,0.0,0.0,-3.111,0.0,-3.4856,-3.6641,-3.8587,-3.9656,-4.0358,-4.068,-4.2965,0.0,-3.7578,-4.1071,0.0,0.0,-3.6205,-3.5653,-3.5141,0.0,0.0,0.0,-2.8098,-2.7743,0.0,0.0,0.0,0.0,-2.8579,0.0,-3.0007,-3.2055,-3.6456,-4.2166,-4.757,-4.968,-4.9453,-5.0987,0.0,-5.1281,-5.1358,-5.0744,-4.9654,-4.9281,-4.8935,-4.8249,-4.7846,-4.7717,-4.7479,-4.6324,-4.6525,-4.5994,-4.0437,-4.114,-4.1357,-3.4126,0.0,0.0,0.0,0.0,-3.28,0.0,0.0,0.0,0.0,0.0,0.0,0.0,0.0,0.0,0.0,0.0,0.0,0.0,0.0,0.0,0.0,-3.3934,-3.4034,-3.4552,-3.6395,-3.7661,0.0,0.0,-4.3457,-4.4375,-4.5625,-4.6484,-4.6933,-4.7363,-4.7793,-4.8203,-4.8223,-4.8457,-4.8867,-4.8887,-4.9101,-4.9473,-4.9062,-4.9121,-4.9453,-4.9043,-4.8867,-4.8887,-4.8867,-4.916,-4.9648,-5.0058,-5.0742,-5.1465,-2.3515,-2.4372,-2.513,0.0,0.0,-2.5871,0.0,0.0,0.0,0.0,-3.7008,-3.9674,-4.1575,-4.2453,-4.3121,-4.3709,-4.3402,0.0,0.0,0.0,0.0,-3.8249,-3.6636,-3.5393,-3.4365,-3.2523,0.0,-2.9407,0.0,0.0,-2.7455,0.0,0.0,0.0,0.0,0.0,-3.02,-3.3568,-3.8534,-4.4144,-4.3992,-4.6441,0.0,0.0,-5.0356,-5.1543,-5.2097,-5.1831,-5.1343,-5.0829,-5.0384,-4.9865,-4.9058,-4.8526,-4.8229,-4.7526,-4.7387,-4.7247,-4.5823,-4.4881,-4.3948,-4.1354,-3.8481,-3.6058,0.0,0.0,0.0,0.0,0.0,0.0,0.0,0.0,0.0,0.0,0.0,0.0,0.0,0.0,0.0,0.0,0.0,0.0,-3.0151,-3.2617,-3.3941,-3.3542,-3.4659,-3.6375,-3.8437,0.0,0.0,-4.4355,-4.5332,-4.6191,-4.6914,-4.7363,-4.7793,-4.8203,-4.8535,-4.875,-4.8867,-4.9199,-4.9238,-4.9043,-4.9258,-4.9238,-4.9023,-4.8906,-4.9062,-4.9316,-4.8984,-4.9512,-5.0488,-5.0605,-5.1191,-5.1875,-2.3768,0.0,0.0,0.0,0.0,0.0,-2.8964,0.0,0.0,-3.4938,-3.76,0.0,-4.1503,-4.2854,-4.3808,-4.4525,-4.3964,0.0,0.0,0.0,0.0,-3.9377,-3.8027,-3.6642,-3.5431,-3.3851,0.0,-3.0301,0.0,0.0,-2.7869,0.0,0.0,0.0,0.0,-2.8898,0.0,-3.4751,-3.8124,-4.0778,-4.1875,0.0,0.0,-4.7084,-4.8742,-5.1228,-5.1124,-5.1105,-5.1377,-5.0962,-5.0611,-5.0185,-4.9367,-4.9124,-4.8955,-4.8152,-4.8152,-4.8189,-4.7131,-4.6747,-4.6145,-4.3673,-4.2014,-4.0688,-3.9191,-3.732,-3.578,0.0,0.0,0.0,0.0,0.0,0.0,0.0,0.0,0.0,0.0,0.0,0.0,0.0,0.0,0.0,-2.779,-3.0026,-3.1088,-3.061,-3.297,-3.4718,0.0,0.0,0.0,-4.2754,-4.4853,-4.6269,-4.6914,-4.7539,-4.7969,-4.8203,-4.8457,-4.8672,-4.8867,-4.9121,-4.9101,-4.8867,-4.9121,-4.9101,-4.8867,-4.8867,-4.9004,-4.9258,-4.9375,-5.0,-5.082,-5.1016,-5.1504,-5.2012,0.0,0.0,0.0,0.0,0.0,0.0,0.0,-3.1211,0.0,-3.5564,0.0,-3.886,-4.0052,-4.2136,-4.3396,0.0,0.0,-4.3751,-4.286,-4.3049,-4.2247,-4.0534,-3.9747,-3.8728,-3.7264,-3.5348,0.0,0.0,0.0,0.0,0.0,0.0,0.0,0.0,0.0,0.0,0.0,-3.508,-3.6456,0.0,-4.0416,-4.2965,-4.3816,-4.3781,-4.6794,-5.0782,-4.9529,-4.9865,-5.0938,-5.0996,-5.0623,-5.025,-4.9639,-4.9658,-4.9856,-4.8848,-4.8848,-4.8705,-4.653,-4.7445,-4.7867,-4.4068,-4.5185,-4.6288,-4.2227,-4.1474,-4.0924,-3.8111,-3.6505,-3.4942,0.0,0.0,0.0,0.0,0.0,0.0,0.0,0.0,0.0,0.0,0.0,0.0,0.0,-2.7108,-2.7482,-2.7228,-3.0952,-3.2618,0.0,0.0,0.0,-4.0694,-4.4128,-4.6367,-4.7012,0.0,-4.8223,-4.8379,-4.832,-4.8496,-4.8867,-4.8867,-4.8867,-4.8867,-4.8867,-4.8867,-4.8867,-4.8867,-4.8887,-4.9043,-4.9922,-5.0488,-5.0859,-5.1269,-5.168,-5.1933,0.0,0.0,0.0,0.0,0.0,0.0,0.0,-3.5221,-3.6691,-3.7401,-4.0028,0.0,-4.1857,-4.2518,-4.3221,-4.3952,-4.3233,0.0,0.0,0.0,0.0,-4.0506,-4.0052,-3.938,-3.8143,-3.6246,-3.4482,0.0,0.0,0.0,0.0,0.0,0.0,0.0,0.0,0.0,-3.1049,-3.3476,0.0,-3.7664,-3.7956,-4.0604,-4.4417,-4.2964,-4.5326,-4.9533,-4.9313,-5.0278,-5.1834,-5.2165,-5.2282,-5.2103,-5.1505,-5.1105,-5.0704,-5.0102,-4.9698,-4.9239,-4.8562,-4.8507,-4.8617,-4.7454,-4.6211,-4.5428,-4.6306,-4.3419,-4.1,-4.2211,-3.9127,-3.5803,-3.4595,0.0,0.0,0.0,0.0,0.0,0.0,0.0,0.0,0.0,0.0,0.0,0.0,0.0,0.0,0.0,0.0,0.0,0.0,0.0,0.0,0.0,-4.3285,0.0,0.0,0.0,-4.8223,-4.9297,-4.8926,-4.8789,-4.8867,-4.8867,-4.8867,-4.8867,-4.8867,-4.8867,-4.8867,-4.8867,-4.9082,-4.9492,-5.0351,-5.0742,-5.0859,-5.1269,-5.1484,-5.1523,0.0,0.0,0.0,0.0,0.0,0.0,0.0,-3.7681,0.0,-3.8366,-3.9601,-4.0628,-4.0705,-4.1967,-4.3235,-4.4009,-4.3605,-4.327,-4.376,-4.2731,-4.2021,-4.1439,-4.0885,0.0,-3.8985,-3.7235,-3.5444,-3.3668,0.0,0.0,0.0,0.0,0.0,0.0,0.0,-2.9272,0.0,0.0,0.0,-3.5753,-3.6408,-3.8652,-4.1705,-4.1946,-4.4533,-4.8267,-4.8909,-5.0421,-5.2148,-5.2558,-5.2558,-5.2422,-5.2058,-5.1916,-5.1716,-5.0931,-5.0509,-5.0269,-4.968,-4.9423,-4.9129,-4.8708,-4.7491,-4.6789,-4.7795,-4.5771,-4.393,-4.4111,-4.2146,-3.912,-3.5687,-3.1763,0.0,0.0,0.0,0.0,0.0,0.0,0.0,0.0,0.0,0.0,0.0,0.0,0.0,0.0,0.0,0.0,0.0,0.0,0.0,0.0,0.0,0.0,0.0,0.0,0.0,-4.918,-4.8965,-4.8867,-4.8867,-4.8867,-4.8867,-4.8867,-4.8867,-4.8867,-4.8867,-4.8867,-4.9258,-4.9902,-5.0312,-5.0742,-5.1152,-5.1367,-5.1426,-5.1426,0.0,-2.7883,0.0,0.0,-3.2853,0.0,0.0,-3.9452,-4.0764,-3.9438,-3.946,-3.9573,-4.0101,-4.1947,-4.3345,-4.3887,-4.3833,-4.3967,-4.4217,-4.3379,-4.2718,-4.2201,-4.1409,-4.0615,-3.9813,-3.8036,-3.6166,0.0,0.0,0.0,0.0,0.0,0.0,0.0,0.0,0.0,0.0,0.0,-3.336,-3.3908,-3.5693,-3.7331,-3.8865,-4.0604,-4.3254,-4.6302,-4.7359,-4.9148,-5.0972,-5.139,-5.1877,-5.2422,-5.227,-5.2386,-5.2386,-5.1599,-5.1378,-5.1157,-5.0474,-4.9976,-4.9607,-4.9019,-4.8598,-4.8286,-4.8286,-4.7736,-4.6889,-4.5305,-4.4119,-4.184,-3.6291,-3.2775,0.0,0.0,0.0,0.0,0.0,0.0,0.0,0.0,0.0,0.0,0.0,0.0,0.0,0.0,0.0,-2.9277,-2.8263,-3.2003,0.0,0.0,0.0,-4.2941,-4.4009,0.0,-4.873,0.0,-4.8906,-4.8867,-4.8867,-4.8867,-4.8867,-4.8867,-4.8867,-4.8867,-4.8867,-4.8965,-4.9473,-5.0195,-5.0273,-5.0781,-5.1426,-5.1426,-5.1426,-5.1426,0.0,0.0,0.0,0.0,0.0,0.0,0.0,-4.0334,-4.171,-4.179,-4.2084,-4.2405,-4.2659,-4.2913,-4.31,-4.31,-4.2859,-4.2941,-4.2901,-4.2378,-4.2084,-4.1764,-4.1456,-4.1016,-4.0401,-3.8651,-3.6473,0.0,0.0,0.0,0.0,0.0,0.0,0.0,0.0,0.0,0.0,-3.2759,-3.4028,-3.511,-3.6046,-3.7005,-3.7908,-3.8814,-4.0734,-4.3494,-4.4136,-4.5606,-4.7253,-4.7635,-5.023,-5.332,-5.3769,-5.3089,-5.2474,-5.2268,-5.1838,-5.1332,-5.0362,-5.0216,-5.003,-4.922,-4.8598,-4.8286,-4.8286,-4.7956,-4.7552,-4.7028,-4.448,-4.0957,-3.6156,-3.4944,-3.3715,0.0,0.0,0.0,0.0,0.0,0.0,0.0,0.0,0.0,0.0,0.0,0.0,0.0,0.0,-2.7758,-2.7962,-3.0129,-3.1884,-3.2769,0.0,-4.1123,-4.3033,-4.6133,-4.8301,-4.9453,-4.9043,-4.8867,-4.8867,-4.8867,-4.8867,-4.8867,-4.8867,-4.8867,-4.8887,-4.9297,-4.9746,-5.0215,-5.0605,-5.1035,-5.1426,-5.1426,-5.1426,-5.1426,0.0,0.0,0.0,0.0,0.0,0.0,0.0,-4.1136,-4.2004,-4.2659,-4.2993,-4.3233,-4.334,-4.3527,-4.3634,-4.3634,-4.3354,-4.31,-4.2953,-4.2659,-4.2258,-4.1817,-4.1497,-4.1163,-4.0735,-3.9159,-3.7315,0.0,0.0,0.0,0.0,0.0,0.0,0.0,0.0,-3.0555,-3.1851,-3.3334,-3.4442,-3.5271,-3.6153,-3.6786,-3.7346,-3.9456,-4.069,-4.1805,-4.3699,-4.4874,-4.5599,-4.575,-4.7392,-4.9708,-5.163,-5.1725,-5.1239,-5.3229,-5.2813,-5.15,-5.0883,-5.0438,-4.9938,-4.9074,-4.8781,-4.8653,-4.8653,-4.8341,-4.7864,-4.724,-4.4761,-4.207,-4.004,-3.7187,-3.493,0.0,0.0,0.0,0.0,0.0,0.0,0.0,0.0,-2.8898,0.0,0.0,0.0,0.0,0.0,-2.7512,-2.7687,-2.8952,-3.0055,-3.0852,0.0,-3.8585,-4.1517,-4.4488,-4.6953,-4.9121,-4.8945,-4.8867,-4.8867,-4.8867,-4.8867,-4.8867,-4.8867,-4.9004,-4.9277,-4.9453,-4.9941,-5.0566,-5.0742,-5.1055,-5.1426,-5.1426,-5.1426,-5.1426,-3.471,0.0,-3.5618,0.0,-3.8624,-3.9386,-4.1416,-4.1964,-4.2432,-4.3127,-4.3487,-4.3674,-4.3674,-4.3861,-4.4008,-4.4008,-4.3634,-4.3314,-4.31,-4.2739,-4.2338,-4.1924,-4.1563,0.0,-4.1056,-3.9666,-3.8143,-3.6473,-3.4643,0.0,0.0,0.0,0.0,0.0,-3.0608,-3.165,-3.2839,-3.4242,-3.5124,-3.5645,-3.6433,-3.6727,-3.6866,-3.9223,-4.0023,-4.0036,-4.2142,-4.2996,-4.2996,-4.2996,-4.3651,-4.5233,-4.8737,-4.9382,-4.9476,-5.2402,-5.2176,-5.1238,-5.1568,-5.1014,-5.0401,-4.9607,-4.9294,-4.8909,-4.8909,-4.8579,-4.8066,-4.7277,-4.4885,-4.2775,-4.2775,-3.9435,-3.6474,-3.6319,0.0,0.0,0.0,0.0,0.0,0.0,-2.9553,-2.8791,-2.8631,0.0,0.0,0.0,0.0,0.0,-2.7949,-2.8501,0.0,0.0,0.0,0.0,0.0,-4.3212,-4.6126,-4.8867,-4.8867,-4.8867,-4.8867,-4.8867,-4.8867,-4.8867,-4.9004,-4.9238,-4.9551,-4.9805,-5.0254,-5.082,-5.0937,-5.1172,-5.1426,-5.1426,-5.1426,-5.1426,-3.6941,-3.7823,-3.8838,-4.0935,-4.1523,-4.1937,-4.2552,-4.2886,-4.3207,-4.3487,-4.3781,-4.4008,-4.4008,-4.4008,-4.4008,-4.4008,-4.3461,-4.31,-4.31,-4.2552,-4.2218,0.0,0.0,-4.1336,-4.1336,-4.0187,-3.8865,-3.7382,0.0,0.0,-3.2492,0.0,-3.0929,-3.1236,-3.2118,-3.3173,-3.4376,-3.5551,-3.6219,-3.654,-3.7128,-3.7195,-3.6941,-3.7618,-3.7839,-3.7811,-3.8459,-3.8664,-3.8664,-3.8664,-3.9132,-4.0446,-4.5104,-4.6381,-4.6822,-4.9173,-4.9818,-5.0235,-5.195,-5.206,-5.1534,-5.1107,-4.9902,-4.8909,-4.8909,-4.8579,-4.8066,-4.7277,-4.4885,-4.2775,-4.2775,-4.1029,-3.8769,-3.6519,0.0,0.0,0.0,0.0,0.0,-3.006,-2.9659,-2.9245,-2.8657,0.0,0.0,0.0,0.0,0.0,0.0,0.0,0.0,-2.9032,-3.2543,0.0,-3.9341,-4.2868,-4.6126,-4.8867,-4.8867,-4.8867,-4.8867,-4.8867,-4.8867,-4.8887,-4.9336,-4.9531,-4.959,-5.0449,-5.0801,-5.084,-5.1269,-5.1426,-5.1426,-5.1426,-5.1426,-5.1426,-3.9239,-3.964,-4.0147,-4.1416,-4.171,-4.1924,-4.2298,-4.2619,-4.2913,-4.3207,-4.3487,-4.3754,-4.3968,-4.4008,-4.4008,0.0,-4.3634,-4.338,0.0,-4.2846,-4.2512,-4.2512,-4.1964,-4.1563,-4.1336,-4.0588,-3.9559,-3.829,0.0,0.0,0.0,-3.308,-3.2946,-3.308,-3.3961,-3.4897,-3.5845,-3.6433,-3.6834,-3.7088,-3.7088,-3.7008,-3.6941,-3.7149,-3.7162,-3.7162,-3.737,-3.7825,-3.8059,-3.8059,-3.886,-4.0135,-4.1632,-4.2805,-4.4205,-4.7025,-4.8316,-4.8556,-4.8157,-4.9944,-5.1257,-4.7826,-4.8434,-4.9515,-4.7855,-4.7744,-4.7809,-4.7552,-4.6495,-4.564,-4.5352,-4.3538,-4.1552,-3.9292,-3.7042,0.0,0.0,0.0,-3.0862,-3.0287,-2.978,-2.9406,0.0,-2.8845,0.0,0.0,0.0,0.0,0.0,0.0,0.0,0.0,-3.2393,0.0,-4.0461,-4.229,-4.5074,-4.8867,-4.8867,-4.8867,-4.8867,-4.8867,-4.9023,-4.9316,-4.9473,-4.9863,-5.043,-5.0703,-5.0976,-5.125,-5.1387,-5.1426,-5.1426,-5.1426,-5.1426,-5.1426,-4.0334,-4.0655,-4.0976,-4.1523,-4.1897,-4.2151,-4.2218,-4.2552,-4.2886,-4.306,-4.3247,-4.3527,-4.3968,-4.3888,0.0,-4.4008,-4.3714,-4.3527,-4.3527,-4.2993,-4.2659,-4.2659,-4.2004,-4.1523,-4.1336,0.0,0.0,-3.9225,-3.8103,-3.6687,-3.503,-3.4923,-3.4817,-3.475,-3.5631,-3.6259,-3.6687,-3.7235,-3.7489,-3.7529,-3.7342,-3.7195,-3.7088,-3.6981,-3.6941,-3.6941,-3.6941,-3.7229,-3.7573,-3.7573,-3.864,-3.9755,-3.9419,-4.0504,-4.2278,-4.5276,-4.6403,-4.6709,-4.6441,-4.8683,-5.0407,-4.7198,-4.8343,-4.9865,-4.8095,-4.7944,-4.8079,-4.7736,-4.6785,-4.5981,-4.6353,-4.471,-4.2884,-4.139,-3.8635,-3.6104,-3.3905,0.0,-3.0608,0.0,0.0,0.0,0.0,-2.9312,0.0,0.0,0.0,0.0,0.0,0.0,0.0,-3.0927,-3.2157,0.0,-3.9509,-4.1096,-4.3874,-4.7493,-4.8459,-4.8867,-4.8867,-4.9023,-4.9258,-4.9551,-4.9863,-5.0312,-5.082,-5.0976,-5.1191,-5.1426,-5.1426,-5.1426,-5.1426,-5.1426,-5.1426,-5.1426,-4.0481,-4.0989,0.0,0.0,-4.2111,0.0,-4.2298,-4.2726,-4.3127,-4.3127,-4.3127,-4.3354,-4.3901,-4.3714,-4.3674,-4.3928,0.0,0.0,0.0,-4.2993,-4.2699,-4.2659,-4.1817,-4.1376,-4.1336,-4.0802,-4.0361,-4.0027,-3.8611,-3.7635,-3.7008,-3.6754,-3.6433,-3.6166,-3.7048,-3.7275,-3.7048,-3.7889,-3.8103,-3.7849,-3.7809,-3.7635,-3.7382,-3.7048,-3.6941,-3.6967,-3.6941,-3.7128,-3.7395,-3.7395,-3.8468,-3.956,-3.8624,-3.942,-4.1188,-4.3766,-4.4205,-4.4425,-4.6687,-4.8012,-4.8807,-4.8368,-4.8959,-4.9544,-4.8928,-4.887,-4.8898,-4.806,-4.5878,-4.4707,-4.6252,-4.4956,-4.3431,-4.2652,-4.0611,-3.8104,-3.5454,-3.2785,-3.0657,0.0,0.0,0.0,0.0,-2.9579,-2.978,0.0,0.0,0.0,0.0,0.0,-3.0114,-3.1223,-3.2137,-3.383,-3.6982,-3.9898,-4.2743,-4.5361,-4.7698,-4.8867,-4.8867,-4.9316,-4.9551,-4.9629,-5.0449,-5.082,-5.0879,-5.1269,-5.1426,-5.1426,-5.1426,-5.1426,-5.1426,-5.1426,-5.1426,-5.1426,0.0,0.0,-4.175,-4.1964,-4.2365,-4.2632,-4.2552,-4.306,-4.342,-4.342,-4.3634,-4.3754,-4.3634,-4.3781,-4.3821,-4.3634,-4.3781,-4.3781,-4.3527,-4.3207,-4.2886,-4.2659,-4.2044,-4.1563,-4.1336,-4.0989,-4.0548,-4.0027,-3.9452,-3.8758,-3.7929,-3.7889,-3.7448,-3.6754,-3.7676,-3.7889,-3.7635,-3.8076,-3.8223,-3.8116,-3.7676,-3.7569,-3.7662,-3.7128,-3.7088,-3.7235,-3.7008,-3.735,-3.8067,-3.8067,-3.8706,-3.9602,-3.9322,-3.9813,-4.0711,-4.1119,-4.2402,-4.3784,-4.3041,-4.5406,-4.7049,-4.3177,-4.421,-4.6095,-4.6596,-4.8273,-4.9699,-4.8781,-4.8144,-4.7654,-4.7534,-4.6761,-4.494,-4.1127,-4.0784,-3.9429,-3.4847,-3.3611,-3.277,0.0,-3.1028,-3.0234,-3.0461,-3.0488,-3.0354,0.0,0.0,0.0,0.0,-3.0648,-3.1222,-3.211,-3.3051,-3.4686,-3.7399,-4.0333,-4.3951,-4.8069,-4.8663,-4.8867,-4.8867,-4.9316,-4.9707,-5.0058,-5.0586,-5.0976,-5.1289,-5.1387,-5.1426,-5.1426,-5.1426,-5.1426,-5.1426,-5.1426,-5.1426,-5.1426,-4.131,-4.1563,-4.1817,-4.2004,-4.2365,-4.2619,-4.2472,-4.2953,-4.334,-4.334,-4.3487,-4.3634,-4.3741,-4.3781,-4.3781,-4.3741,-4.3888,-4.3861,-4.3567,-4.3247,-4.2953,-4.2659,-4.1964,-4.1497,-4.1336,-4.0949,-4.0548,-4.0214,-3.9933,-3.9559,-3.9052,-3.8798,-3.833,-3.7782,-3.825,-3.8397,-3.825,-3.8544,-3.8651,-3.8624,-3.8183,-3.7929,-3.7782,-3.7301,-3.7235,-3.7342,-3.7048,-3.7525,-3.8194,-3.7938,-3.8577,-3.9332,-3.9069,-3.9504,-4.0066,-3.9868,-4.1251,-4.2527,-4.1841,-4.3689,-4.5211,-4.2897,-4.3563,-4.5202,-4.6109,-4.6976,-4.7616,-4.8889,-4.8195,-4.7469,-4.7887,-4.7497,-4.6048,-4.3087,-4.0932,-3.8791,-3.5853,-3.4337,0.0,-3.3173,-3.2674,-3.2463,-3.2445,-3.1865,-3.1209,-3.0755,-3.0862,0.0,-3.0955,-3.1517,-3.2095,-3.2435,-3.3043,-3.4661,-3.7282,-4.1486,-4.4881,-4.7816,-4.8982,-4.9453,-4.9473,-4.9902,-5.0234,-5.0488,-5.0898,-5.123,-5.1426,-5.1426,-5.1426,-5.1426,-5.1426,-5.1426,-5.1426,-5.1426,-5.1426,-5.1426,-4.1416,-4.1644,-4.1857,-4.1857,-4.2298,-4.2592,-4.2365,-4.2806,-4.3167,-4.3233,-4.3233,-4.342,-4.3888,-4.3741,-4.3674,-4.3928,-4.3968,-4.3861,-4.3487,-4.3233,-4.2913,-4.2552,-4.1817,-4.1376,-4.1269,-4.0762,-4.0481,-4.0481,-4.0214,-4.0067,-4.0027,-3.9519,-3.9078,-3.8718,-3.8758,-3.8731,-3.8691,-3.9012,-3.9118,-3.9078,-3.8825,-3.8397,-3.7916,-3.7569,-3.7489,-3.7489,-3.7195,-3.7595,-3.8183,-3.7635,-3.8249,-3.8787,-3.8298,-3.8706,-3.956,-3.9377,-4.0305,-4.1304,-4.1581,-4.2319,-4.3005,-4.3731,-4.4495,-4.5252,-4.5733,-4.5002,-4.4887,-4.7828,-4.6845,-4.6073,-4.7546,-4.7234,-4.6223,-4.5147,-4.105,-3.7857,-3.7105,0.0,-3.3502,-3.3829,-3.4095,-3.4291,-3.4204,-3.2955,-3.2064,-3.1824,-3.1797,-3.1797,-3.1797,-3.2318,-3.2639,-3.2679,-3.2919,-3.4474,-3.7606,-4.2407,-4.5591,-4.6925,-4.9223,-5.0176,-5.0195,-5.0605,-5.0801,-5.082,-5.125,-5.1426,-5.1426,-5.1426,-5.1426,-5.1426,-5.1426,-5.1426,-5.1426,-5.1426,-5.1426,-5.1426,-4.171,-4.1964,-4.2151,-4.2151,-4.2445,-4.2739,-4.2913,-4.3233,-4.3567,-4.3821,-4.3861,-4.3781,-4.3634,-4.3781,-4.3861,-4.3634,-4.3861,-4.3754,-4.3207,-4.3127,-4.2726,-4.1964,-4.179,-4.1497,-4.0976,-4.0655,-4.0481,-4.0481,-4.0441,-4.0294,-4.0027,-3.992,-3.9493,-3.8731,-3.8972,-3.8798,-3.837,-3.8905,-3.9012,-3.8798,-3.8758,-3.8651,-3.8504,-3.7956,-3.7889,-3.8076,-3.7782,-3.7929,-3.8223,-3.7849,-3.7823,-3.8103,-3.7995,-3.8271,-3.8637,-3.8871,-3.9391,-3.9926,-4.0236,-4.0066,-3.9971,-4.0315,-4.152,-4.2712,-4.1912,-4.3099,-4.419,-4.3523,-4.4578,-4.565,-4.549,-4.5014,-4.3563,-4.0908,-4.0374,-3.9358,-3.6514,0.0,-3.5942,-3.6302,-3.3815,-3.2423,-3.2926,-3.2646,-3.2452,-3.2412,-3.2412,-3.2412,-3.2412,-3.2732,-3.3026,-3.3267,-3.332,-3.565,-4.0346,-4.1766,-4.4676,-4.89,-4.9757,-5.0176,-5.0195,-5.0605,-5.0801,-5.082,-5.125,-5.1426,-5.1426,-5.1426,-5.1426,-5.1426,-5.1426,-5.1426,-5.1426,-5.1426,-5.1426,-5.1426,-4.2004,-4.2111,-4.2218,-4.2218,-4.2325,-4.2472,-4.2619,-4.302,-4.3354,-4.3487,-4.3634,-4.3754,-4.3781,-4.3634,-4.3527,-4.3527,-4.3674,-4.3567,-4.3127,-4.31,-4.2699,-4.1817,-4.1644,-4.1269,-4.0695,-4.0548,-4.0481,-4.0481,-4.0481,-4.0401,-4.0254,-4.0107,-3.9746,-3.9199,-3.9159,-3.9092,-3.8985,-3.9118,-3.9159,-3.9199,-3.9012,-3.8758,-3.8437,-3.8143,-3.8036,-3.7969,-3.7676,-3.7782,-3.7969,-3.7676,-3.7676,-3.7809,-3.7809,-3.7848,-3.7884,-3.8181,-3.8954,-3.963,-3.9588,-3.9602,-3.9514,-3.9231,-4.0009,-4.1055,-4.1526,-4.1481,-4.1805,-4.3184,-4.3172,-4.3559,-4.5277,-4.3825,-4.2295,-4.1774,-4.0021,0.0,0.0,-3.7387,-3.8114,-3.8877,-3.704,-3.5706,-3.6,-3.4116,-3.2786,-3.2786,-3.2786,-3.2786,-3.2786,-3.3213,-3.3534,-3.3668,-3.5166,-3.7113,-3.9672,-4.241,-4.5379,-4.8144,-4.9761,-5.0667,-5.0859,-5.1055,-5.1133,-5.1152,-5.1348,-5.1426,-5.1426,-5.1426,-5.1426,-5.1426,-5.1426,-5.1426,-5.1426,-5.1426,-5.1426,-5.1426,-4.2218,-4.2218,-4.2218,-4.2218,-4.2218,-4.2258,-4.2405,-4.2806,-4.3127,-4.3273,-4.3487,-4.3741,-4.3968,-4.3607,-4.338,-4.3607,-4.3634,-4.3487,-4.3127,-4.31,-4.2726,-4.1924,-4.1456,-4.1016,-4.0588,-4.0508,-4.0481,-4.0481,-4.0481,-4.0481,-4.0481,-4.0254,-3.9933,-3.9599,-3.9372,-3.9306,-3.9386,-3.9225,-3.9239,-3.9386,-3.9225,-3.8798,-3.8263,-3.833,-3.8183,-3.7889,-3.7742,-3.7782,-3.7889,-3.7676,-3.7676,-3.7809,-3.7889,-3.7676,-3.7448,-3.7742,-3.8407,-3.8917,-3.8904,-3.9278,-3.9472,-3.8748,-3.9089,-3.9703,-4.0966,-4.0053,-3.9559,-4.2542,-4.1851,-4.1529,-4.4391,-4.2823,-4.1448,-4.2429,0.0,0.0,0.0,-3.8267,-3.9236,-4.0106,-3.9535,-3.9164,-3.9244,-3.6368,-3.4633,-3.4633,-3.4055,-3.3885,-3.3967,-3.3829,-3.3948,-3.4082,-3.6061,-3.7593,-3.823,-4.215,-4.5162,-4.6968,-4.8871,-5.0432,-5.1426,-5.1426,-5.1426,-5.1426,-5.1426,-5.1426,-5.1426,-5.1426,-5.1426,-5.1426,-5.1426,-5.1426,-5.1426,-5.1426,-5.1426,-5.1426,-4.2218,-4.2218,-4.2218,-4.2218,-4.2218,-4.2405,-4.2953,-4.306,-4.3314,-4.3861,-4.3968,-4.3968,-4.4008,-4.3968,-4.3928,-4.3968,-4.3968,-4.3714,-4.3127,-4.31,-4.2833,-4.2218,-4.1376,-4.0909,-4.0869,-4.0615,-4.0481,-4.0481,-4.0481,-4.0481,-4.0481,-4.0441,-4.0147,-3.9599,-3.9559,-3.9265,-3.8798,-3.9052,-3.9012,-3.8798,-3.9052,-3.8798,-3.829,-3.8584,-3.8504,-3.8263,-3.8544,-3.8437,-3.8223,-3.8183,-3.8036,-3.7849,-3.8143,-3.7823,-3.7448,-3.7742,-3.7422,-3.7229,-3.7866,-3.7852,-3.8087,-3.8486,-3.892,-3.9141,-3.8707,-3.8711,-3.8712,-3.8268,-3.9487,-4.0721,-4.09,-4.1265,-4.121,-4.0541,0.0,0.0,-3.7194,-3.7504,-3.7919,-3.8654,-3.8894,-3.9275,-3.9609,-3.9447,-3.9252,-3.9252,-3.7297,-3.6458,-3.6763,-3.4853,-3.4135,-3.4683,-3.4676,-3.5678,-3.7943,-3.8791,-4.1778,-4.6534,-4.7365,-4.9002,-5.1426,-5.1426,-5.1426,-5.1426,-5.1426,-5.1426,-5.1426,-5.1426,-5.1426,-5.1426,-5.1426,-5.1426,-5.1426,-5.1426,-5.1426,-5.1426,-4.2218,-4.2218,-4.2218,-4.2218,-4.2218,-4.2298,-4.2512,-4.2699,-4.298,-4.338,-4.3273,-4.338,-4.3928,-4.3501,-4.3314,-4.3674,-4.3527,-4.3354,-4.31,-4.2766,-4.2285,-4.171,-4.1016,-4.0655,-4.0655,-4.0548,-4.0481,-4.0481,-4.0481,-4.0481,-4.0481,-4.0481,-4.0254,-3.9853,-3.9853,-3.964,-3.9265,-3.9199,-3.9078,-3.8972,-3.8905,-3.8758,-3.8544,-3.8691,-3.8544,-3.8263,-3.8397,-3.825,-3.7996,-3.7996,-3.7929,-3.7849,-3.8143,-3.7863,-3.7382,-3.7301,-3.7114,-3.6941,-3.7162,-3.7604,-3.7839,-3.8059,-3.8608,-3.8757,-3.851,-3.8631,-3.8574,-3.792,-3.8679,-3.9543,-4.0182,-3.9629,-3.9525,-4.1261,0.0,-3.7516,-3.8558,-3.8462,-3.8497,-3.9004,-3.8225,-3.7674,-3.8006,-3.667,-3.5762,-3.5762,-3.5179,-3.4945,-3.5069,-3.4625,-3.5224,-3.7051,-3.5732,-3.5927,-3.828,-3.8487,-4.0574,-4.4564,-4.617,-4.7798,-4.9433,-5.0822,-5.1426,-5.1426,-5.1426,-5.1426,-5.1426,-5.1426,-5.1426,-5.1426,-5.1426,-5.1426,-5.1426,-5.1426,-5.1426,-5.1426,-4.2218,-4.2218,-4.2218,-4.2218,-4.2218,-4.2285,-4.2472,-4.2659,-4.2913,-4.3207,-4.306,-4.3167,-4.3781,-4.3314,-4.3127,-4.3634,-4.342,-4.3207,-4.31,-4.2365,-4.171,-4.1229,-4.0842,-4.0588,-4.0481,-4.0481,-4.0481,-4.0481,-4.0481,-4.0481,-4.0481,-4.0481,-4.0321,-4.0027,-4.0027,-3.988,-3.9559,-3.9265,-3.9159,-3.9118,-3.8838,-3.8651,-3.8584,-3.8691,-3.8544,-3.8263,-3.8263,-3.8116,-3.7929,-3.7849,-3.7809,-3.7849,-3.8036,-3.7782,-3.7315,-3.7008,-3.6941,-3.6941,-3.6941,-3.7162,-3.7604,-3.7604,-3.8046,-3.8472,-3.8472,-3.8486,-3.8486,-3.8252,-3.8389,-3.882,-3.9553,-3.8903,-3.9152,-4.2062,-3.9433,-3.7718,-3.982,-3.8859,-3.8179,-3.875,-3.8143,-3.7778,-3.8004,-3.6346,-3.5408,-3.5508,-3.5146,-3.4761,-3.4148,-3.5143,-3.6315,-3.7444,-3.6635,-3.704,-3.847,-3.847,-4.0096,-4.3148,-4.5369,-4.7203,-4.902,-5.0432,-5.1231,-5.1426,-5.1426,-5.1426,-5.1426,-5.1426,-5.1426,-5.1426,-5.1426,-5.1426,-5.1426,-5.1426,-5.1426,-5.1426,-4.2218,-4.2218,-4.2218,-4.2218,-4.2218,-4.2405,-4.2993,-4.31,-4.3207,-4.3487,-4.3527,-4.3527,-4.3527,-4.3527,-4.3674,-4.3968,-4.3714,-4.338,-4.31,-4.1991,-4.1203,-4.0909,-4.0909,-4.0762,-4.0481,-4.0481,-4.0481,-4.0481,-4.0481,-4.0481,-4.0481,-4.0481,-4.0321,-4.0027,-4.0027,-3.988,-3.9599,-3.9306,-3.9159,-3.9118,-3.8838,-3.8544,-3.829,-3.8611,-3.8544,-3.8263,-3.8263,-3.8263,-3.8223,-3.7929,-3.7809,-3.7809,-3.7809,-3.7595,-3.7315,-3.7008,-3.6941,-3.6941,-3.6941,-3.6941,-3.6941,-3.6941,-3.7397,-3.7825,-3.7839,-3.8266,-3.8692,-3.8692,-3.8454,-3.8349,-3.8483,-3.9373,-4.0558,-4.2625,-4.0023,-3.86,-4.0542,-3.86,-3.7168,-3.7475,-3.9013,-4.0181,-4.0197,-3.9879,-3.9816,-3.9952,-3.8218,-3.6333,-3.4931,-3.6782,-3.7116,-3.5388,-3.7444,-3.847,-3.847,-3.847,-3.9889,-4.2522,-4.4783,-4.7419,-5.0646,-5.0646,-5.0842,-5.1426,-5.1426,-5.1426,-5.1426,-5.1426,-5.1426,-5.1426,-5.1426,-5.1426,-5.1426,-5.1426,-5.1426,-5.1426,-4.2218,-4.2218,-4.2218,-4.2218,-4.2218,-4.2285,-4.2445,-4.2659,-4.2886,-4.3207,-4.3233,-4.338,-4.3821,-4.3674,-4.3674,-4.3968,-4.3527,-4.2833,-4.1924,-4.1523,-4.1122,-4.0615,-4.0615,-4.0548,-4.0481,-4.0481,-4.0481,-4.0481,-4.0481,-4.0481,-4.0481,-4.0481,-4.0441,-4.0334,-4.0334,-4.0187,-3.9893,-3.9599,-3.9346,-3.9118,-3.8838,-3.8651,-3.8584,-3.8691,-3.8651,-3.8544,-3.833,-3.8263,-3.8183,-3.7676,-3.7529,-3.7489,-3.7261,-3.7275,-3.7315,-3.7008,-3.6941,-3.6941,-3.6941,-3.6941,-3.6981,-3.7195,-3.7101,-3.7229,-3.7417,-3.7545,-3.7383,-3.7383,-3.7757,-3.7757,-3.745,-3.8269,-3.9524,-4.0825,-4.0372,-4.0216,-4.1751,-4.0927,-4.0275,-4.0233,-4.0149,-4.0276,-4.0515,-3.8645,-3.7568,-3.7673,-3.751,-3.785,-3.8852,-3.8486,-3.8663,-3.9351,-3.733,-3.7652,-4.0729,-3.9285,-4.0096,-4.3165,-4.3773,-4.5001,-4.6822,-4.8231,-4.902,-4.9217,-5.0822,-5.1426,-5.1426,-5.1426,-5.1426,-5.1426,-5.1426,-5.1426,-5.1426,-5.1426,-5.1426,-5.1426,-4.2218,-4.2218,-4.2258,-4.2365,-4.2405,-4.2472,-4.2686,-4.2873,-4.306,-4.3233,-4.3273,-4.3354,-4.3607,-4.3567,-4.3567,-4.3634,-4.3207,-4.2472,-4.1416,-4.1336,-4.1082,-4.0508,-4.0481,-4.0481,-4.0481,-4.0481,-4.0481,-4.0481,-4.0481,-4.0481,-4.0481,-4.0481,-4.0481,-4.0481,-4.0481,-4.0361,-4.0187,-3.9786,-3.9559,-3.9452,-3.8945,-3.8798,-3.8865,-3.8758,-3.8651,-3.8504,-3.8183,-3.8076,-3.7996,-3.7422,-3.7195,-3.7168,-3.7008,-3.7048,-3.7155,-3.6981,-3.6941,-3.6941,-3.6941,-3.6941,-3.7008,-3.7315,-3.7155,-3.6981,-3.7155,-3.7048,-3.6941,-3.6941,-3.7162,-3.7427,-3.7045,-3.7568,-3.8778,-4.0353,-3.9806,-4.0153,-4.274,-4.1907,-4.1182,-4.1794,-4.12,-4.0665,-4.0674,-3.9086,-3.8157,-3.8295,-3.8599,-3.8963,-3.9504,-3.9495,-3.9266,-3.878,-3.8175,-3.9093,-4.1754,-4.1344,-4.1738,-4.3165,-4.3992,-4.4413,-4.4817,-4.6822,-4.8014,-4.8231,-5.0432,-5.1426,-5.1426,-5.1426,-5.1426,-5.1426,-5.1426,-5.1426,-5.1426,-5.1426,-5.1426,-5.1426,-4.2218,-4.2218,-4.2298,-4.2592,-4.2619,-4.2806,-4.338,-4.3461,-4.3487,-4.3527,-4.3567,-4.3461,-4.3207,-4.338,-4.342,-4.3167,-4.2806,-4.2258,-4.1443,-4.1336,-4.1056,-4.0548,-4.0481,-4.0481,-4.0481,-4.0481,-4.0481,-4.0481,-4.0481,-4.0481,-4.0481,-4.0481,-4.0481,-4.0481,-4.0481,-4.0481,-4.0441,-3.9853,-3.9746,-3.992,-3.9052,-3.8865,-3.9078,-3.8825,-3.8544,-3.8263,-3.7929,-3.7823,-3.7782,-3.7155,-3.6981,-3.6981,-3.6941,-3.6941,-3.6941,-3.6941,-3.6941,-3.6941,-3.6941,-3.6941,-3.7008,-3.7315,-3.7155,-3.6941,-3.6981,-3.6967,-3.6941,-3.6941,-3.6941,-3.7001,-3.6829,-3.7367,-3.8212,-4.0218,-3.9107,-3.9315,-4.3368,-4.2147,-4.1329,-4.2726,-4.2524,-4.1931,-4.1534,-4.1082,-4.0772,-4.087,-4.1061,-4.0416,-3.8906,-4.0591,-3.9964,-3.6174,-3.9668,-4.1722,-4.1958,-4.3992,-4.4397,-4.2978,-4.4834,-4.5254,-4.4413,-4.6223,-4.7618,-4.8231,-5.0432,-5.1426,-5.1426,-5.1426,-5.1426,-5.1426,-5.1426,-5.1426,-5.1426,-5.1426,-5.1426,-5.1426,-4.2218,-4.2218,-4.2258,-4.2298,-4.2325,-4.2445,-4.2806,-4.306,-4.3273,-4.3487,-4.3741,-4.3888,-4.3821,-4.3634,-4.3487,-4.3447,-4.2766,-4.2151,-4.171,-4.1269,-4.0949,-4.0842,-4.0588,-4.0481,-4.0481,-4.0481,-4.0481,-4.0481,-4.0481,-4.0481,-4.0481,-4.0481,-4.0481,-4.0481,-4.0481,-4.0481,-4.0441,-3.9853,-3.964,-3.964,-3.8985,-3.8758,-3.8798,-3.8758,-3.8691,-3.8544,-3.7996,-3.7969,-3.8076,-3.7489,-3.7275,-3.7235,-3.7008,-3.6941,-3.6941,-3.6941,-3.6941,-3.6941,-3.6941,-3.6941,-3.7008,-3.7315,-3.7155,-3.7008,-3.7235,-3.7114,-3.6941,-3.6941,-3.6941,-3.6767,-3.6396,-3.672,-3.7159,-3.7781,-3.9093,-4.0538,-4.1597,-4.3992,-4.5787,-4.5787,-4.6789,-4.7302,-4.693,-4.4622,-4.3101,-4.2319,-4.3283,-4.416,-4.5151,-4.4343,-4.3473,-4.3123,-4.1932,-4.2263,-4.4195,-4.4817,-4.522,-4.5805,-4.4413,-4.4211,-4.4817,-4.522,-4.6423,-4.8231,-5.0432,-5.1426,-5.1426,-5.1426,-5.1426,-5.1426,-5.1426,-5.1426,-5.1426,-5.1426,-5.1426,-5.1426,-4.2218,-4.2218,-4.2258,-4.2405,-4.2445,-4.2512,-4.2806,-4.2993,-4.3167,-4.3314,-4.3461,-4.3567,-4.3567,-4.342,-4.3273,-4.3127,-4.2579,-4.2031,-4.1603,-4.1269,-4.0989,-4.0722,-4.0548,-4.0481,-4.0481,-4.0481,-4.0481,-4.0481,-4.0481,-4.0481,-4.0481,-4.0481,-4.0481,-4.0481,-4.0481,-4.0401,-4.0214,-3.9786,-3.9599,-3.9559,-3.8945,-3.8798,-3.8905,-3.8758,-3.8624,-3.8477,-3.8143,-3.7929,-3.7782,-3.7315,-3.7155,-3.7155,-3.6981,-3.6941,-3.6941,-3.6941,-3.6941,-3.6941,-3.6941,-3.6941,-3.6981,-3.7128,-3.7048,-3.7008,-3.7315,-3.7155,-3.6901,-3.6754,-3.6727,-3.654,-3.5965,-3.6288,-3.678,-3.6929,-3.8292,-3.9935,-4.1186,-4.4211,-4.6423,-4.7021,-4.8304,-4.9071,-4.8305,-4.6525,-4.5363,-4.5363,-4.5904,-4.6157,-4.6343,-4.5502,-4.471,-4.3858,-4.3473,-4.3791,-4.5019,-4.604,-4.664,-4.6623,-4.4413,-4.3198,-4.3165,-4.4397,-4.6223,-4.8231,-5.0432,-5.1426,-5.1426,-5.1426,-5.1426,-5.1426,-5.1426,-5.1426,-5.1426,-5.1426,-5.1426,-5.1426,-4.2218,-4.2218,-4.2298,-4.2552,-4.2592,-4.2699,-4.298,-4.302,-4.302,-4.31,-4.31,-4.31,-4.31,-4.306,-4.2913,-4.2619,-4.2258,-4.1884,-4.1456,-4.1269,-4.1016,-4.0588,-4.0508,-4.0481,-4.0481,-4.0481,-4.0481,-4.0481,-4.0481,-4.0481,-4.0481,-4.0481,-4.0481,-4.0481,-4.0481,-4.0321,-4.0,-3.9706,-3.9559,-3.9493,-3.8945,-3.8865,-3.9052,-3.8825,-3.8584,-3.833,-3.829,-3.7929,-3.7422,-3.7114,-3.7008,-3.7008,-3.6941,-3.6941,-3.6941,-3.6941,-3.6941,-3.6941,-3.6941,-3.6941,-3.6941,-3.7008,-3.6981,-3.7008,-3.7315,-3.7155,-3.6861,-3.662,-3.658,-3.6393,-3.5805,-3.6139,-3.6443,-3.6705,-3.7277,-3.8306,-4.076,-4.2994,-4.5001,-4.6205,-4.7979,-4.8748,-4.814,-4.7347,-4.7216,-4.7686,-4.772,-4.7369,-4.6017,-4.6073,-4.5466,-4.3925,-4.5535,-4.6153,-4.5622,-4.7473,-4.7853,-4.6423,-4.4817,-4.3384,-4.2131,-4.4581,-4.6822,-4.8823,-5.0627,-5.1426,-5.1426,-5.1426,-5.1426,-5.1426,-5.1426,-5.1426,-5.1426,-5.1426,-5.1426,-5.1426,-4.2218,-4.2218,-4.2218,-4.2258,-4.2285,-4.2365,-4.2659,-4.2726,-4.2806,-4.306,-4.31,-4.31,-4.31,-4.2873,-4.2592,-4.2298,-4.1777,-4.1523,-4.171,-4.1016,-4.0655,-4.0842,-4.0615,-4.0481,-4.0481,-4.0481,-4.0481,-4.0481,-4.0481,-4.0481,-4.0481,-4.0481,-4.0481,-4.0481,-4.0481,-4.0321,-4.0,-3.9706,-3.9452,-3.9199,-3.8865,-3.8758,-3.8798,-3.8731,-3.8691,-3.8624,-3.837,-3.8036,-3.7702,-3.7422,-3.7315,-3.7275,-3.7008,-3.6941,-3.6941,-3.6941,-3.6941,-3.6941,-3.6941,-3.6941,-3.7008,-3.7275,-3.7128,-3.7008,-3.7315,-3.7155,-3.6941,-3.6901,-3.6874,-3.6687,-3.6112,-3.6019,-3.6047,-3.6129,-3.6649,-3.7277,-3.8098,-4.0554,-4.2383,-4.2571,-4.5223,-4.76,-4.8576,-4.8538,-4.7968,-4.6916,-4.7479,-4.8235,-4.8786,-4.8132,-4.8312,-4.961,-4.9095,-4.8704,-4.8484,-4.8879,-4.7853,-4.5805,-4.6023,-4.6605,-4.7203,-4.7618,-4.902,-5.1037,-5.1231,-5.1426,-5.1426,-5.1426,-5.1426,-5.1426,-5.1426,-5.1426,-5.1426,-5.1426,-5.1426,-5.1426,-4.2218,-4.2218,-4.2218,-4.2218,-4.2218,-4.2258,-4.2405,-4.2405,-4.2472,-4.2579,-4.2619,-4.2659,-4.2846,-4.2739,-4.2552,-4.2258,-4.1991,-4.175,-4.1563,-4.1163,-4.0869,-4.0695,-4.0548,-4.0481,-4.0481,-4.0481,-4.0481,-4.0481,-4.0481,-4.0481,-4.0481,-4.0481,-4.0481,-4.0481,-4.0481,-4.0321,-4.0,-3.9706,-3.9412,-3.9118,-3.8838,-3.8718,-3.8718,-3.8718,-3.8611,-3.8397,-3.7929,-3.7676,-3.7529,-3.7235,-3.7128,-3.7114,-3.6981,-3.6941,-3.6941,-3.6941,-3.6941,-3.6941,-3.6941,-3.6941,-3.7202,-3.8612,-3.7893,-3.7176,-3.8832,-3.7921,-3.6901,-3.6727,-3.658,-3.6326,-3.5899,-3.5698,-3.5711,-3.5877,-3.6439,-3.7068,-3.7695,-4.0141,-4.2099,-4.3104,-4.3982,-4.4832,-4.547,-4.6279,-4.6518,-4.6177,-4.7498,-4.865,-4.9408,-4.9071,-4.9167,-4.9935,-4.98,-4.9527,-4.9132,-4.9376,-4.9273,-4.8626,-4.8842,-4.8429,-4.7798,-4.8014,-4.9414,-5.1426,-5.1426,-5.1426,-5.1426,-5.1426,-5.1426,-5.1426,-5.1426,-5.1426,-5.1426,-5.1426,-5.1426,-5.1426]}]]